<?xml version="1.0" encoding="UTF-8"?>
<gpx version="1.1" creator="2bulu-scraper" xmlns="http://www.topografix.com/GPX/1/1">
  <metadata><name>珙县猴子岩（后段路有点野，最好冬天去，其他时段不要去）</name><desc>source: 2bulu.com trackId=78636056; exported 2026-08-31T01:48:57.782Z</desc>
    <bounds minlat="28.384752" minlon="104.700059" maxlat="28.404989" maxlon="104.718183"/>
    <link href="https://www.2bulu.com/track/t-TCcHZmmTFLDp%252FR2KBg5Tzw%253D%253D.htm"><text>2bulu 源页面</text></link>
  </metadata>
  <wpt lat="28.404586" lon="104.711941"><ele>458</ele><name></name></wpt>
  <wpt lat="28.402811" lon="104.713906"><ele>521</ele><name></name></wpt>
  <wpt lat="28.402371" lon="104.714268"><ele>541</ele><name></name></wpt>
  <wpt lat="28.401548" lon="104.71538"><ele>550</ele><name></name></wpt>
  <wpt lat="28.399285" lon="104.7171"><ele>566</ele><name></name></wpt>
  <wpt lat="28.398686" lon="104.717062"><ele>585</ele><name></name></wpt>
  <wpt lat="28.398304" lon="104.717003"><ele>600</ele><name></name></wpt>
  <wpt lat="28.396626" lon="104.716779"><ele>678</ele><name></name></wpt>
  <wpt lat="28.395766" lon="104.717607"><ele>782</ele><name></name></wpt>
  <wpt lat="28.394038" lon="104.717368"><ele>911</ele><name></name></wpt>
  <wpt lat="28.386637" lon="104.710791"><ele>1030</ele><name></name></wpt>
  <wpt lat="28.3873" lon="104.710733"><ele>1037</ele><name></name></wpt>
  <wpt lat="28.388039" lon="104.710901"><ele>1035</ele><name></name></wpt>
  <wpt lat="28.391363" lon="104.713226"><ele>1030</ele><name></name></wpt>
  <wpt lat="28.392277" lon="104.713752"><ele>1034</ele><name></name></wpt>
  <wpt lat="28.392625" lon="104.713676"><ele>1031</ele><name></name></wpt>
  <wpt lat="28.393511" lon="104.713081"><ele>1018</ele><name></name></wpt>
  <wpt lat="28.394686" lon="104.712801"><ele>990</ele><name></name></wpt>
  <wpt lat="28.395753" lon="104.71256"><ele>1024</ele><name></name></wpt>
  <wpt lat="28.39567" lon="104.712032"><ele>1013</ele><name></name></wpt>
  <wpt lat="28.395487" lon="104.711664"><ele>985</ele><name></name></wpt>
  <wpt lat="28.392924" lon="104.708669"><ele>904</ele><name></name></wpt>
  <wpt lat="28.391256" lon="104.705692"><ele>861</ele><name></name></wpt>
  <wpt lat="28.39164" lon="104.705048"><ele>846</ele><name></name></wpt>
  <wpt lat="28.389801" lon="104.704227"><ele>841</ele><name></name></wpt>
  <wpt lat="28.387486" lon="104.702225"><ele>777</ele><name></name></wpt>
  <wpt lat="28.388471" lon="104.700938"><ele>700</ele><name></name></wpt>
  <wpt lat="28.389387" lon="104.701223"><ele>666</ele><name></name></wpt>
  <wpt lat="28.390782" lon="104.701962"><ele>647</ele><name></name></wpt>
  <wpt lat="28.394498" lon="104.70393"><ele>590</ele><name></name></wpt>
  <wpt lat="28.396833" lon="104.70521"><ele>557</ele><name></name></wpt>
  <wpt lat="28.400617" lon="104.707429"><ele>511</ele><name></name></wpt>
  <trk><name>珙县猴子岩（后段路有点野，最好冬天去，其他时段不要去）</name>
      <trkseg>
        <trkpt lat="28.404622" lon="104.711324"><ele>457.33035</ele><time>2026-01-30T19:29:45.000Z</time></trkpt>
        <trkpt lat="28.404577" lon="104.711334"><ele>457.2016</ele><time>2026-01-30T19:29:50.000Z</time></trkpt>
        <trkpt lat="28.40453" lon="104.711339"><ele>457.66376</ele><time>2026-01-30T19:29:54.000Z</time></trkpt>
        <trkpt lat="28.404484" lon="104.711363"><ele>457.45303</ele><time>2026-01-30T19:30:01.000Z</time></trkpt>
        <trkpt lat="28.404436" lon="104.711371"><ele>458.08337</ele><time>2026-01-30T19:30:05.000Z</time></trkpt>
        <trkpt lat="28.40439" lon="104.711391"><ele>458.64722</ele><time>2026-01-30T19:30:10.000Z</time></trkpt>
        <trkpt lat="28.404356" lon="104.711433"><ele>459.20355</ele><time>2026-01-30T19:30:14.000Z</time></trkpt>
        <trkpt lat="28.404348" lon="104.711485"><ele>458.99844</ele><time>2026-01-30T19:30:20.000Z</time></trkpt>
        <trkpt lat="28.404367" lon="104.711532"><ele>459.10254</ele><time>2026-01-30T19:30:24.000Z</time></trkpt>
        <trkpt lat="28.404384" lon="104.71159"><ele>459.36646</ele><time>2026-01-30T19:30:30.000Z</time></trkpt>
        <trkpt lat="28.404394" lon="104.711641"><ele>458.6732</ele><time>2026-01-30T19:30:37.000Z</time></trkpt>
        <trkpt lat="28.404415" lon="104.711686"><ele>458.01703</ele><time>2026-01-30T19:30:43.000Z</time></trkpt>
        <trkpt lat="28.404456" lon="104.711718"><ele>457.45422</ele><time>2026-01-30T19:30:50.000Z</time></trkpt>
        <trkpt lat="28.404499" lon="104.711741"><ele>458.12054</ele><time>2026-01-30T19:30:54.000Z</time></trkpt>
        <trkpt lat="28.404537" lon="104.711769"><ele>458.7723</ele><time>2026-01-30T19:30:59.000Z</time></trkpt>
        <trkpt lat="28.404577" lon="104.7118"><ele>458.49698</ele><time>2026-01-30T19:31:02.000Z</time></trkpt>
        <trkpt lat="28.404593" lon="104.71185"><ele>457.2774</ele><time>2026-01-30T19:31:11.000Z</time></trkpt>
        <trkpt lat="28.404606" lon="104.711904"><ele>457.59262</ele><time>2026-01-30T19:31:17.000Z</time></trkpt>
        <trkpt lat="28.404627" lon="104.711964"><ele>458.11136</ele><time>2026-01-30T19:31:22.000Z</time></trkpt>
        <trkpt lat="28.404632" lon="104.712022"><ele>457.4608</ele><time>2026-01-30T19:31:26.000Z</time></trkpt>
        <trkpt lat="28.404654" lon="104.712074"><ele>458.1413</ele><time>2026-01-30T19:31:30.000Z</time></trkpt>
        <trkpt lat="28.404687" lon="104.712116"><ele>457.4531</ele><time>2026-01-30T19:31:34.000Z</time></trkpt>
        <trkpt lat="28.404704" lon="104.712175"><ele>457.54108</ele><time>2026-01-30T19:31:38.000Z</time></trkpt>
        <trkpt lat="28.404737" lon="104.712221"><ele>457.57782</ele><time>2026-01-30T19:31:43.000Z</time></trkpt>
        <trkpt lat="28.40471" lon="104.712262"><ele>457.4992</ele><time>2026-01-30T19:32:04.000Z</time></trkpt>
        <trkpt lat="28.404736" lon="104.712315"><ele>458.12054</ele><time>2026-01-30T19:32:10.000Z</time></trkpt>
        <trkpt lat="28.404741" lon="104.712372"><ele>457.53088</ele><time>2026-01-30T19:32:21.000Z</time></trkpt>
        <trkpt lat="28.404707" lon="104.712327"><ele>455.7935</ele><time>2026-01-30T19:32:38.000Z</time></trkpt>
        <trkpt lat="28.404691" lon="104.712269"><ele>456.0506</ele><time>2026-01-30T19:32:44.000Z</time></trkpt>
        <trkpt lat="28.404727" lon="104.712323"><ele>455.832</ele><time>2026-01-30T19:32:53.000Z</time></trkpt>
        <trkpt lat="28.404759" lon="104.71236"><ele>455.47775</ele><time>2026-01-30T19:32:57.000Z</time></trkpt>
        <trkpt lat="28.404814" lon="104.712384"><ele>455.67926</ele><time>2026-01-30T19:33:01.000Z</time></trkpt>
        <trkpt lat="28.404867" lon="104.712412"><ele>454.7905</ele><time>2026-01-30T19:33:06.000Z</time></trkpt>
        <trkpt lat="28.404905" lon="104.712448"><ele>454.735</ele><time>2026-01-30T19:33:11.000Z</time></trkpt>
        <trkpt lat="28.404931" lon="104.712494"><ele>455.0714</ele><time>2026-01-30T19:33:20.000Z</time></trkpt>
        <trkpt lat="28.40496" lon="104.712533"><ele>455.99582</ele><time>2026-01-30T19:33:27.000Z</time></trkpt>
        <trkpt lat="28.404989" lon="104.712589"><ele>456.81088</ele><time>2026-01-30T19:33:36.000Z</time></trkpt>
        <trkpt lat="28.404954" lon="104.712629"><ele>458.1981</ele><time>2026-01-30T19:33:47.000Z</time></trkpt>
        <trkpt lat="28.404966" lon="104.712577"><ele>454.3373</ele><time>2026-01-30T19:34:35.000Z</time></trkpt>
        <trkpt lat="28.404922" lon="104.712541"><ele>454.18988</ele><time>2026-01-30T19:34:40.000Z</time></trkpt>
        <trkpt lat="28.404898" lon="104.712493"><ele>453.71634</ele><time>2026-01-30T19:34:48.000Z</time></trkpt>
        <trkpt lat="28.40486" lon="104.712457"><ele>453.9076</ele><time>2026-01-30T19:34:53.000Z</time></trkpt>
        <trkpt lat="28.404809" lon="104.712438"><ele>454.5948</ele><time>2026-01-30T19:35:01.000Z</time></trkpt>
        <trkpt lat="28.404768" lon="104.712413"><ele>455.21802</ele><time>2026-01-30T19:35:06.000Z</time></trkpt>
        <trkpt lat="28.404722" lon="104.712382"><ele>455.15192</ele><time>2026-01-30T19:35:11.000Z</time></trkpt>
        <trkpt lat="28.404701" lon="104.712327"><ele>456.46655</ele><time>2026-01-30T19:35:16.000Z</time></trkpt>
        <trkpt lat="28.404689" lon="104.712264"><ele>457.2439</ele><time>2026-01-30T19:35:20.000Z</time></trkpt>
        <trkpt lat="28.404663" lon="104.712207"><ele>458.64688</ele><time>2026-01-30T19:35:37.000Z</time></trkpt>
        <trkpt lat="28.404659" lon="104.712153"><ele>458.70874</ele><time>2026-01-30T19:35:41.000Z</time></trkpt>
        <trkpt lat="28.404634" lon="104.7121"><ele>458.46017</ele><time>2026-01-30T19:35:47.000Z</time></trkpt>
        <trkpt lat="28.404623" lon="104.712051"><ele>459.18857</ele><time>2026-01-30T19:35:53.000Z</time></trkpt>
        <trkpt lat="28.404597" lon="104.712008"><ele>458.82327</ele><time>2026-01-30T19:35:58.000Z</time></trkpt>
        <trkpt lat="28.404635" lon="104.71198"><ele>458.78732</ele><time>2026-01-30T19:36:13.000Z</time></trkpt>
        <trkpt lat="28.404639" lon="104.712035"><ele>458.25873</ele><time>2026-01-30T19:36:23.000Z</time></trkpt>
        <trkpt lat="28.404678" lon="104.712081"><ele>457.66904</ele><time>2026-01-30T19:36:29.000Z</time></trkpt>
        <trkpt lat="28.404715" lon="104.712124"><ele>457.2956</ele><time>2026-01-30T19:36:33.000Z</time></trkpt>
        <trkpt lat="28.404711" lon="104.712176"><ele>457.0994</ele><time>2026-01-30T19:36:37.000Z</time></trkpt>
        <trkpt lat="28.404699" lon="104.712127"><ele>456.9724</ele><time>2026-01-30T19:36:48.000Z</time></trkpt>
        <trkpt lat="28.404676" lon="104.712066"><ele>456.8384</ele><time>2026-01-30T19:36:52.000Z</time></trkpt>
        <trkpt lat="28.404642" lon="104.71203"><ele>457.13373</ele><time>2026-01-30T19:36:56.000Z</time></trkpt>
        <trkpt lat="28.40462" lon="104.711985"><ele>457.27615</ele><time>2026-01-30T19:37:00.000Z</time></trkpt>
        <trkpt lat="28.404591" lon="104.711938"><ele>457.84506</ele><time>2026-01-30T19:37:06.000Z</time></trkpt>
        <trkpt lat="28.404577" lon="104.711889"><ele>459.16412</ele><time>2026-01-30T19:37:19.000Z</time></trkpt>
        <trkpt lat="28.404586" lon="104.711941"><ele>458.12885</ele><time>2026-01-30T19:37:49.000Z</time></trkpt>
        <trkpt lat="28.40454" lon="104.711903"><ele>460.94757</ele><time>2026-01-30T19:38:09.000Z</time></trkpt>
        <trkpt lat="28.404493" lon="104.711889"><ele>461.17334</ele><time>2026-01-30T19:38:14.000Z</time></trkpt>
        <trkpt lat="28.404447" lon="104.711892"><ele>462.95383</ele><time>2026-01-30T19:38:22.000Z</time></trkpt>
        <trkpt lat="28.404499" lon="104.711882"><ele>461.9184</ele><time>2026-01-30T19:38:43.000Z</time></trkpt>
        <trkpt lat="28.404535" lon="104.711922"><ele>461.76443</ele><time>2026-01-30T19:38:48.000Z</time></trkpt>
        <trkpt lat="28.404523" lon="104.711973"><ele>461.97</ele><time>2026-01-30T19:38:57.000Z</time></trkpt>
        <trkpt lat="28.404515" lon="104.712028"><ele>462.89877</ele><time>2026-01-30T19:39:09.000Z</time></trkpt>
        <trkpt lat="28.40452" lon="104.712084"><ele>463.5465</ele><time>2026-01-30T19:39:15.000Z</time></trkpt>
        <trkpt lat="28.404514" lon="104.712136"><ele>464.6736</ele><time>2026-01-30T19:39:21.000Z</time></trkpt>
        <trkpt lat="28.404504" lon="104.712193"><ele>464.8854</ele><time>2026-01-30T19:39:27.000Z</time></trkpt>
        <trkpt lat="28.404487" lon="104.712243"><ele>465.0459</ele><time>2026-01-30T19:39:33.000Z</time></trkpt>
        <trkpt lat="28.404441" lon="104.712223"><ele>466.88385</ele><time>2026-01-30T19:39:43.000Z</time></trkpt>
        <trkpt lat="28.404403" lon="104.712188"><ele>467.63113</ele><time>2026-01-30T19:39:54.000Z</time></trkpt>
        <trkpt lat="28.404381" lon="104.712237"><ele>467.75528</ele><time>2026-01-30T19:40:02.000Z</time></trkpt>
        <trkpt lat="28.404369" lon="104.71229"><ele>467.4832</ele><time>2026-01-30T19:40:11.000Z</time></trkpt>
        <trkpt lat="28.404331" lon="104.712323"><ele>468.12042</ele><time>2026-01-30T19:40:17.000Z</time></trkpt>
        <trkpt lat="28.404286" lon="104.712344"><ele>468.36523</ele><time>2026-01-30T19:40:24.000Z</time></trkpt>
        <trkpt lat="28.404261" lon="104.71239"><ele>467.75735</ele><time>2026-01-30T19:40:32.000Z</time></trkpt>
        <trkpt lat="28.404214" lon="104.71241"><ele>469.4686</ele><time>2026-01-30T19:40:51.000Z</time></trkpt>
        <trkpt lat="28.40419" lon="104.712366"><ele>470.37234</ele><time>2026-01-30T19:40:55.000Z</time></trkpt>
        <trkpt lat="28.404144" lon="104.712353"><ele>470.46216</ele><time>2026-01-30T19:41:02.000Z</time></trkpt>
        <trkpt lat="28.404097" lon="104.712361"><ele>470.70248</ele><time>2026-01-30T19:41:07.000Z</time></trkpt>
        <trkpt lat="28.404053" lon="104.712372"><ele>470.61816</ele><time>2026-01-30T19:41:12.000Z</time></trkpt>
        <trkpt lat="28.404002" lon="104.712351"><ele>471.394</ele><time>2026-01-30T19:41:17.000Z</time></trkpt>
        <trkpt lat="28.403951" lon="104.712339"><ele>471.77057</ele><time>2026-01-30T19:41:22.000Z</time></trkpt>
        <trkpt lat="28.403901" lon="104.712333"><ele>471.77206</ele><time>2026-01-30T19:41:26.000Z</time></trkpt>
        <trkpt lat="28.403854" lon="104.712338"><ele>471.79114</ele><time>2026-01-30T19:41:31.000Z</time></trkpt>
        <trkpt lat="28.403809" lon="104.712354"><ele>473.63113</ele><time>2026-01-30T19:41:35.000Z</time></trkpt>
        <trkpt lat="28.403772" lon="104.712395"><ele>474.69012</ele><time>2026-01-30T19:41:38.000Z</time></trkpt>
        <trkpt lat="28.403722" lon="104.712419"><ele>475.50534</ele><time>2026-01-30T19:41:42.000Z</time></trkpt>
        <trkpt lat="28.403676" lon="104.712419"><ele>477.0726</ele><time>2026-01-30T19:41:47.000Z</time></trkpt>
        <trkpt lat="28.403629" lon="104.712383"><ele>477.48114</ele><time>2026-01-30T19:42:07.000Z</time></trkpt>
        <trkpt lat="28.403603" lon="104.712338"><ele>478.18347</ele><time>2026-01-30T19:42:11.000Z</time></trkpt>
        <trkpt lat="28.403575" lon="104.712287"><ele>478.55045</ele><time>2026-01-30T19:42:16.000Z</time></trkpt>
        <trkpt lat="28.403528" lon="104.71226"><ele>479.42</ele><time>2026-01-30T19:42:21.000Z</time></trkpt>
        <trkpt lat="28.403501" lon="104.712205"><ele>480.198</ele><time>2026-01-30T19:42:26.000Z</time></trkpt>
        <trkpt lat="28.403475" lon="104.712158"><ele>481.16068</ele><time>2026-01-30T19:42:30.000Z</time></trkpt>
        <trkpt lat="28.403448" lon="104.712114"><ele>482.82248</ele><time>2026-01-30T19:42:35.000Z</time></trkpt>
        <trkpt lat="28.403405" lon="104.712086"><ele>483.8779</ele><time>2026-01-30T19:42:40.000Z</time></trkpt>
        <trkpt lat="28.403373" lon="104.712132"><ele>485.4721</ele><time>2026-01-30T19:42:45.000Z</time></trkpt>
        <trkpt lat="28.403376" lon="104.71219"><ele>487.15112</ele><time>2026-01-30T19:42:52.000Z</time></trkpt>
        <trkpt lat="28.403333" lon="104.712226"><ele>489.14194</ele><time>2026-01-30T19:43:03.000Z</time></trkpt>
        <trkpt lat="28.403288" lon="104.712242"><ele>493.19528</ele><time>2026-01-30T19:43:11.000Z</time></trkpt>
        <trkpt lat="28.403252" lon="104.71228"><ele>497.13977</ele><time>2026-01-30T19:43:30.000Z</time></trkpt>
        <trkpt lat="28.403204" lon="104.712293"><ele>497.81018</ele><time>2026-01-30T19:43:39.000Z</time></trkpt>
        <trkpt lat="28.403186" lon="104.71234"><ele>497.85626</ele><time>2026-01-30T19:43:49.000Z</time></trkpt>
        <trkpt lat="28.403182" lon="104.712392"><ele>498.53317</ele><time>2026-01-30T19:43:54.000Z</time></trkpt>
        <trkpt lat="28.403165" lon="104.712442"><ele>499.4289</ele><time>2026-01-30T19:43:59.000Z</time></trkpt>
        <trkpt lat="28.403154" lon="104.712493"><ele>500.36896</ele><time>2026-01-30T19:44:04.000Z</time></trkpt>
        <trkpt lat="28.403132" lon="104.712548"><ele>501.85385</ele><time>2026-01-30T19:44:12.000Z</time></trkpt>
        <trkpt lat="28.40311" lon="104.712599"><ele>503.54788</ele><time>2026-01-30T19:44:19.000Z</time></trkpt>
        <trkpt lat="28.403082" lon="104.712641"><ele>503.79984</ele><time>2026-01-30T19:44:24.000Z</time></trkpt>
        <trkpt lat="28.403074" lon="104.712692"><ele>504.49225</ele><time>2026-01-30T19:44:29.000Z</time></trkpt>
        <trkpt lat="28.403063" lon="104.712751"><ele>504.56705</ele><time>2026-01-30T19:44:34.000Z</time></trkpt>
        <trkpt lat="28.403063" lon="104.712814"><ele>504.89206</ele><time>2026-01-30T19:44:41.000Z</time></trkpt>
        <trkpt lat="28.403077" lon="104.712869"><ele>504.5199</ele><time>2026-01-30T19:44:48.000Z</time></trkpt>
        <trkpt lat="28.403122" lon="104.712904"><ele>504.64508</ele><time>2026-01-30T19:44:53.000Z</time></trkpt>
        <trkpt lat="28.403157" lon="104.712938"><ele>503.73395</ele><time>2026-01-30T19:44:58.000Z</time></trkpt>
        <trkpt lat="28.403154" lon="104.71299"><ele>503.5177</ele><time>2026-01-30T19:45:02.000Z</time></trkpt>
        <trkpt lat="28.403142" lon="104.713041"><ele>503.84863</ele><time>2026-01-30T19:45:06.000Z</time></trkpt>
        <trkpt lat="28.403144" lon="104.713105"><ele>503.98187</ele><time>2026-01-30T19:45:11.000Z</time></trkpt>
        <trkpt lat="28.403151" lon="104.713166"><ele>504.37323</ele><time>2026-01-30T19:45:16.000Z</time></trkpt>
        <trkpt lat="28.403112" lon="104.713194"><ele>505.91974</ele><time>2026-01-30T19:45:21.000Z</time></trkpt>
        <trkpt lat="28.4031" lon="104.713257"><ele>505.2536</ele><time>2026-01-30T19:45:27.000Z</time></trkpt>
        <trkpt lat="28.403077" lon="104.713307"><ele>504.9409</ele><time>2026-01-30T19:45:33.000Z</time></trkpt>
        <trkpt lat="28.403054" lon="104.713358"><ele>505.20007</ele><time>2026-01-30T19:45:39.000Z</time></trkpt>
        <trkpt lat="28.403028" lon="104.713403"><ele>507.09024</ele><time>2026-01-30T19:45:50.000Z</time></trkpt>
        <trkpt lat="28.403012" lon="104.713453"><ele>507.6105</ele><time>2026-01-30T19:45:54.000Z</time></trkpt>
        <trkpt lat="28.402995" lon="104.713506"><ele>509.27643</ele><time>2026-01-30T19:45:59.000Z</time></trkpt>
        <trkpt lat="28.403" lon="104.713561"><ele>510.38925</ele><time>2026-01-30T19:46:05.000Z</time></trkpt>
        <trkpt lat="28.403001" lon="104.713618"><ele>510.5371</ele><time>2026-01-30T19:46:10.000Z</time></trkpt>
        <trkpt lat="28.402963" lon="104.713647"><ele>512.00995</ele><time>2026-01-30T19:46:16.000Z</time></trkpt>
        <trkpt lat="28.402932" lon="104.71369"><ele>515.0361</ele><time>2026-01-30T19:46:24.000Z</time></trkpt>
        <trkpt lat="28.402897" lon="104.713729"><ele>515.4784</ele><time>2026-01-30T19:46:31.000Z</time></trkpt>
        <trkpt lat="28.402906" lon="104.713786"><ele>517.2991</ele><time>2026-01-30T19:46:39.000Z</time></trkpt>
        <trkpt lat="28.402901" lon="104.713844"><ele>518.26483</ele><time>2026-01-30T19:46:44.000Z</time></trkpt>
        <trkpt lat="28.402851" lon="104.713871"><ele>519.4244</ele><time>2026-01-30T19:46:54.000Z</time></trkpt>
        <trkpt lat="28.402811" lon="104.713906"><ele>521.15106</ele><time>2026-01-30T19:46:59.000Z</time></trkpt>
        <trkpt lat="28.402792" lon="104.713956"><ele>523.1954</ele><time>2026-01-30T19:47:15.000Z</time></trkpt>
        <trkpt lat="28.402754" lon="104.713994"><ele>524.6381</ele><time>2026-01-30T19:47:20.000Z</time></trkpt>
        <trkpt lat="28.402715" lon="104.714024"><ele>526.32684</ele><time>2026-01-30T19:47:26.000Z</time></trkpt>
        <trkpt lat="28.402681" lon="104.714065"><ele>527.839</ele><time>2026-01-30T19:47:32.000Z</time></trkpt>
        <trkpt lat="28.402656" lon="104.714115"><ele>530.06384</ele><time>2026-01-30T19:47:42.000Z</time></trkpt>
        <trkpt lat="28.402618" lon="104.714149"><ele>532.4757</ele><time>2026-01-30T19:47:52.000Z</time></trkpt>
        <trkpt lat="28.402632" lon="104.714204"><ele>533.9813</ele><time>2026-01-30T19:48:01.000Z</time></trkpt>
        <trkpt lat="28.402592" lon="104.714242"><ele>535.2943</ele><time>2026-01-30T19:48:08.000Z</time></trkpt>
        <trkpt lat="28.402548" lon="104.714254"><ele>536.20044</ele><time>2026-01-30T19:48:16.000Z</time></trkpt>
        <trkpt lat="28.402501" lon="104.71424"><ele>536.70807</ele><time>2026-01-30T19:48:23.000Z</time></trkpt>
        <trkpt lat="28.402457" lon="104.714214"><ele>537.74243</ele><time>2026-01-30T19:48:29.000Z</time></trkpt>
        <trkpt lat="28.402418" lon="104.71418"><ele>539.1605</ele><time>2026-01-30T19:48:41.000Z</time></trkpt>
        <trkpt lat="28.402417" lon="104.714239"><ele>539.66675</ele><time>2026-01-30T19:48:56.000Z</time></trkpt>
        <trkpt lat="28.402371" lon="104.714268"><ele>540.5541</ele><time>2026-01-30T19:49:10.000Z</time></trkpt>
        <trkpt lat="28.402321" lon="104.714266"><ele>541.71796</ele><time>2026-01-30T19:49:24.000Z</time></trkpt>
        <trkpt lat="28.40228" lon="104.714239"><ele>541.7456</ele><time>2026-01-30T19:49:30.000Z</time></trkpt>
        <trkpt lat="28.402234" lon="104.714217"><ele>541.8989</ele><time>2026-01-30T19:49:36.000Z</time></trkpt>
        <trkpt lat="28.402185" lon="104.7142"><ele>542.68463</ele><time>2026-01-30T19:49:43.000Z</time></trkpt>
        <trkpt lat="28.40214" lon="104.71422"><ele>543.23413</ele><time>2026-01-30T19:49:49.000Z</time></trkpt>
        <trkpt lat="28.402098" lon="104.714198"><ele>543.7286</ele><time>2026-01-30T19:49:56.000Z</time></trkpt>
        <trkpt lat="28.402069" lon="104.714151"><ele>542.04663</ele><time>2026-01-30T19:50:08.000Z</time></trkpt>
        <trkpt lat="28.402111" lon="104.714177"><ele>542.23596</ele><time>2026-01-30T19:52:16.000Z</time></trkpt>
        <trkpt lat="28.402052" lon="104.714173"><ele>543.01636</ele><time>2026-01-30T19:52:35.000Z</time></trkpt>
        <trkpt lat="28.401996" lon="104.714173"><ele>543.3464</ele><time>2026-01-30T19:52:40.000Z</time></trkpt>
        <trkpt lat="28.401943" lon="104.714167"><ele>544.7432</ele><time>2026-01-30T19:52:44.000Z</time></trkpt>
        <trkpt lat="28.401894" lon="104.714172"><ele>543.6205</ele><time>2026-01-30T19:52:48.000Z</time></trkpt>
        <trkpt lat="28.401844" lon="104.71416"><ele>544.6078</ele><time>2026-01-30T19:52:53.000Z</time></trkpt>
        <trkpt lat="28.40179" lon="104.71416"><ele>545.2493</ele><time>2026-01-30T19:52:58.000Z</time></trkpt>
        <trkpt lat="28.401789" lon="104.714216"><ele>546.9963</ele><time>2026-01-30T19:53:22.000Z</time></trkpt>
        <trkpt lat="28.401798" lon="104.714267"><ele>546.6449</ele><time>2026-01-30T19:53:27.000Z</time></trkpt>
        <trkpt lat="28.401807" lon="104.714326"><ele>545.9387</ele><time>2026-01-30T19:53:32.000Z</time></trkpt>
        <trkpt lat="28.401812" lon="104.71438"><ele>546.0115</ele><time>2026-01-30T19:53:41.000Z</time></trkpt>
        <trkpt lat="28.401816" lon="104.714442"><ele>545.8356</ele><time>2026-01-30T19:53:47.000Z</time></trkpt>
        <trkpt lat="28.401818" lon="104.714501"><ele>546.12445</ele><time>2026-01-30T19:53:53.000Z</time></trkpt>
        <trkpt lat="28.401823" lon="104.714553"><ele>545.8276</ele><time>2026-01-30T19:54:02.000Z</time></trkpt>
        <trkpt lat="28.40181" lon="104.714608"><ele>546.4679</ele><time>2026-01-30T19:54:07.000Z</time></trkpt>
        <trkpt lat="28.401809" lon="104.714659"><ele>546.2099</ele><time>2026-01-30T19:54:10.000Z</time></trkpt>
        <trkpt lat="28.401792" lon="104.714709"><ele>546.1869</ele><time>2026-01-30T19:54:15.000Z</time></trkpt>
        <trkpt lat="28.401759" lon="104.714746"><ele>546.27155</ele><time>2026-01-30T19:54:20.000Z</time></trkpt>
        <trkpt lat="28.401714" lon="104.714783"><ele>546.4002</ele><time>2026-01-30T19:54:25.000Z</time></trkpt>
        <trkpt lat="28.401676" lon="104.714751"><ele>544.809</ele><time>2026-01-30T19:55:36.000Z</time></trkpt>
        <trkpt lat="28.401655" lon="104.714797"><ele>545.7543</ele><time>2026-01-30T19:55:48.000Z</time></trkpt>
        <trkpt lat="28.401618" lon="104.71484"><ele>546.3862</ele><time>2026-01-30T19:55:54.000Z</time></trkpt>
        <trkpt lat="28.401593" lon="104.714887"><ele>547.17676</ele><time>2026-01-30T19:56:00.000Z</time></trkpt>
        <trkpt lat="28.401569" lon="104.714931"><ele>548.4507</ele><time>2026-01-30T19:56:09.000Z</time></trkpt>
        <trkpt lat="28.401552" lon="104.714984"><ele>549.30084</ele><time>2026-01-30T19:56:12.000Z</time></trkpt>
        <trkpt lat="28.401551" lon="104.715045"><ele>550.1217</ele><time>2026-01-30T19:56:17.000Z</time></trkpt>
        <trkpt lat="28.401561" lon="104.715099"><ele>550.14844</ele><time>2026-01-30T19:56:21.000Z</time></trkpt>
        <trkpt lat="28.401553" lon="104.71515"><ele>550.3167</ele><time>2026-01-30T19:56:25.000Z</time></trkpt>
        <trkpt lat="28.401555" lon="104.71521"><ele>550.11456</ele><time>2026-01-30T19:56:30.000Z</time></trkpt>
        <trkpt lat="28.401564" lon="104.715266"><ele>550.27734</ele><time>2026-01-30T19:56:34.000Z</time></trkpt>
        <trkpt lat="28.40156" lon="104.715329"><ele>550.1749</ele><time>2026-01-30T19:56:39.000Z</time></trkpt>
        <trkpt lat="28.401548" lon="104.71538"><ele>549.81744</ele><time>2026-01-30T19:56:48.000Z</time></trkpt>
        <trkpt lat="28.401511" lon="104.715415"><ele>549.7267</ele><time>2026-01-30T19:56:52.000Z</time></trkpt>
        <trkpt lat="28.401487" lon="104.715461"><ele>550.06433</ele><time>2026-01-30T19:56:56.000Z</time></trkpt>
        <trkpt lat="28.401454" lon="104.715501"><ele>549.72626</ele><time>2026-01-30T19:57:03.000Z</time></trkpt>
        <trkpt lat="28.401426" lon="104.715545"><ele>549.91364</ele><time>2026-01-30T19:57:14.000Z</time></trkpt>
        <trkpt lat="28.401402" lon="104.715591"><ele>550.1357</ele><time>2026-01-30T19:57:21.000Z</time></trkpt>
        <trkpt lat="28.401381" lon="104.715648"><ele>550.6424</ele><time>2026-01-30T19:57:28.000Z</time></trkpt>
        <trkpt lat="28.40136" lon="104.715701"><ele>550.3861</ele><time>2026-01-30T19:57:35.000Z</time></trkpt>
        <trkpt lat="28.401346" lon="104.715755"><ele>550.2749</ele><time>2026-01-30T19:57:42.000Z</time></trkpt>
        <trkpt lat="28.401318" lon="104.715802"><ele>550.77576</ele><time>2026-01-30T19:57:49.000Z</time></trkpt>
        <trkpt lat="28.401296" lon="104.715852"><ele>550.9392</ele><time>2026-01-30T19:57:54.000Z</time></trkpt>
        <trkpt lat="28.401274" lon="104.715903"><ele>550.9074</ele><time>2026-01-30T19:58:00.000Z</time></trkpt>
        <trkpt lat="28.401253" lon="104.715957"><ele>550.9286</ele><time>2026-01-30T19:58:06.000Z</time></trkpt>
        <trkpt lat="28.401223" lon="104.716006"><ele>550.7291</ele><time>2026-01-30T19:58:12.000Z</time></trkpt>
        <trkpt lat="28.401201" lon="104.716054"><ele>551.0549</ele><time>2026-01-30T19:58:17.000Z</time></trkpt>
        <trkpt lat="28.401168" lon="104.716091"><ele>551.0687</ele><time>2026-01-30T19:58:23.000Z</time></trkpt>
        <trkpt lat="28.401141" lon="104.716134"><ele>551.3032</ele><time>2026-01-30T19:58:30.000Z</time></trkpt>
        <trkpt lat="28.401101" lon="104.716175"><ele>551.6919</ele><time>2026-01-30T19:58:36.000Z</time></trkpt>
        <trkpt lat="28.401073" lon="104.716225"><ele>551.6626</ele><time>2026-01-30T19:58:42.000Z</time></trkpt>
        <trkpt lat="28.401049" lon="104.716269"><ele>551.6913</ele><time>2026-01-30T19:58:47.000Z</time></trkpt>
        <trkpt lat="28.401007" lon="104.716296"><ele>551.51074</ele><time>2026-01-30T19:58:53.000Z</time></trkpt>
        <trkpt lat="28.400974" lon="104.716334"><ele>552.0729</ele><time>2026-01-30T19:58:57.000Z</time></trkpt>
        <trkpt lat="28.400938" lon="104.716374"><ele>551.9442</ele><time>2026-01-30T19:59:01.000Z</time></trkpt>
        <trkpt lat="28.400897" lon="104.71642"><ele>552.0962</ele><time>2026-01-30T19:59:24.000Z</time></trkpt>
        <trkpt lat="28.40087" lon="104.716465"><ele>552.3026</ele><time>2026-01-30T19:59:27.000Z</time></trkpt>
        <trkpt lat="28.400826" lon="104.716512"><ele>551.92676</ele><time>2026-01-30T19:59:31.000Z</time></trkpt>
        <trkpt lat="28.400782" lon="104.71655"><ele>551.86676</ele><time>2026-01-30T19:59:35.000Z</time></trkpt>
        <trkpt lat="28.400728" lon="104.716571"><ele>550.9033</ele><time>2026-01-30T19:59:42.000Z</time></trkpt>
        <trkpt lat="28.400685" lon="104.716589"><ele>550.86383</ele><time>2026-01-30T19:59:45.000Z</time></trkpt>
        <trkpt lat="28.400631" lon="104.716585"><ele>552.1676</ele><time>2026-01-30T19:59:49.000Z</time></trkpt>
        <trkpt lat="28.400583" lon="104.716585"><ele>553.6594</ele><time>2026-01-30T19:59:53.000Z</time></trkpt>
        <trkpt lat="28.400533" lon="104.716584"><ele>554.7808</ele><time>2026-01-30T19:59:57.000Z</time></trkpt>
        <trkpt lat="28.400487" lon="104.716563"><ele>555.60223</ele><time>2026-01-30T20:00:01.000Z</time></trkpt>
        <trkpt lat="28.400439" lon="104.71654"><ele>555.96014</ele><time>2026-01-30T20:00:05.000Z</time></trkpt>
        <trkpt lat="28.400385" lon="104.716517"><ele>556.97235</ele><time>2026-01-30T20:00:10.000Z</time></trkpt>
        <trkpt lat="28.400341" lon="104.716501"><ele>557.5883</ele><time>2026-01-30T20:00:13.000Z</time></trkpt>
        <trkpt lat="28.400286" lon="104.716503"><ele>557.9029</ele><time>2026-01-30T20:00:18.000Z</time></trkpt>
        <trkpt lat="28.400239" lon="104.716496"><ele>558.7019</ele><time>2026-01-30T20:00:22.000Z</time></trkpt>
        <trkpt lat="28.400187" lon="104.716513"><ele>558.9684</ele><time>2026-01-30T20:00:26.000Z</time></trkpt>
        <trkpt lat="28.400141" lon="104.716548"><ele>559.69885</ele><time>2026-01-30T20:00:29.000Z</time></trkpt>
        <trkpt lat="28.400097" lon="104.716585"><ele>559.8364</ele><time>2026-01-30T20:00:33.000Z</time></trkpt>
        <trkpt lat="28.400057" lon="104.716609"><ele>559.641</ele><time>2026-01-30T20:00:37.000Z</time></trkpt>
        <trkpt lat="28.400013" lon="104.71664"><ele>559.2002</ele><time>2026-01-30T20:00:41.000Z</time></trkpt>
        <trkpt lat="28.399958" lon="104.716661"><ele>557.13794</ele><time>2026-01-30T20:00:46.000Z</time></trkpt>
        <trkpt lat="28.399925" lon="104.716696"><ele>557.50323</ele><time>2026-01-30T20:00:49.000Z</time></trkpt>
        <trkpt lat="28.399879" lon="104.716719"><ele>557.1874</ele><time>2026-01-30T20:00:53.000Z</time></trkpt>
        <trkpt lat="28.399832" lon="104.716754"><ele>557.7718</ele><time>2026-01-30T20:00:57.000Z</time></trkpt>
        <trkpt lat="28.399784" lon="104.716782"><ele>558.54474</ele><time>2026-01-30T20:01:01.000Z</time></trkpt>
        <trkpt lat="28.399743" lon="104.716823"><ele>559.7545</ele><time>2026-01-30T20:01:06.000Z</time></trkpt>
        <trkpt lat="28.399699" lon="104.716854"><ele>559.98486</ele><time>2026-01-30T20:01:12.000Z</time></trkpt>
        <trkpt lat="28.399656" lon="104.716896"><ele>558.9862</ele><time>2026-01-30T20:01:19.000Z</time></trkpt>
        <trkpt lat="28.399616" lon="104.716928"><ele>559.6977</ele><time>2026-01-30T20:01:23.000Z</time></trkpt>
        <trkpt lat="28.399575" lon="104.716955"><ele>559.75586</ele><time>2026-01-30T20:01:28.000Z</time></trkpt>
        <trkpt lat="28.399532" lon="104.716989"><ele>560.7398</ele><time>2026-01-30T20:01:32.000Z</time></trkpt>
        <trkpt lat="28.399479" lon="104.717006"><ele>561.1197</ele><time>2026-01-30T20:01:36.000Z</time></trkpt>
        <trkpt lat="28.399433" lon="104.717033"><ele>562.5883</ele><time>2026-01-30T20:01:40.000Z</time></trkpt>
        <trkpt lat="28.399383" lon="104.717048"><ele>563.71826</ele><time>2026-01-30T20:01:44.000Z</time></trkpt>
        <trkpt lat="28.39933" lon="104.717071"><ele>564.9416</ele><time>2026-01-30T20:01:48.000Z</time></trkpt>
        <trkpt lat="28.399285" lon="104.7171"><ele>565.80945</ele><time>2026-01-30T20:01:53.000Z</time></trkpt>
        <trkpt lat="28.399237" lon="104.717106"><ele>568.34503</ele><time>2026-01-30T20:02:12.000Z</time></trkpt>
        <trkpt lat="28.399188" lon="104.717112"><ele>569.88794</ele><time>2026-01-30T20:02:17.000Z</time></trkpt>
        <trkpt lat="28.399143" lon="104.717081"><ele>571.47296</ele><time>2026-01-30T20:02:21.000Z</time></trkpt>
        <trkpt lat="28.399093" lon="104.717082"><ele>573.4665</ele><time>2026-01-30T20:02:26.000Z</time></trkpt>
        <trkpt lat="28.399044" lon="104.717081"><ele>573.9921</ele><time>2026-01-30T20:02:31.000Z</time></trkpt>
        <trkpt lat="28.399015" lon="104.717135"><ele>574.8469</ele><time>2026-01-30T20:03:02.000Z</time></trkpt>
        <trkpt lat="28.398964" lon="104.717131"><ele>575.7637</ele><time>2026-01-30T20:03:08.000Z</time></trkpt>
        <trkpt lat="28.398916" lon="104.717126"><ele>578.1413</ele><time>2026-01-30T20:03:14.000Z</time></trkpt>
        <trkpt lat="28.398871" lon="104.717113"><ele>579.5165</ele><time>2026-01-30T20:03:20.000Z</time></trkpt>
        <trkpt lat="28.39882" lon="104.717108"><ele>581.4041</ele><time>2026-01-30T20:03:27.000Z</time></trkpt>
        <trkpt lat="28.398776" lon="104.717099"><ele>581.6953</ele><time>2026-01-30T20:03:32.000Z</time></trkpt>
        <trkpt lat="28.39873" lon="104.717086"><ele>583.43414</ele><time>2026-01-30T20:03:39.000Z</time></trkpt>
        <trkpt lat="28.398686" lon="104.717062"><ele>584.8313</ele><time>2026-01-30T20:03:49.000Z</time></trkpt>
        <trkpt lat="28.398649" lon="104.717097"><ele>587.1174</ele><time>2026-01-30T20:03:56.000Z</time></trkpt>
        <trkpt lat="28.398598" lon="104.717103"><ele>587.46106</ele><time>2026-01-30T20:04:08.000Z</time></trkpt>
        <trkpt lat="28.398548" lon="104.717108"><ele>589.1854</ele><time>2026-01-30T20:04:14.000Z</time></trkpt>
        <trkpt lat="28.398503" lon="104.717121"><ele>591.18866</ele><time>2026-01-30T20:04:21.000Z</time></trkpt>
        <trkpt lat="28.39846" lon="104.717096"><ele>591.85547</ele><time>2026-01-30T20:04:29.000Z</time></trkpt>
        <trkpt lat="28.39841" lon="104.717096"><ele>593.0563</ele><time>2026-01-30T20:04:34.000Z</time></trkpt>
        <trkpt lat="28.398372" lon="104.717055"><ele>594.8372</ele><time>2026-01-30T20:04:41.000Z</time></trkpt>
        <trkpt lat="28.398353" lon="104.717006"><ele>597.1076</ele><time>2026-01-30T20:04:45.000Z</time></trkpt>
        <trkpt lat="28.398304" lon="104.717003"><ele>599.7618</ele><time>2026-01-30T20:04:57.000Z</time></trkpt>
        <trkpt lat="28.398267" lon="104.717032"><ele>600.8384</ele><time>2026-01-30T20:05:16.000Z</time></trkpt>
        <trkpt lat="28.39822" lon="104.717037"><ele>602.2249</ele><time>2026-01-30T20:05:23.000Z</time></trkpt>
        <trkpt lat="28.398174" lon="104.717051"><ele>604.2703</ele><time>2026-01-30T20:05:32.000Z</time></trkpt>
        <trkpt lat="28.398123" lon="104.717082"><ele>606.593</ele><time>2026-01-30T20:05:58.000Z</time></trkpt>
        <trkpt lat="28.398101" lon="104.717132"><ele>606.8243</ele><time>2026-01-30T20:06:04.000Z</time></trkpt>
        <trkpt lat="28.398071" lon="104.717174"><ele>607.7218</ele><time>2026-01-30T20:06:11.000Z</time></trkpt>
        <trkpt lat="28.398056" lon="104.717232"><ele>607.51965</ele><time>2026-01-30T20:06:20.000Z</time></trkpt>
        <trkpt lat="28.398006" lon="104.717231"><ele>608.2931</ele><time>2026-01-30T20:06:26.000Z</time></trkpt>
        <trkpt lat="28.397958" lon="104.717209"><ele>609.76105</ele><time>2026-01-30T20:06:33.000Z</time></trkpt>
        <trkpt lat="28.39791" lon="104.717228"><ele>613.2206</ele><time>2026-01-30T20:06:41.000Z</time></trkpt>
        <trkpt lat="28.397852" lon="104.717238"><ele>615.8652</ele><time>2026-01-30T20:06:49.000Z</time></trkpt>
        <trkpt lat="28.397807" lon="104.717251"><ele>616.5381</ele><time>2026-01-30T20:06:56.000Z</time></trkpt>
        <trkpt lat="28.397754" lon="104.717271"><ele>620.7646</ele><time>2026-01-30T20:07:03.000Z</time></trkpt>
        <trkpt lat="28.397708" lon="104.717267"><ele>623.24036</ele><time>2026-01-30T20:07:13.000Z</time></trkpt>
        <trkpt lat="28.397669" lon="104.717232"><ele>624.0497</ele><time>2026-01-30T20:07:22.000Z</time></trkpt>
        <trkpt lat="28.397675" lon="104.717178"><ele>626.7431</ele><time>2026-01-30T20:07:29.000Z</time></trkpt>
        <trkpt lat="28.397656" lon="104.717123"><ele>629.0705</ele><time>2026-01-30T20:07:35.000Z</time></trkpt>
        <trkpt lat="28.397633" lon="104.71707"><ele>631.3819</ele><time>2026-01-30T20:07:42.000Z</time></trkpt>
        <trkpt lat="28.397619" lon="104.717021"><ele>633.4433</ele><time>2026-01-30T20:07:53.000Z</time></trkpt>
        <trkpt lat="28.397584" lon="104.716969"><ele>634.6567</ele><time>2026-01-30T20:08:03.000Z</time></trkpt>
        <trkpt lat="28.397571" lon="104.716915"><ele>637.2718</ele><time>2026-01-30T20:08:10.000Z</time></trkpt>
        <trkpt lat="28.39755" lon="104.716869"><ele>638.9527</ele><time>2026-01-30T20:08:17.000Z</time></trkpt>
        <trkpt lat="28.397528" lon="104.716813"><ele>640.9069</ele><time>2026-01-30T20:08:23.000Z</time></trkpt>
        <trkpt lat="28.397486" lon="104.716793"><ele>643.521</ele><time>2026-01-30T20:08:30.000Z</time></trkpt>
        <trkpt lat="28.397493" lon="104.716844"><ele>644.8876</ele><time>2026-01-30T20:08:47.000Z</time></trkpt>
        <trkpt lat="28.397508" lon="104.716895"><ele>642.15576</ele><time>2026-01-30T20:09:04.000Z</time></trkpt>
        <trkpt lat="28.397507" lon="104.71695"><ele>641.3213</ele><time>2026-01-30T20:09:21.000Z</time></trkpt>
        <trkpt lat="28.39748" lon="104.716909"><ele>641.5863</ele><time>2026-01-30T20:09:38.000Z</time></trkpt>
        <trkpt lat="28.397489" lon="104.716856"><ele>643.6659</ele><time>2026-01-30T20:10:17.000Z</time></trkpt>
        <trkpt lat="28.397494" lon="104.716798"><ele>642.5095</ele><time>2026-01-30T20:10:58.000Z</time></trkpt>
        <trkpt lat="28.397468" lon="104.716841"><ele>644.56537</ele><time>2026-01-30T20:11:54.000Z</time></trkpt>
        <trkpt lat="28.397429" lon="104.716809"><ele>646.1517</ele><time>2026-01-30T20:12:13.000Z</time></trkpt>
        <trkpt lat="28.397436" lon="104.71674"><ele>647.18964</ele><time>2026-01-30T20:12:17.000Z</time></trkpt>
        <trkpt lat="28.397381" lon="104.716757"><ele>648.8006</ele><time>2026-01-30T20:12:24.000Z</time></trkpt>
        <trkpt lat="28.397351" lon="104.716715"><ele>650.34644</ele><time>2026-01-30T20:12:31.000Z</time></trkpt>
        <trkpt lat="28.397304" lon="104.716698"><ele>652.86816</ele><time>2026-01-30T20:12:40.000Z</time></trkpt>
        <trkpt lat="28.397301" lon="104.716644"><ele>654.0917</ele><time>2026-01-30T20:12:47.000Z</time></trkpt>
        <trkpt lat="28.397305" lon="104.716706"><ele>652.1169</ele><time>2026-01-30T20:12:55.000Z</time></trkpt>
        <trkpt lat="28.397328" lon="104.716751"><ele>652.80493</ele><time>2026-01-30T20:13:04.000Z</time></trkpt>
        <trkpt lat="28.397292" lon="104.716706"><ele>653.64075</ele><time>2026-01-30T20:13:11.000Z</time></trkpt>
        <trkpt lat="28.397276" lon="104.716656"><ele>654.4554</ele><time>2026-01-30T20:13:15.000Z</time></trkpt>
        <trkpt lat="28.397235" lon="104.71662"><ele>656.54626</ele><time>2026-01-30T20:13:24.000Z</time></trkpt>
        <trkpt lat="28.397181" lon="104.716633"><ele>658.4646</ele><time>2026-01-30T20:13:36.000Z</time></trkpt>
        <trkpt lat="28.397145" lon="104.716673"><ele>659.27094</ele><time>2026-01-30T20:13:43.000Z</time></trkpt>
        <trkpt lat="28.397092" lon="104.716668"><ele>660.4044</ele><time>2026-01-30T20:13:49.000Z</time></trkpt>
        <trkpt lat="28.397049" lon="104.716649"><ele>660.4761</ele><time>2026-01-30T20:13:51.000Z</time></trkpt>
        <trkpt lat="28.397003" lon="104.716635"><ele>665.2221</ele><time>2026-01-30T20:14:04.000Z</time></trkpt>
        <trkpt lat="28.396954" lon="104.71665"><ele>665.885</ele><time>2026-01-30T20:14:11.000Z</time></trkpt>
        <trkpt lat="28.396908" lon="104.716691"><ele>667.8551</ele><time>2026-01-30T20:14:19.000Z</time></trkpt>
        <trkpt lat="28.39687" lon="104.716719"><ele>669.27344</ele><time>2026-01-30T20:14:28.000Z</time></trkpt>
        <trkpt lat="28.396817" lon="104.716708"><ele>669.7851</ele><time>2026-01-30T20:14:33.000Z</time></trkpt>
        <trkpt lat="28.396774" lon="104.716684"><ele>671.86053</ele><time>2026-01-30T20:14:45.000Z</time></trkpt>
        <trkpt lat="28.396715" lon="104.716688"><ele>674.4023</ele><time>2026-01-30T20:15:03.000Z</time></trkpt>
        <trkpt lat="28.396669" lon="104.716675"><ele>676.1547</ele><time>2026-01-30T20:15:11.000Z</time></trkpt>
        <trkpt lat="28.396628" lon="104.716699"><ele>678.1228</ele><time>2026-01-30T20:15:22.000Z</time></trkpt>
        <trkpt lat="28.396672" lon="104.716724"><ele>678.5865</ele><time>2026-01-30T20:15:31.000Z</time></trkpt>
        <trkpt lat="28.396718" lon="104.716739"><ele>677.4018</ele><time>2026-01-30T20:15:39.000Z</time></trkpt>
        <trkpt lat="28.396675" lon="104.716758"><ele>676.579</ele><time>2026-01-30T20:15:58.000Z</time></trkpt>
        <trkpt lat="28.396626" lon="104.716779"><ele>677.9234</ele><time>2026-01-30T20:16:06.000Z</time></trkpt>
        <trkpt lat="28.396576" lon="104.716769"><ele>680.49536</ele><time>2026-01-30T20:16:13.000Z</time></trkpt>
        <trkpt lat="28.396538" lon="104.716798"><ele>683.7172</ele><time>2026-01-30T20:16:23.000Z</time></trkpt>
        <trkpt lat="28.396587" lon="104.716804"><ele>684.3537</ele><time>2026-01-30T20:16:35.000Z</time></trkpt>
        <trkpt lat="28.396611" lon="104.716855"><ele>684.01184</ele><time>2026-01-30T20:16:41.000Z</time></trkpt>
        <trkpt lat="28.396571" lon="104.716881"><ele>684.93085</ele><time>2026-01-30T20:16:52.000Z</time></trkpt>
        <trkpt lat="28.396526" lon="104.716883"><ele>686.7268</ele><time>2026-01-30T20:17:01.000Z</time></trkpt>
        <trkpt lat="28.396489" lon="104.716915"><ele>688.4207</ele><time>2026-01-30T20:17:08.000Z</time></trkpt>
        <trkpt lat="28.396446" lon="104.716933"><ele>690.2888</ele><time>2026-01-30T20:17:14.000Z</time></trkpt>
        <trkpt lat="28.3964" lon="104.716926"><ele>692.457</ele><time>2026-01-30T20:17:18.000Z</time></trkpt>
        <trkpt lat="28.396447" lon="104.716941"><ele>694.91785</ele><time>2026-01-30T20:17:30.000Z</time></trkpt>
        <trkpt lat="28.396492" lon="104.71699"><ele>696.11</ele><time>2026-01-30T20:17:36.000Z</time></trkpt>
        <trkpt lat="28.396513" lon="104.717036"><ele>693.2212</ele><time>2026-01-30T20:17:44.000Z</time></trkpt>
        <trkpt lat="28.396467" lon="104.71701"><ele>693.54956</ele><time>2026-01-30T20:17:50.000Z</time></trkpt>
        <trkpt lat="28.396419" lon="104.716984"><ele>694.6691</ele><time>2026-01-30T20:17:54.000Z</time></trkpt>
        <trkpt lat="28.396355" lon="104.716992"><ele>696.82623</ele><time>2026-01-30T20:18:01.000Z</time></trkpt>
        <trkpt lat="28.396305" lon="104.716982"><ele>698.9363</ele><time>2026-01-30T20:18:07.000Z</time></trkpt>
        <trkpt lat="28.396351" lon="104.717022"><ele>700.8814</ele><time>2026-01-30T20:18:12.000Z</time></trkpt>
        <trkpt lat="28.3964" lon="104.717053"><ele>701.0503</ele><time>2026-01-30T20:18:18.000Z</time></trkpt>
        <trkpt lat="28.396419" lon="104.717102"><ele>701.844</ele><time>2026-01-30T20:18:23.000Z</time></trkpt>
        <trkpt lat="28.39646" lon="104.717139"><ele>702.6668</ele><time>2026-01-30T20:18:31.000Z</time></trkpt>
        <trkpt lat="28.396417" lon="104.717119"><ele>701.7154</ele><time>2026-01-30T20:18:37.000Z</time></trkpt>
        <trkpt lat="28.396385" lon="104.717063"><ele>702.36957</ele><time>2026-01-30T20:18:42.000Z</time></trkpt>
        <trkpt lat="28.396335" lon="104.717049"><ele>702.4513</ele><time>2026-01-30T20:18:46.000Z</time></trkpt>
        <trkpt lat="28.396293" lon="104.717029"><ele>704.06494</ele><time>2026-01-30T20:18:53.000Z</time></trkpt>
        <trkpt lat="28.396241" lon="104.717037"><ele>705.1221</ele><time>2026-01-30T20:18:57.000Z</time></trkpt>
        <trkpt lat="28.396251" lon="104.717094"><ele>707.90497</ele><time>2026-01-30T20:19:08.000Z</time></trkpt>
        <trkpt lat="28.396297" lon="104.717118"><ele>708.707</ele><time>2026-01-30T20:19:13.000Z</time></trkpt>
        <trkpt lat="28.396347" lon="104.717124"><ele>709.271</ele><time>2026-01-30T20:19:18.000Z</time></trkpt>
        <trkpt lat="28.396388" lon="104.717171"><ele>708.33704</ele><time>2026-01-30T20:19:48.000Z</time></trkpt>
        <trkpt lat="28.396413" lon="104.717219"><ele>707.64886</ele><time>2026-01-30T20:19:52.000Z</time></trkpt>
        <trkpt lat="28.39635" lon="104.717207"><ele>709.8082</ele><time>2026-01-30T20:20:05.000Z</time></trkpt>
        <trkpt lat="28.396303" lon="104.717184"><ele>710.4623</ele><time>2026-01-30T20:20:10.000Z</time></trkpt>
        <trkpt lat="28.396267" lon="104.717153"><ele>711.1754</ele><time>2026-01-30T20:20:16.000Z</time></trkpt>
        <trkpt lat="28.396306" lon="104.717124"><ele>710.3435</ele><time>2026-01-30T20:20:30.000Z</time></trkpt>
        <trkpt lat="28.39626" lon="104.717131"><ele>710.13055</ele><time>2026-01-30T20:20:47.000Z</time></trkpt>
        <trkpt lat="28.39621" lon="104.717143"><ele>712.27625</ele><time>2026-01-30T20:20:53.000Z</time></trkpt>
        <trkpt lat="28.396189" lon="104.717192"><ele>715.63696</ele><time>2026-01-30T20:20:59.000Z</time></trkpt>
        <trkpt lat="28.396136" lon="104.717167"><ele>717.3355</ele><time>2026-01-30T20:21:07.000Z</time></trkpt>
        <trkpt lat="28.396085" lon="104.717162"><ele>718.82965</ele><time>2026-01-30T20:21:12.000Z</time></trkpt>
        <trkpt lat="28.3961" lon="104.71722"><ele>718.1264</ele><time>2026-01-30T20:21:22.000Z</time></trkpt>
        <trkpt lat="28.396138" lon="104.717257"><ele>718.98224</ele><time>2026-01-30T20:21:26.000Z</time></trkpt>
        <trkpt lat="28.396174" lon="104.717297"><ele>725.0255</ele><time>2026-01-30T20:21:34.000Z</time></trkpt>
        <trkpt lat="28.39621" lon="104.717336"><ele>726.37476</ele><time>2026-01-30T20:21:39.000Z</time></trkpt>
        <trkpt lat="28.396255" lon="104.717356"><ele>727.82874</ele><time>2026-01-30T20:21:45.000Z</time></trkpt>
        <trkpt lat="28.396298" lon="104.717386"><ele>728.6918</ele><time>2026-01-30T20:21:54.000Z</time></trkpt>
        <trkpt lat="28.396348" lon="104.717402"><ele>732.2708</ele><time>2026-01-30T20:22:12.000Z</time></trkpt>
        <trkpt lat="28.396378" lon="104.717442"><ele>731.54205</ele><time>2026-01-30T20:22:19.000Z</time></trkpt>
        <trkpt lat="28.396405" lon="104.717493"><ele>728.21356</ele><time>2026-01-30T20:22:28.000Z</time></trkpt>
        <trkpt lat="28.396439" lon="104.717547"><ele>728.0914</ele><time>2026-01-30T20:22:35.000Z</time></trkpt>
        <trkpt lat="28.396442" lon="104.717619"><ele>728.4873</ele><time>2026-01-30T20:22:40.000Z</time></trkpt>
        <trkpt lat="28.396455" lon="104.717686"><ele>731.94104</ele><time>2026-01-30T20:22:54.000Z</time></trkpt>
        <trkpt lat="28.396407" lon="104.717708"><ele>734.54846</ele><time>2026-01-30T20:23:03.000Z</time></trkpt>
        <trkpt lat="28.396385" lon="104.717657"><ele>737.48474</ele><time>2026-01-30T20:23:10.000Z</time></trkpt>
        <trkpt lat="28.396359" lon="104.717603"><ele>739.58765</ele><time>2026-01-30T20:23:40.000Z</time></trkpt>
        <trkpt lat="28.396311" lon="104.717572"><ele>739.963</ele><time>2026-01-30T20:23:52.000Z</time></trkpt>
        <trkpt lat="28.39625" lon="104.717586"><ele>740.25714</ele><time>2026-01-30T20:23:58.000Z</time></trkpt>
        <trkpt lat="28.396206" lon="104.717552"><ele>745.0437</ele><time>2026-01-30T20:24:09.000Z</time></trkpt>
        <trkpt lat="28.396214" lon="104.717605"><ele>745.8336</ele><time>2026-01-30T20:24:17.000Z</time></trkpt>
        <trkpt lat="28.396252" lon="104.717633"><ele>746.7458</ele><time>2026-01-30T20:24:24.000Z</time></trkpt>
        <trkpt lat="28.396302" lon="104.717659"><ele>752.06964</ele><time>2026-01-30T20:24:42.000Z</time></trkpt>
        <trkpt lat="28.396255" lon="104.717662"><ele>751.34076</ele><time>2026-01-30T20:25:08.000Z</time></trkpt>
        <trkpt lat="28.39628" lon="104.717706"><ele>752.7054</ele><time>2026-01-30T20:25:21.000Z</time></trkpt>
        <trkpt lat="28.396286" lon="104.717757"><ele>753.0451</ele><time>2026-01-30T20:25:33.000Z</time></trkpt>
        <trkpt lat="28.396238" lon="104.71776"><ele>753.64856</ele><time>2026-01-30T20:25:41.000Z</time></trkpt>
        <trkpt lat="28.39624" lon="104.717678"><ele>755.8076</ele><time>2026-01-30T20:25:53.000Z</time></trkpt>
        <trkpt lat="28.396208" lon="104.717636"><ele>754.4182</ele><time>2026-01-30T20:26:03.000Z</time></trkpt>
        <trkpt lat="28.396165" lon="104.71767"><ele>753.70825</ele><time>2026-01-30T20:26:15.000Z</time></trkpt>
        <trkpt lat="28.396118" lon="104.717642"><ele>756.63885</ele><time>2026-01-30T20:26:21.000Z</time></trkpt>
        <trkpt lat="28.396071" lon="104.717614"><ele>759.97906</ele><time>2026-01-30T20:26:27.000Z</time></trkpt>
        <trkpt lat="28.396082" lon="104.717666"><ele>760.9703</ele><time>2026-01-30T20:26:38.000Z</time></trkpt>
        <trkpt lat="28.396119" lon="104.717705"><ele>761.7131</ele><time>2026-01-30T20:26:44.000Z</time></trkpt>
        <trkpt lat="28.396074" lon="104.717689"><ele>766.34064</ele><time>2026-01-30T20:27:11.000Z</time></trkpt>
        <trkpt lat="28.396021" lon="104.717711"><ele>769.77386</ele><time>2026-01-30T20:27:20.000Z</time></trkpt>
        <trkpt lat="28.395972" lon="104.717715"><ele>768.96124</ele><time>2026-01-30T20:27:24.000Z</time></trkpt>
        <trkpt lat="28.395936" lon="104.717681"><ele>773.53564</ele><time>2026-01-30T20:27:42.000Z</time></trkpt>
        <trkpt lat="28.395897" lon="104.71764"><ele>778.8526</ele><time>2026-01-30T20:28:02.000Z</time></trkpt>
        <trkpt lat="28.395852" lon="104.717658"><ele>780.38904</ele><time>2026-01-30T20:28:11.000Z</time></trkpt>
        <trkpt lat="28.39581" lon="104.717635"><ele>780.07513</ele><time>2026-01-30T20:28:17.000Z</time></trkpt>
        <trkpt lat="28.395766" lon="104.717607"><ele>781.94904</ele><time>2026-01-30T20:28:25.000Z</time></trkpt>
        <trkpt lat="28.395719" lon="104.717591"><ele>784.76135</ele><time>2026-01-30T20:28:50.000Z</time></trkpt>
        <trkpt lat="28.39567" lon="104.717581"><ele>785.4459</ele><time>2026-01-30T20:28:56.000Z</time></trkpt>
        <trkpt lat="28.395632" lon="104.717539"><ele>788.5112</ele><time>2026-01-30T20:29:12.000Z</time></trkpt>
        <trkpt lat="28.395583" lon="104.717517"><ele>789.8229</ele><time>2026-01-30T20:29:20.000Z</time></trkpt>
        <trkpt lat="28.395539" lon="104.717498"><ele>791.8817</ele><time>2026-01-30T20:29:26.000Z</time></trkpt>
        <trkpt lat="28.395516" lon="104.717436"><ele>792.0833</ele><time>2026-01-30T20:29:31.000Z</time></trkpt>
        <trkpt lat="28.395473" lon="104.717463"><ele>794.1252</ele><time>2026-01-30T20:29:38.000Z</time></trkpt>
        <trkpt lat="28.395424" lon="104.717464"><ele>795.293</ele><time>2026-01-30T20:29:42.000Z</time></trkpt>
        <trkpt lat="28.395391" lon="104.7175"><ele>797.6723</ele><time>2026-01-30T20:29:51.000Z</time></trkpt>
        <trkpt lat="28.395359" lon="104.717552"><ele>802.31775</ele><time>2026-01-30T20:30:06.000Z</time></trkpt>
        <trkpt lat="28.395399" lon="104.71759"><ele>805.8082</ele><time>2026-01-30T20:30:19.000Z</time></trkpt>
        <trkpt lat="28.395451" lon="104.717613"><ele>806.0119</ele><time>2026-01-30T20:30:29.000Z</time></trkpt>
        <trkpt lat="28.395497" lon="104.717641"><ele>805.2115</ele><time>2026-01-30T20:30:34.000Z</time></trkpt>
        <trkpt lat="28.395539" lon="104.717613"><ele>804.0099</ele><time>2026-01-30T20:30:45.000Z</time></trkpt>
        <trkpt lat="28.395549" lon="104.717664"><ele>799.3984</ele><time>2026-01-30T20:32:11.000Z</time></trkpt>
        <trkpt lat="28.395589" lon="104.717687"><ele>800.37445</ele><time>2026-01-30T20:32:14.000Z</time></trkpt>
        <trkpt lat="28.395626" lon="104.717726"><ele>801.04114</ele><time>2026-01-30T20:32:30.000Z</time></trkpt>
        <trkpt lat="28.395667" lon="104.717769"><ele>801.9672</ele><time>2026-01-30T20:32:37.000Z</time></trkpt>
        <trkpt lat="28.395705" lon="104.717798"><ele>802.5458</ele><time>2026-01-30T20:32:44.000Z</time></trkpt>
        <trkpt lat="28.395736" lon="104.717845"><ele>804.19977</ele><time>2026-01-30T20:32:53.000Z</time></trkpt>
        <trkpt lat="28.395689" lon="104.717866"><ele>804.48016</ele><time>2026-01-30T20:33:04.000Z</time></trkpt>
        <trkpt lat="28.395654" lon="104.717831"><ele>805.1389</ele><time>2026-01-30T20:33:08.000Z</time></trkpt>
        <trkpt lat="28.395606" lon="104.717811"><ele>806.38995</ele><time>2026-01-30T20:33:15.000Z</time></trkpt>
        <trkpt lat="28.395554" lon="104.7178"><ele>808.42773</ele><time>2026-01-30T20:33:22.000Z</time></trkpt>
        <trkpt lat="28.395508" lon="104.717824"><ele>811.3219</ele><time>2026-01-30T20:33:30.000Z</time></trkpt>
        <trkpt lat="28.395461" lon="104.717818"><ele>814.32117</ele><time>2026-01-30T20:33:36.000Z</time></trkpt>
        <trkpt lat="28.395417" lon="104.717837"><ele>817.2225</ele><time>2026-01-30T20:33:44.000Z</time></trkpt>
        <trkpt lat="28.395365" lon="104.717835"><ele>820.4097</ele><time>2026-01-30T20:33:51.000Z</time></trkpt>
        <trkpt lat="28.395306" lon="104.717839"><ele>822.6622</ele><time>2026-01-30T20:33:57.000Z</time></trkpt>
        <trkpt lat="28.395261" lon="104.717832"><ele>825.2335</ele><time>2026-01-30T20:34:03.000Z</time></trkpt>
        <trkpt lat="28.395215" lon="104.717839"><ele>828.30634</ele><time>2026-01-30T20:34:11.000Z</time></trkpt>
        <trkpt lat="28.395168" lon="104.717825"><ele>830.39685</ele><time>2026-01-30T20:34:16.000Z</time></trkpt>
        <trkpt lat="28.395123" lon="104.717809"><ele>833.7367</ele><time>2026-01-30T20:34:25.000Z</time></trkpt>
        <trkpt lat="28.395099" lon="104.717853"><ele>835.3735</ele><time>2026-01-30T20:34:31.000Z</time></trkpt>
        <trkpt lat="28.395059" lon="104.717894"><ele>837.1308</ele><time>2026-01-30T20:34:41.000Z</time></trkpt>
        <trkpt lat="28.395026" lon="104.717934"><ele>840.312</ele><time>2026-01-30T20:34:59.000Z</time></trkpt>
        <trkpt lat="28.394988" lon="104.717887"><ele>846.2237</ele><time>2026-01-30T20:35:09.000Z</time></trkpt>
        <trkpt lat="28.394943" lon="104.717874"><ele>848.12714</ele><time>2026-01-30T20:35:20.000Z</time></trkpt>
        <trkpt lat="28.394922" lon="104.717922"><ele>850.3264</ele><time>2026-01-30T20:35:27.000Z</time></trkpt>
        <trkpt lat="28.394891" lon="104.717967"><ele>851.68317</ele><time>2026-01-30T20:35:37.000Z</time></trkpt>
        <trkpt lat="28.394842" lon="104.71796"><ele>853.9513</ele><time>2026-01-30T20:35:43.000Z</time></trkpt>
        <trkpt lat="28.394837" lon="104.717904"><ele>852.88306</ele><time>2026-01-30T20:35:49.000Z</time></trkpt>
        <trkpt lat="28.394841" lon="104.717844"><ele>852.5658</ele><time>2026-01-30T20:35:52.000Z</time></trkpt>
        <trkpt lat="28.394827" lon="104.717782"><ele>851.66064</ele><time>2026-01-30T20:36:02.000Z</time></trkpt>
        <trkpt lat="28.394826" lon="104.717834"><ele>852.608</ele><time>2026-01-30T20:36:07.000Z</time></trkpt>
        <trkpt lat="28.394829" lon="104.717889"><ele>854.80316</ele><time>2026-01-30T20:36:11.000Z</time></trkpt>
        <trkpt lat="28.394861" lon="104.717925"><ele>855.88184</ele><time>2026-01-30T20:36:16.000Z</time></trkpt>
        <trkpt lat="28.394854" lon="104.717978"><ele>857.16943</ele><time>2026-01-30T20:36:22.000Z</time></trkpt>
        <trkpt lat="28.394813" lon="104.718004"><ele>858.5184</ele><time>2026-01-30T20:36:29.000Z</time></trkpt>
        <trkpt lat="28.394768" lon="104.71802"><ele>861.52167</ele><time>2026-01-30T20:36:38.000Z</time></trkpt>
        <trkpt lat="28.394743" lon="104.71807"><ele>862.8164</ele><time>2026-01-30T20:36:47.000Z</time></trkpt>
        <trkpt lat="28.394698" lon="104.718087"><ele>863.61444</ele><time>2026-01-30T20:36:54.000Z</time></trkpt>
        <trkpt lat="28.394707" lon="104.717992"><ele>866.98834</ele><time>2026-01-30T20:36:59.000Z</time></trkpt>
        <trkpt lat="28.39474" lon="104.717949"><ele>867.28314</ele><time>2026-01-30T20:37:02.000Z</time></trkpt>
        <trkpt lat="28.394733" lon="104.717895"><ele>866.1215</ele><time>2026-01-30T20:37:12.000Z</time></trkpt>
        <trkpt lat="28.394686" lon="104.717916"><ele>865.2877</ele><time>2026-01-30T20:37:19.000Z</time></trkpt>
        <trkpt lat="28.394674" lon="104.717971"><ele>868.7061</ele><time>2026-01-30T20:37:26.000Z</time></trkpt>
        <trkpt lat="28.394675" lon="104.718025"><ele>871.41656</ele><time>2026-01-30T20:37:32.000Z</time></trkpt>
        <trkpt lat="28.394639" lon="104.718056"><ele>873.7845</ele><time>2026-01-30T20:37:40.000Z</time></trkpt>
        <trkpt lat="28.394652" lon="104.717998"><ele>873.8693</ele><time>2026-01-30T20:37:48.000Z</time></trkpt>
        <trkpt lat="28.394672" lon="104.717943"><ele>873.31146</ele><time>2026-01-30T20:37:54.000Z</time></trkpt>
        <trkpt lat="28.394635" lon="104.717999"><ele>872.2356</ele><time>2026-01-30T20:38:00.000Z</time></trkpt>
        <trkpt lat="28.394592" lon="104.718045"><ele>872.2275</ele><time>2026-01-30T20:38:05.000Z</time></trkpt>
        <trkpt lat="28.394577" lon="104.718106"><ele>873.00366</ele><time>2026-01-30T20:38:11.000Z</time></trkpt>
        <trkpt lat="28.394569" lon="104.718163"><ele>872.80585</ele><time>2026-01-30T20:38:15.000Z</time></trkpt>
        <trkpt lat="28.394526" lon="104.718183"><ele>873.9742</ele><time>2026-01-30T20:38:34.000Z</time></trkpt>
        <trkpt lat="28.3945" lon="104.718134"><ele>873.7975</ele><time>2026-01-30T20:38:38.000Z</time></trkpt>
        <trkpt lat="28.394504" lon="104.718069"><ele>873.83374</ele><time>2026-01-30T20:38:42.000Z</time></trkpt>
        <trkpt lat="28.394554" lon="104.718028"><ele>874.17676</ele><time>2026-01-30T20:38:53.000Z</time></trkpt>
        <trkpt lat="28.394564" lon="104.717976"><ele>879.65375</ele><time>2026-01-30T20:38:57.000Z</time></trkpt>
        <trkpt lat="28.394601" lon="104.718012"><ele>877.2729</ele><time>2026-01-30T20:39:24.000Z</time></trkpt>
        <trkpt lat="28.394622" lon="104.718064"><ele>878.5211</ele><time>2026-01-30T20:39:45.000Z</time></trkpt>
        <trkpt lat="28.394593" lon="104.718015"><ele>877.21173</ele><time>2026-01-30T20:40:05.000Z</time></trkpt>
        <trkpt lat="28.394563" lon="104.717971"><ele>878.4606</ele><time>2026-01-30T20:40:14.000Z</time></trkpt>
        <trkpt lat="28.394549" lon="104.717919"><ele>878.9626</ele><time>2026-01-30T20:40:18.000Z</time></trkpt>
        <trkpt lat="28.394525" lon="104.717875"><ele>878.0925</ele><time>2026-01-30T20:40:25.000Z</time></trkpt>
        <trkpt lat="28.394511" lon="104.717826"><ele>877.5972</ele><time>2026-01-30T20:40:28.000Z</time></trkpt>
        <trkpt lat="28.394485" lon="104.717783"><ele>877.20465</ele><time>2026-01-30T20:40:36.000Z</time></trkpt>
        <trkpt lat="28.394441" lon="104.717769"><ele>877.5427</ele><time>2026-01-30T20:40:40.000Z</time></trkpt>
        <trkpt lat="28.394405" lon="104.717736"><ele>879.67163</ele><time>2026-01-30T20:40:52.000Z</time></trkpt>
        <trkpt lat="28.394405" lon="104.717681"><ele>880.44507</ele><time>2026-01-30T20:41:01.000Z</time></trkpt>
        <trkpt lat="28.394409" lon="104.717732"><ele>883.01263</ele><time>2026-01-30T20:41:19.000Z</time></trkpt>
        <trkpt lat="28.394401" lon="104.71779"><ele>882.4959</ele><time>2026-01-30T20:41:27.000Z</time></trkpt>
        <trkpt lat="28.394387" lon="104.717839"><ele>886.25903</ele><time>2026-01-30T20:41:40.000Z</time></trkpt>
        <trkpt lat="28.394367" lon="104.717887"><ele>887.10913</ele><time>2026-01-30T20:41:50.000Z</time></trkpt>
        <trkpt lat="28.394372" lon="104.717946"><ele>890.04205</ele><time>2026-01-30T20:42:00.000Z</time></trkpt>
        <trkpt lat="28.394367" lon="104.717998"><ele>890.46826</ele><time>2026-01-30T20:42:10.000Z</time></trkpt>
        <trkpt lat="28.394342" lon="104.717946"><ele>888.51855</ele><time>2026-01-30T20:42:16.000Z</time></trkpt>
        <trkpt lat="28.394333" lon="104.717895"><ele>888.9924</ele><time>2026-01-30T20:42:25.000Z</time></trkpt>
        <trkpt lat="28.394365" lon="104.717855"><ele>890.87225</ele><time>2026-01-30T20:42:37.000Z</time></trkpt>
        <trkpt lat="28.394318" lon="104.717821"><ele>893.7573</ele><time>2026-01-30T20:42:59.000Z</time></trkpt>
        <trkpt lat="28.394281" lon="104.71779"><ele>893.0871</ele><time>2026-01-30T20:43:09.000Z</time></trkpt>
        <trkpt lat="28.394239" lon="104.717748"><ele>895.7681</ele><time>2026-01-30T20:43:20.000Z</time></trkpt>
        <trkpt lat="28.394234" lon="104.717695"><ele>896.5064</ele><time>2026-01-30T20:43:39.000Z</time></trkpt>
        <trkpt lat="28.394203" lon="104.717655"><ele>897.937</ele><time>2026-01-30T20:43:51.000Z</time></trkpt>
        <trkpt lat="28.394165" lon="104.717621"><ele>899.562</ele><time>2026-01-30T20:44:00.000Z</time></trkpt>
        <trkpt lat="28.394144" lon="104.717573"><ele>901.5824</ele><time>2026-01-30T20:44:10.000Z</time></trkpt>
        <trkpt lat="28.394138" lon="104.717521"><ele>903.04175</ele><time>2026-01-30T20:44:23.000Z</time></trkpt>
        <trkpt lat="28.394096" lon="104.717498"><ele>904.2178</ele><time>2026-01-30T20:44:33.000Z</time></trkpt>
        <trkpt lat="28.394075" lon="104.71745"><ele>907.4302</ele><time>2026-01-30T20:44:51.000Z</time></trkpt>
        <trkpt lat="28.394078" lon="104.717395"><ele>907.1153</ele><time>2026-01-30T20:45:02.000Z</time></trkpt>
        <trkpt lat="28.394038" lon="104.717368"><ele>910.64087</ele><time>2026-01-30T20:45:10.000Z</time></trkpt>
        <trkpt lat="28.393997" lon="104.717337"><ele>913.4306</ele><time>2026-01-30T20:45:38.000Z</time></trkpt>
        <trkpt lat="28.393968" lon="104.717296"><ele>915.6018</ele><time>2026-01-30T20:45:44.000Z</time></trkpt>
        <trkpt lat="28.39394" lon="104.717253"><ele>916.5779</ele><time>2026-01-30T20:45:51.000Z</time></trkpt>
        <trkpt lat="28.393893" lon="104.717242"><ele>919.8176</ele><time>2026-01-30T20:46:00.000Z</time></trkpt>
        <trkpt lat="28.393844" lon="104.717239"><ele>922.7151</ele><time>2026-01-30T20:46:06.000Z</time></trkpt>
        <trkpt lat="28.393801" lon="104.717225"><ele>925.14813</ele><time>2026-01-30T20:46:14.000Z</time></trkpt>
        <trkpt lat="28.393754" lon="104.717205"><ele>924.7174</ele><time>2026-01-30T20:46:23.000Z</time></trkpt>
        <trkpt lat="28.393694" lon="104.717186"><ele>929.3185</ele><time>2026-01-30T20:46:29.000Z</time></trkpt>
        <trkpt lat="28.393645" lon="104.717196"><ele>932.94006</ele><time>2026-01-30T20:46:37.000Z</time></trkpt>
        <trkpt lat="28.393595" lon="104.717197"><ele>936.1758</ele><time>2026-01-30T20:47:37.000Z</time></trkpt>
        <trkpt lat="28.39355" lon="104.717211"><ele>936.7409</ele><time>2026-01-30T20:47:44.000Z</time></trkpt>
        <trkpt lat="28.393501" lon="104.717219"><ele>935.25433</ele><time>2026-01-30T20:47:50.000Z</time></trkpt>
        <trkpt lat="28.393462" lon="104.717188"><ele>934.70294</ele><time>2026-01-30T20:48:00.000Z</time></trkpt>
        <trkpt lat="28.393417" lon="104.71717"><ele>934.12195</ele><time>2026-01-30T20:48:08.000Z</time></trkpt>
        <trkpt lat="28.393375" lon="104.717189"><ele>935.2674</ele><time>2026-01-30T20:48:16.000Z</time></trkpt>
        <trkpt lat="28.393353" lon="104.717234"><ele>933.59625</ele><time>2026-01-30T20:48:21.000Z</time></trkpt>
        <trkpt lat="28.393318" lon="104.717268"><ele>934.1827</ele><time>2026-01-30T20:48:31.000Z</time></trkpt>
        <trkpt lat="28.393274" lon="104.717241"><ele>935.0761</ele><time>2026-01-30T20:48:44.000Z</time></trkpt>
        <trkpt lat="28.393238" lon="104.717199"><ele>935.2991</ele><time>2026-01-30T20:48:53.000Z</time></trkpt>
        <trkpt lat="28.393194" lon="104.717211"><ele>936.8789</ele><time>2026-01-30T20:49:02.000Z</time></trkpt>
        <trkpt lat="28.393145" lon="104.717197"><ele>937.44666</ele><time>2026-01-30T20:49:16.000Z</time></trkpt>
        <trkpt lat="28.393111" lon="104.717162"><ele>938.7835</ele><time>2026-01-30T20:49:23.000Z</time></trkpt>
        <trkpt lat="28.393064" lon="104.717138"><ele>940.5858</ele><time>2026-01-30T20:49:30.000Z</time></trkpt>
        <trkpt lat="28.393023" lon="104.717104"><ele>942.29767</ele><time>2026-01-30T20:49:37.000Z</time></trkpt>
        <trkpt lat="28.39301" lon="104.717052"><ele>943.9015</ele><time>2026-01-30T20:50:09.000Z</time></trkpt>
        <trkpt lat="28.392964" lon="104.717033"><ele>944.62366</ele><time>2026-01-30T20:50:19.000Z</time></trkpt>
        <trkpt lat="28.392918" lon="104.717027"><ele>945.63403</ele><time>2026-01-30T20:50:38.000Z</time></trkpt>
        <trkpt lat="28.392932" lon="104.716978"><ele>946.2979</ele><time>2026-01-30T20:51:06.000Z</time></trkpt>
        <trkpt lat="28.392955" lon="104.716925"><ele>946.5998</ele><time>2026-01-30T20:51:15.000Z</time></trkpt>
        <trkpt lat="28.392904" lon="104.716906"><ele>947.62274</ele><time>2026-01-30T20:51:29.000Z</time></trkpt>
        <trkpt lat="28.392966" lon="104.716843"><ele>947.2752</ele><time>2026-01-30T20:51:48.000Z</time></trkpt>
        <trkpt lat="28.39293" lon="104.716901"><ele>947.0243</ele><time>2026-01-30T20:51:50.000Z</time></trkpt>
        <trkpt lat="28.392916" lon="104.716959"><ele>946.4549</ele><time>2026-01-30T20:52:04.000Z</time></trkpt>
        <trkpt lat="28.392903" lon="104.717034"><ele>945.64594</ele><time>2026-01-30T20:52:11.000Z</time></trkpt>
        <trkpt lat="28.392939" lon="104.717"><ele>945.4745</ele><time>2026-01-30T20:52:24.000Z</time></trkpt>
        <trkpt lat="28.392903" lon="104.716951"><ele>946.25684</ele><time>2026-01-30T20:52:32.000Z</time></trkpt>
        <trkpt lat="28.392911" lon="104.716898"><ele>947.0515</ele><time>2026-01-30T20:52:40.000Z</time></trkpt>
        <trkpt lat="28.392907" lon="104.716846"><ele>947.7605</ele><time>2026-01-30T20:52:48.000Z</time></trkpt>
        <trkpt lat="28.392859" lon="104.716872"><ele>948.65674</ele><time>2026-01-30T20:52:58.000Z</time></trkpt>
        <trkpt lat="28.392861" lon="104.716807"><ele>949.35986</ele><time>2026-01-30T20:53:01.000Z</time></trkpt>
        <trkpt lat="28.39287" lon="104.716752"><ele>950.00397</ele><time>2026-01-30T20:53:07.000Z</time></trkpt>
        <trkpt lat="28.39283" lon="104.716725"><ele>950.741</ele><time>2026-01-30T20:53:15.000Z</time></trkpt>
        <trkpt lat="28.392814" lon="104.716667"><ele>951.7094</ele><time>2026-01-30T20:53:21.000Z</time></trkpt>
        <trkpt lat="28.392835" lon="104.716619"><ele>951.59607</ele><time>2026-01-30T20:53:29.000Z</time></trkpt>
        <trkpt lat="28.392783" lon="104.71661"><ele>953.69336</ele><time>2026-01-30T20:53:32.000Z</time></trkpt>
        <trkpt lat="28.392737" lon="104.716615"><ele>954.35095</ele><time>2026-01-30T20:53:54.000Z</time></trkpt>
        <trkpt lat="28.392689" lon="104.716615"><ele>954.4723</ele><time>2026-01-30T20:54:00.000Z</time></trkpt>
        <trkpt lat="28.39264" lon="104.716604"><ele>954.8315</ele><time>2026-01-30T20:54:06.000Z</time></trkpt>
        <trkpt lat="28.392614" lon="104.71656"><ele>956.7731</ele><time>2026-01-30T20:54:25.000Z</time></trkpt>
        <trkpt lat="28.39258" lon="104.716595"><ele>956.60675</ele><time>2026-01-30T20:54:28.000Z</time></trkpt>
        <trkpt lat="28.392537" lon="104.716612"><ele>956.3826</ele><time>2026-01-30T20:54:32.000Z</time></trkpt>
        <trkpt lat="28.392571" lon="104.716568"><ele>956.6624</ele><time>2026-01-30T20:54:39.000Z</time></trkpt>
        <trkpt lat="28.392534" lon="104.716525"><ele>957.91754</ele><time>2026-01-30T20:54:54.000Z</time></trkpt>
        <trkpt lat="28.392489" lon="104.716548"><ele>957.7912</ele><time>2026-01-30T20:54:58.000Z</time></trkpt>
        <trkpt lat="28.392436" lon="104.716569"><ele>958.3113</ele><time>2026-01-30T20:55:15.000Z</time></trkpt>
        <trkpt lat="28.392417" lon="104.716628"><ele>957.64233</ele><time>2026-01-30T20:55:19.000Z</time></trkpt>
        <trkpt lat="28.3924" lon="104.716676"><ele>956.7134</ele><time>2026-01-30T20:55:28.000Z</time></trkpt>
        <trkpt lat="28.392404" lon="104.716616"><ele>958.0417</ele><time>2026-01-30T20:55:34.000Z</time></trkpt>
        <trkpt lat="28.392422" lon="104.716528"><ele>958.34863</ele><time>2026-01-30T20:55:36.000Z</time></trkpt>
        <trkpt lat="28.392462" lon="104.716489"><ele>958.85913</ele><time>2026-01-30T20:55:48.000Z</time></trkpt>
        <trkpt lat="28.392406" lon="104.716487"><ele>959.5723</ele><time>2026-01-30T20:56:04.000Z</time></trkpt>
        <trkpt lat="28.392358" lon="104.716539"><ele>959.1411</ele><time>2026-01-30T20:56:16.000Z</time></trkpt>
        <trkpt lat="28.392402" lon="104.716555"><ele>958.452</ele><time>2026-01-30T20:56:27.000Z</time></trkpt>
        <trkpt lat="28.392334" lon="104.716553"><ele>958.71625</ele><time>2026-01-30T20:56:32.000Z</time></trkpt>
        <trkpt lat="28.3923" lon="104.716513"><ele>959.1155</ele><time>2026-01-30T20:56:36.000Z</time></trkpt>
        <trkpt lat="28.392327" lon="104.716576"><ele>959.1653</ele><time>2026-01-30T20:56:48.000Z</time></trkpt>
        <trkpt lat="28.392357" lon="104.716614"><ele>957.93646</ele><time>2026-01-30T20:56:55.000Z</time></trkpt>
        <trkpt lat="28.392374" lon="104.716699"><ele>957.76917</ele><time>2026-01-30T20:56:57.000Z</time></trkpt>
        <trkpt lat="28.392384" lon="104.716643"><ele>956.4316</ele><time>2026-01-30T20:57:03.000Z</time></trkpt>
        <trkpt lat="28.392344" lon="104.716676"><ele>956.72205</ele><time>2026-01-30T20:57:11.000Z</time></trkpt>
        <trkpt lat="28.392373" lon="104.716618"><ele>956.88934</ele><time>2026-01-30T20:57:16.000Z</time></trkpt>
        <trkpt lat="28.392351" lon="104.716653"><ele>957.14056</ele><time>2026-01-30T20:57:25.000Z</time></trkpt>
        <trkpt lat="28.392325" lon="104.716603"><ele>957.4605</ele><time>2026-01-30T20:57:54.000Z</time></trkpt>
        <trkpt lat="28.392308" lon="104.716663"><ele>958.0859</ele><time>2026-01-30T20:57:57.000Z</time></trkpt>
        <trkpt lat="28.392253" lon="104.716621"><ele>957.79175</ele><time>2026-01-30T20:58:04.000Z</time></trkpt>
        <trkpt lat="28.392213" lon="104.716645"><ele>958.0334</ele><time>2026-01-30T20:58:15.000Z</time></trkpt>
        <trkpt lat="28.392168" lon="104.716629"><ele>958.3125</ele><time>2026-01-30T20:58:23.000Z</time></trkpt>
        <trkpt lat="28.392119" lon="104.716614"><ele>959.0313</ele><time>2026-01-30T20:58:29.000Z</time></trkpt>
        <trkpt lat="28.39207" lon="104.716614"><ele>959.09515</ele><time>2026-01-30T20:58:36.000Z</time></trkpt>
        <trkpt lat="28.392029" lon="104.716588"><ele>959.1888</ele><time>2026-01-30T20:58:41.000Z</time></trkpt>
        <trkpt lat="28.391964" lon="104.716572"><ele>959.62946</ele><time>2026-01-30T20:58:46.000Z</time></trkpt>
        <trkpt lat="28.392013" lon="104.716542"><ele>959.7962</ele><time>2026-01-30T20:58:47.000Z</time></trkpt>
        <trkpt lat="28.391969" lon="104.716527"><ele>959.65906</ele><time>2026-01-30T20:59:04.000Z</time></trkpt>
        <trkpt lat="28.39201" lon="104.716501"><ele>959.0483</ele><time>2026-01-30T20:59:32.000Z</time></trkpt>
        <trkpt lat="28.391953" lon="104.716485"><ele>959.29834</ele><time>2026-01-30T20:59:50.000Z</time></trkpt>
        <trkpt lat="28.391907" lon="104.716455"><ele>959.26117</ele><time>2026-01-30T20:59:58.000Z</time></trkpt>
        <trkpt lat="28.391858" lon="104.716454"><ele>958.69385</ele><time>2026-01-30T21:00:03.000Z</time></trkpt>
        <trkpt lat="28.391805" lon="104.716446"><ele>959.31384</ele><time>2026-01-30T21:00:07.000Z</time></trkpt>
        <trkpt lat="28.391764" lon="104.716423"><ele>959.25275</ele><time>2026-01-30T21:00:13.000Z</time></trkpt>
        <trkpt lat="28.391728" lon="104.716382"><ele>958.9546</ele><time>2026-01-30T21:00:21.000Z</time></trkpt>
        <trkpt lat="28.391752" lon="104.716331"><ele>959.3013</ele><time>2026-01-30T21:00:24.000Z</time></trkpt>
        <trkpt lat="28.391762" lon="104.716392"><ele>959.43</ele><time>2026-01-30T21:00:27.000Z</time></trkpt>
        <trkpt lat="28.391809" lon="104.716403"><ele>958.3312</ele><time>2026-01-30T21:00:34.000Z</time></trkpt>
        <trkpt lat="28.391845" lon="104.716435"><ele>958.08215</ele><time>2026-01-30T21:00:44.000Z</time></trkpt>
        <trkpt lat="28.391867" lon="104.716481"><ele>958.6738</ele><time>2026-01-30T21:00:54.000Z</time></trkpt>
        <trkpt lat="28.391935" lon="104.716483"><ele>959.4929</ele><time>2026-01-30T21:01:07.000Z</time></trkpt>
        <trkpt lat="28.391936" lon="104.716371"><ele>959.3769</ele><time>2026-01-30T21:01:14.000Z</time></trkpt>
        <trkpt lat="28.391887" lon="104.716365"><ele>958.71466</ele><time>2026-01-30T21:01:24.000Z</time></trkpt>
        <trkpt lat="28.391851" lon="104.716326"><ele>958.8945</ele><time>2026-01-30T21:01:31.000Z</time></trkpt>
        <trkpt lat="28.391806" lon="104.716317"><ele>959.42163</ele><time>2026-01-30T21:01:35.000Z</time></trkpt>
        <trkpt lat="28.391759" lon="104.716357"><ele>959.3128</ele><time>2026-01-30T21:01:37.000Z</time></trkpt>
        <trkpt lat="28.391711" lon="104.716343"><ele>959.3631</ele><time>2026-01-30T21:01:48.000Z</time></trkpt>
        <trkpt lat="28.39169" lon="104.71629"><ele>959.5602</ele><time>2026-01-30T21:02:04.000Z</time></trkpt>
        <trkpt lat="28.391648" lon="104.716321"><ele>958.94415</ele><time>2026-01-30T21:02:20.000Z</time></trkpt>
        <trkpt lat="28.391607" lon="104.716267"><ele>958.33057</ele><time>2026-01-30T21:02:40.000Z</time></trkpt>
        <trkpt lat="28.391573" lon="104.716313"><ele>957.23566</ele><time>2026-01-30T21:02:56.000Z</time></trkpt>
        <trkpt lat="28.391532" lon="104.716285"><ele>955.73303</ele><time>2026-01-30T21:03:28.000Z</time></trkpt>
        <trkpt lat="28.391496" lon="104.716321"><ele>954.9567</ele><time>2026-01-30T21:03:41.000Z</time></trkpt>
        <trkpt lat="28.391497" lon="104.716248"><ele>954.90125</ele><time>2026-01-30T21:03:43.000Z</time></trkpt>
        <trkpt lat="28.391457" lon="104.716207"><ele>954.67175</ele><time>2026-01-30T21:03:47.000Z</time></trkpt>
        <trkpt lat="28.391392" lon="104.716205"><ele>953.8701</ele><time>2026-01-30T21:03:53.000Z</time></trkpt>
        <trkpt lat="28.39145" lon="104.716163"><ele>953.337</ele><time>2026-01-30T21:03:57.000Z</time></trkpt>
        <trkpt lat="28.391465" lon="104.716223"><ele>953.6445</ele><time>2026-01-30T21:04:00.000Z</time></trkpt>
        <trkpt lat="28.391432" lon="104.716182"><ele>953.96106</ele><time>2026-01-30T21:04:05.000Z</time></trkpt>
        <trkpt lat="28.391386" lon="104.716198"><ele>953.2495</ele><time>2026-01-30T21:04:13.000Z</time></trkpt>
        <trkpt lat="28.391402" lon="104.716246"><ele>952.6272</ele><time>2026-01-30T21:04:18.000Z</time></trkpt>
        <trkpt lat="28.391408" lon="104.716192"><ele>952.026</ele><time>2026-01-30T21:04:28.000Z</time></trkpt>
        <trkpt lat="28.391436" lon="104.716149"><ele>951.9973</ele><time>2026-01-30T21:04:29.000Z</time></trkpt>
        <trkpt lat="28.391391" lon="104.716132"><ele>952.5367</ele><time>2026-01-30T21:04:33.000Z</time></trkpt>
        <trkpt lat="28.391447" lon="104.716137"><ele>952.40436</ele><time>2026-01-30T21:04:45.000Z</time></trkpt>
        <trkpt lat="28.391388" lon="104.716115"><ele>953.4768</ele><time>2026-01-30T21:04:51.000Z</time></trkpt>
        <trkpt lat="28.391336" lon="104.716097"><ele>953.5372</ele><time>2026-01-30T21:04:55.000Z</time></trkpt>
        <trkpt lat="28.391331" lon="104.716156"><ele>953.35474</ele><time>2026-01-30T21:04:57.000Z</time></trkpt>
        <trkpt lat="28.391348" lon="104.716204"><ele>951.3163</ele><time>2026-01-30T21:05:06.000Z</time></trkpt>
        <trkpt lat="28.391297" lon="104.716204"><ele>951.5769</ele><time>2026-01-30T21:05:20.000Z</time></trkpt>
        <trkpt lat="28.391258" lon="104.71617"><ele>950.802</ele><time>2026-01-30T21:05:31.000Z</time></trkpt>
        <trkpt lat="28.39127" lon="104.716228"><ele>950.1041</ele><time>2026-01-30T21:05:37.000Z</time></trkpt>
        <trkpt lat="28.391262" lon="104.716278"><ele>950.4554</ele><time>2026-01-30T21:05:40.000Z</time></trkpt>
        <trkpt lat="28.391218" lon="104.716258"><ele>949.5455</ele><time>2026-01-30T21:06:02.000Z</time></trkpt>
        <trkpt lat="28.391194" lon="104.716308"><ele>950.18414</ele><time>2026-01-30T21:06:10.000Z</time></trkpt>
        <trkpt lat="28.391136" lon="104.716302"><ele>950.58124</ele><time>2026-01-30T21:06:24.000Z</time></trkpt>
        <trkpt lat="28.391121" lon="104.716357"><ele>949.94037</ele><time>2026-01-30T21:06:34.000Z</time></trkpt>
        <trkpt lat="28.391113" lon="104.716306"><ele>949.6451</ele><time>2026-01-30T21:06:42.000Z</time></trkpt>
        <trkpt lat="28.39108" lon="104.71626"><ele>949.40125</ele><time>2026-01-30T21:06:45.000Z</time></trkpt>
        <trkpt lat="28.391081" lon="104.716263"><ele>949.4161</ele><time>2026-01-30T21:07:05.000Z</time></trkpt>
        <trkpt lat="28.391124" lon="104.716284"><ele>948.88586</ele><time>2026-01-30T21:07:11.000Z</time></trkpt>
        <trkpt lat="28.391078" lon="104.716293"><ele>949.14484</ele><time>2026-01-30T21:07:20.000Z</time></trkpt>
        <trkpt lat="28.391121" lon="104.716262"><ele>949.4484</ele><time>2026-01-30T21:07:27.000Z</time></trkpt>
        <trkpt lat="28.391139" lon="104.71631"><ele>949.0077</ele><time>2026-01-30T21:07:29.000Z</time></trkpt>
        <trkpt lat="28.391098" lon="104.716343"><ele>949.198</ele><time>2026-01-30T21:07:31.000Z</time></trkpt>
        <trkpt lat="28.391048" lon="104.716335"><ele>948.87805</ele><time>2026-01-30T21:07:39.000Z</time></trkpt>
        <trkpt lat="28.390999" lon="104.716336"><ele>949.6419</ele><time>2026-01-30T21:07:42.000Z</time></trkpt>
        <trkpt lat="28.390966" lon="104.716383"><ele>949.5361</ele><time>2026-01-30T21:07:48.000Z</time></trkpt>
        <trkpt lat="28.390927" lon="104.716343"><ele>949.5613</ele><time>2026-01-30T21:08:11.000Z</time></trkpt>
        <trkpt lat="28.390877" lon="104.716338"><ele>950.0358</ele><time>2026-01-30T21:08:27.000Z</time></trkpt>
        <trkpt lat="28.390831" lon="104.716346"><ele>950.5189</ele><time>2026-01-30T21:08:36.000Z</time></trkpt>
        <trkpt lat="28.390788" lon="104.716365"><ele>950.2451</ele><time>2026-01-30T21:08:45.000Z</time></trkpt>
        <trkpt lat="28.39074" lon="104.716364"><ele>950.1295</ele><time>2026-01-30T21:08:56.000Z</time></trkpt>
        <trkpt lat="28.390693" lon="104.71636"><ele>950.11383</ele><time>2026-01-30T21:09:03.000Z</time></trkpt>
        <trkpt lat="28.390648" lon="104.716352"><ele>950.23145</ele><time>2026-01-30T21:09:11.000Z</time></trkpt>
        <trkpt lat="28.390601" lon="104.71633"><ele>950.4404</ele><time>2026-01-30T21:09:19.000Z</time></trkpt>
        <trkpt lat="28.39056" lon="104.716299"><ele>951.7364</ele><time>2026-01-30T21:09:30.000Z</time></trkpt>
        <trkpt lat="28.390515" lon="104.716277"><ele>952.23047</ele><time>2026-01-30T21:09:38.000Z</time></trkpt>
        <trkpt lat="28.390495" lon="104.716231"><ele>952.34656</ele><time>2026-01-30T21:09:48.000Z</time></trkpt>
        <trkpt lat="28.39045" lon="104.716205"><ele>951.91254</ele><time>2026-01-30T21:10:07.000Z</time></trkpt>
        <trkpt lat="28.390441" lon="104.716155"><ele>952.1275</ele><time>2026-01-30T21:10:14.000Z</time></trkpt>
        <trkpt lat="28.390432" lon="104.716097"><ele>952.8124</ele><time>2026-01-30T21:10:28.000Z</time></trkpt>
        <trkpt lat="28.390392" lon="104.716069"><ele>952.69293</ele><time>2026-01-30T21:10:48.000Z</time></trkpt>
        <trkpt lat="28.390423" lon="104.716015"><ele>952.9887</ele><time>2026-01-30T21:11:27.000Z</time></trkpt>
        <trkpt lat="28.390376" lon="104.715996"><ele>952.528</ele><time>2026-01-30T21:11:36.000Z</time></trkpt>
        <trkpt lat="28.390362" lon="104.715934"><ele>953.6165</ele><time>2026-01-30T21:11:54.000Z</time></trkpt>
        <trkpt lat="28.390311" lon="104.715924"><ele>951.7164</ele><time>2026-01-30T21:12:14.000Z</time></trkpt>
        <trkpt lat="28.390257" lon="104.715895"><ele>950.2613</ele><time>2026-01-30T21:12:22.000Z</time></trkpt>
        <trkpt lat="28.390209" lon="104.715895"><ele>950.97754</ele><time>2026-01-30T21:12:29.000Z</time></trkpt>
        <trkpt lat="28.390161" lon="104.715886"><ele>950.60034</ele><time>2026-01-30T21:12:36.000Z</time></trkpt>
        <trkpt lat="28.390123" lon="104.715922"><ele>951.34515</ele><time>2026-01-30T21:12:43.000Z</time></trkpt>
        <trkpt lat="28.390076" lon="104.715928"><ele>952.3045</ele><time>2026-01-30T21:12:50.000Z</time></trkpt>
        <trkpt lat="28.39003" lon="104.715951"><ele>954.18823</ele><time>2026-01-30T21:13:05.000Z</time></trkpt>
        <trkpt lat="28.389984" lon="104.715971"><ele>954.74744</ele><time>2026-01-30T21:13:10.000Z</time></trkpt>
        <trkpt lat="28.389931" lon="104.715979"><ele>954.921</ele><time>2026-01-30T21:13:16.000Z</time></trkpt>
        <trkpt lat="28.389902" lon="104.715938"><ele>955.23004</ele><time>2026-01-30T21:13:20.000Z</time></trkpt>
        <trkpt lat="28.389888" lon="104.715887"><ele>955.27576</ele><time>2026-01-30T21:13:26.000Z</time></trkpt>
        <trkpt lat="28.389838" lon="104.715885"><ele>955.07117</ele><time>2026-01-30T21:13:30.000Z</time></trkpt>
        <trkpt lat="28.389788" lon="104.715896"><ele>955.72363</ele><time>2026-01-30T21:13:35.000Z</time></trkpt>
        <trkpt lat="28.389739" lon="104.715916"><ele>955.59784</ele><time>2026-01-30T21:13:39.000Z</time></trkpt>
        <trkpt lat="28.389692" lon="104.715908"><ele>955.5081</ele><time>2026-01-30T21:13:50.000Z</time></trkpt>
        <trkpt lat="28.389646" lon="104.715905"><ele>954.6799</ele><time>2026-01-30T21:13:59.000Z</time></trkpt>
        <trkpt lat="28.389597" lon="104.715877"><ele>953.9591</ele><time>2026-01-30T21:14:07.000Z</time></trkpt>
        <trkpt lat="28.38957" lon="104.715815"><ele>954.53296</ele><time>2026-01-30T21:14:12.000Z</time></trkpt>
        <trkpt lat="28.38955" lon="104.715766"><ele>954.68976</ele><time>2026-01-30T21:14:15.000Z</time></trkpt>
        <trkpt lat="28.389528" lon="104.71572"><ele>955.6065</ele><time>2026-01-30T21:14:20.000Z</time></trkpt>
        <trkpt lat="28.389507" lon="104.715657"><ele>954.92395</ele><time>2026-01-30T21:14:27.000Z</time></trkpt>
        <trkpt lat="28.389502" lon="104.715587"><ele>954.73596</ele><time>2026-01-30T21:14:34.000Z</time></trkpt>
        <trkpt lat="28.389475" lon="104.715544"><ele>954.2483</ele><time>2026-01-30T21:14:37.000Z</time></trkpt>
        <trkpt lat="28.389447" lon="104.715503"><ele>953.1693</ele><time>2026-01-30T21:14:56.000Z</time></trkpt>
        <trkpt lat="28.38944" lon="104.715447"><ele>952.8832</ele><time>2026-01-30T21:15:08.000Z</time></trkpt>
        <trkpt lat="28.389431" lon="104.71539"><ele>953.79224</ele><time>2026-01-30T21:15:16.000Z</time></trkpt>
        <trkpt lat="28.389411" lon="104.715339"><ele>953.94495</ele><time>2026-01-30T21:15:21.000Z</time></trkpt>
        <trkpt lat="28.38936" lon="104.715363"><ele>955.7221</ele><time>2026-01-30T21:15:41.000Z</time></trkpt>
        <trkpt lat="28.389374" lon="104.715422"><ele>954.951</ele><time>2026-01-30T21:15:58.000Z</time></trkpt>
        <trkpt lat="28.389365" lon="104.715472"><ele>954.5606</ele><time>2026-01-30T21:16:05.000Z</time></trkpt>
        <trkpt lat="28.389337" lon="104.715527"><ele>954.2401</ele><time>2026-01-30T21:16:11.000Z</time></trkpt>
        <trkpt lat="28.389292" lon="104.715575"><ele>954.5422</ele><time>2026-01-30T21:16:22.000Z</time></trkpt>
        <trkpt lat="28.389253" lon="104.715612"><ele>954.3634</ele><time>2026-01-30T21:16:27.000Z</time></trkpt>
        <trkpt lat="28.389209" lon="104.715632"><ele>955.0674</ele><time>2026-01-30T21:16:34.000Z</time></trkpt>
        <trkpt lat="28.389164" lon="104.71562"><ele>955.49097</ele><time>2026-01-30T21:16:53.000Z</time></trkpt>
        <trkpt lat="28.389109" lon="104.715612"><ele>953.96857</ele><time>2026-01-30T21:17:04.000Z</time></trkpt>
        <trkpt lat="28.389043" lon="104.715619"><ele>954.57697</ele><time>2026-01-30T21:17:11.000Z</time></trkpt>
        <trkpt lat="28.389003" lon="104.715594"><ele>955.1953</ele><time>2026-01-30T21:17:15.000Z</time></trkpt>
        <trkpt lat="28.38895" lon="104.715593"><ele>954.6819</ele><time>2026-01-30T21:17:20.000Z</time></trkpt>
        <trkpt lat="28.3889" lon="104.715566"><ele>955.03595</ele><time>2026-01-30T21:17:27.000Z</time></trkpt>
        <trkpt lat="28.388847" lon="104.71553"><ele>956.1732</ele><time>2026-01-30T21:17:32.000Z</time></trkpt>
        <trkpt lat="28.38882" lon="104.715477"><ele>956.107</ele><time>2026-01-30T21:17:39.000Z</time></trkpt>
        <trkpt lat="28.388777" lon="104.715441"><ele>957.876</ele><time>2026-01-30T21:17:44.000Z</time></trkpt>
        <trkpt lat="28.388733" lon="104.71542"><ele>957.9097</ele><time>2026-01-30T21:17:49.000Z</time></trkpt>
        <trkpt lat="28.388698" lon="104.715378"><ele>957.8524</ele><time>2026-01-30T21:17:56.000Z</time></trkpt>
        <trkpt lat="28.388654" lon="104.715343"><ele>958.5927</ele><time>2026-01-30T21:18:03.000Z</time></trkpt>
        <trkpt lat="28.388608" lon="104.715329"><ele>959.38727</ele><time>2026-01-30T21:18:08.000Z</time></trkpt>
        <trkpt lat="28.388556" lon="104.715334"><ele>957.29156</ele><time>2026-01-30T21:18:17.000Z</time></trkpt>
        <trkpt lat="28.388509" lon="104.715335"><ele>958.0735</ele><time>2026-01-30T21:18:22.000Z</time></trkpt>
        <trkpt lat="28.388462" lon="104.715332"><ele>958.7315</ele><time>2026-01-30T21:18:25.000Z</time></trkpt>
        <trkpt lat="28.388424" lon="104.715304"><ele>957.0689</ele><time>2026-01-30T21:18:30.000Z</time></trkpt>
        <trkpt lat="28.388395" lon="104.715263"><ele>958.22174</ele><time>2026-01-30T21:18:36.000Z</time></trkpt>
        <trkpt lat="28.388359" lon="104.715208"><ele>960.4363</ele><time>2026-01-30T21:18:43.000Z</time></trkpt>
        <trkpt lat="28.388312" lon="104.71521"><ele>960.3462</ele><time>2026-01-30T21:18:46.000Z</time></trkpt>
        <trkpt lat="28.388272" lon="104.715181"><ele>961.0454</ele><time>2026-01-30T21:18:58.000Z</time></trkpt>
        <trkpt lat="28.388227" lon="104.715163"><ele>962.22943</ele><time>2026-01-30T21:19:03.000Z</time></trkpt>
        <trkpt lat="28.388235" lon="104.715106"><ele>962.83997</ele><time>2026-01-30T21:19:11.000Z</time></trkpt>
        <trkpt lat="28.388187" lon="104.715113"><ele>964.4237</ele><time>2026-01-30T21:19:21.000Z</time></trkpt>
        <trkpt lat="28.388141" lon="104.715135"><ele>964.3332</ele><time>2026-01-30T21:19:26.000Z</time></trkpt>
        <trkpt lat="28.388094" lon="104.715097"><ele>964.18994</ele><time>2026-01-30T21:19:36.000Z</time></trkpt>
        <trkpt lat="28.388039" lon="104.715091"><ele>964.3081</ele><time>2026-01-30T21:19:42.000Z</time></trkpt>
        <trkpt lat="28.387987" lon="104.715095"><ele>965.53876</ele><time>2026-01-30T21:19:48.000Z</time></trkpt>
        <trkpt lat="28.387951" lon="104.715058"><ele>966.4786</ele><time>2026-01-30T21:19:53.000Z</time></trkpt>
        <trkpt lat="28.387905" lon="104.715009"><ele>967.18787</ele><time>2026-01-30T21:19:59.000Z</time></trkpt>
        <trkpt lat="28.387856" lon="104.715004"><ele>968.3045</ele><time>2026-01-30T21:20:05.000Z</time></trkpt>
        <trkpt lat="28.387822" lon="104.714968"><ele>973.7247</ele><time>2026-01-30T21:20:09.000Z</time></trkpt>
        <trkpt lat="28.387769" lon="104.714936"><ele>979.33563</ele><time>2026-01-30T21:20:15.000Z</time></trkpt>
        <trkpt lat="28.387714" lon="104.714967"><ele>979.77106</ele><time>2026-01-30T21:20:18.000Z</time></trkpt>
        <trkpt lat="28.387668" lon="104.71497"><ele>981.5862</ele><time>2026-01-30T21:20:23.000Z</time></trkpt>
        <trkpt lat="28.387644" lon="104.715013"><ele>981.2863</ele><time>2026-01-30T21:20:26.000Z</time></trkpt>
        <trkpt lat="28.387604" lon="104.715037"><ele>980.5641</ele><time>2026-01-30T21:20:35.000Z</time></trkpt>
        <trkpt lat="28.387569" lon="104.715072"><ele>980.3669</ele><time>2026-01-30T21:20:46.000Z</time></trkpt>
        <trkpt lat="28.387516" lon="104.715073"><ele>980.3434</ele><time>2026-01-30T21:21:18.000Z</time></trkpt>
        <trkpt lat="28.387474" lon="104.715041"><ele>980.0861</ele><time>2026-01-30T21:21:28.000Z</time></trkpt>
        <trkpt lat="28.387435" lon="104.715015"><ele>979.87445</ele><time>2026-01-30T21:21:36.000Z</time></trkpt>
        <trkpt lat="28.387388" lon="104.715008"><ele>979.9454</ele><time>2026-01-30T21:21:45.000Z</time></trkpt>
        <trkpt lat="28.387341" lon="104.715037"><ele>979.6582</ele><time>2026-01-30T21:21:54.000Z</time></trkpt>
        <trkpt lat="28.387296" lon="104.715053"><ele>979.00385</ele><time>2026-01-30T21:22:03.000Z</time></trkpt>
        <trkpt lat="28.387251" lon="104.715053"><ele>978.42065</ele><time>2026-01-30T21:22:09.000Z</time></trkpt>
        <trkpt lat="28.387208" lon="104.715073"><ele>978.1904</ele><time>2026-01-30T21:22:24.000Z</time></trkpt>
        <trkpt lat="28.387161" lon="104.715064"><ele>978.8756</ele><time>2026-01-30T21:22:32.000Z</time></trkpt>
        <trkpt lat="28.387107" lon="104.71505"><ele>978.9235</ele><time>2026-01-30T21:22:39.000Z</time></trkpt>
        <trkpt lat="28.387055" lon="104.715036"><ele>978.60876</ele><time>2026-01-30T21:22:47.000Z</time></trkpt>
        <trkpt lat="28.387012" lon="104.714998"><ele>978.1243</ele><time>2026-01-30T21:22:54.000Z</time></trkpt>
        <trkpt lat="28.386983" lon="104.714958"><ele>978.2009</ele><time>2026-01-30T21:22:58.000Z</time></trkpt>
        <trkpt lat="28.386938" lon="104.714932"><ele>978.6391</ele><time>2026-01-30T21:23:05.000Z</time></trkpt>
        <trkpt lat="28.386884" lon="104.714899"><ele>979.218</ele><time>2026-01-30T21:23:17.000Z</time></trkpt>
        <trkpt lat="28.386868" lon="104.714849"><ele>979.7787</ele><time>2026-01-30T21:23:23.000Z</time></trkpt>
        <trkpt lat="28.386834" lon="104.714813"><ele>980.8491</ele><time>2026-01-30T21:23:32.000Z</time></trkpt>
        <trkpt lat="28.386799" lon="104.714779"><ele>982.78436</ele><time>2026-01-30T21:23:47.000Z</time></trkpt>
        <trkpt lat="28.386758" lon="104.71473"><ele>982.3819</ele><time>2026-01-30T21:23:56.000Z</time></trkpt>
        <trkpt lat="28.38671" lon="104.714716"><ele>983.86646</ele><time>2026-01-30T21:24:05.000Z</time></trkpt>
        <trkpt lat="28.386769" lon="104.714685"><ele>983.03265</ele><time>2026-01-30T21:24:21.000Z</time></trkpt>
        <trkpt lat="28.386748" lon="104.714635"><ele>983.0423</ele><time>2026-01-30T21:24:28.000Z</time></trkpt>
        <trkpt lat="28.386705" lon="104.714597"><ele>981.9409</ele><time>2026-01-30T21:24:37.000Z</time></trkpt>
        <trkpt lat="28.386679" lon="104.71455"><ele>981.02655</ele><time>2026-01-30T21:24:43.000Z</time></trkpt>
        <trkpt lat="28.386669" lon="104.714602"><ele>979.8818</ele><time>2026-01-30T21:24:46.000Z</time></trkpt>
        <trkpt lat="28.386711" lon="104.714622"><ele>979.8819</ele><time>2026-01-30T21:24:50.000Z</time></trkpt>
      </trkseg>
      <trkseg>
        <trkpt lat="28.385207" lon="104.714257"><ele>1011.82</ele><time>2026-01-30T21:29:35.000Z</time></trkpt>
        <trkpt lat="28.38516" lon="104.714279"><ele>1009.2482</ele><time>2026-01-30T21:29:46.000Z</time></trkpt>
        <trkpt lat="28.38511" lon="104.714287"><ele>1011.70795</ele><time>2026-01-30T21:29:53.000Z</time></trkpt>
        <trkpt lat="28.385066" lon="104.714304"><ele>1015.18524</ele><time>2026-01-30T21:30:02.000Z</time></trkpt>
        <trkpt lat="28.38502" lon="104.714325"><ele>1012.3849</ele><time>2026-01-30T21:30:20.000Z</time></trkpt>
        <trkpt lat="28.384972" lon="104.714345"><ele>1012.6079</ele><time>2026-01-30T21:30:27.000Z</time></trkpt>
        <trkpt lat="28.38492" lon="104.714333"><ele>1012.58203</ele><time>2026-01-30T21:30:35.000Z</time></trkpt>
        <trkpt lat="28.384875" lon="104.71434"><ele>1012.9467</ele><time>2026-01-30T21:30:40.000Z</time></trkpt>
        <trkpt lat="28.384829" lon="104.714336"><ele>1013.6896</ele><time>2026-01-30T21:30:45.000Z</time></trkpt>
        <trkpt lat="28.384785" lon="104.714314"><ele>1014.3674</ele><time>2026-01-30T21:30:50.000Z</time></trkpt>
        <trkpt lat="28.384752" lon="104.714277"><ele>1012.7318</ele><time>2026-01-30T21:31:06.000Z</time></trkpt>
        <trkpt lat="28.384782" lon="104.714229"><ele>1011.78827</ele><time>2026-01-30T21:31:27.000Z</time></trkpt>
        <trkpt lat="28.38482" lon="104.714201"><ele>1011.5208</ele><time>2026-01-30T21:31:43.000Z</time></trkpt>
        <trkpt lat="28.384846" lon="104.714149"><ele>1011.46954</ele><time>2026-01-30T21:31:49.000Z</time></trkpt>
        <trkpt lat="28.384871" lon="104.714106"><ele>1011.5765</ele><time>2026-01-30T21:32:27.000Z</time></trkpt>
        <trkpt lat="28.384876" lon="104.714052"><ele>1011.4716</ele><time>2026-01-30T21:32:31.000Z</time></trkpt>
        <trkpt lat="28.384891" lon="104.713996"><ele>1011.2</ele><time>2026-01-30T21:32:42.000Z</time></trkpt>
        <trkpt lat="28.384907" lon="104.713931"><ele>1010.97546</ele><time>2026-01-30T21:32:48.000Z</time></trkpt>
        <trkpt lat="28.384919" lon="104.713871"><ele>1011.8833</ele><time>2026-01-30T21:32:55.000Z</time></trkpt>
        <trkpt lat="28.384933" lon="104.713819"><ele>1011.85834</ele><time>2026-01-30T21:33:01.000Z</time></trkpt>
        <trkpt lat="28.384933" lon="104.713765"><ele>1011.7039</ele><time>2026-01-30T21:33:06.000Z</time></trkpt>
        <trkpt lat="28.384936" lon="104.713712"><ele>1011.14984</ele><time>2026-01-30T21:33:12.000Z</time></trkpt>
        <trkpt lat="28.384955" lon="104.713665"><ele>1011.1707</ele><time>2026-01-30T21:33:30.000Z</time></trkpt>
        <trkpt lat="28.384958" lon="104.713613"><ele>1010.4179</ele><time>2026-01-30T21:33:41.000Z</time></trkpt>
        <trkpt lat="28.384978" lon="104.713553"><ele>1009.92126</ele><time>2026-01-30T21:33:49.000Z</time></trkpt>
        <trkpt lat="28.385008" lon="104.713503"><ele>1010.54834</ele><time>2026-01-30T21:33:54.000Z</time></trkpt>
        <trkpt lat="28.385026" lon="104.713451"><ele>1011.469</ele><time>2026-01-30T21:34:01.000Z</time></trkpt>
        <trkpt lat="28.38498" lon="104.713435"><ele>1012.0281</ele><time>2026-01-30T21:34:04.000Z</time></trkpt>
        <trkpt lat="28.384969" lon="104.713383"><ele>1012.0242</ele><time>2026-01-30T21:34:15.000Z</time></trkpt>
        <trkpt lat="28.384996" lon="104.713337"><ele>1012.575</ele><time>2026-01-30T21:34:23.000Z</time></trkpt>
        <trkpt lat="28.385041" lon="104.713306"><ele>1013.39777</ele><time>2026-01-30T21:34:30.000Z</time></trkpt>
        <trkpt lat="28.38505" lon="104.713249"><ele>1014.5815</ele><time>2026-01-30T21:34:37.000Z</time></trkpt>
        <trkpt lat="28.385051" lon="104.713195"><ele>1015.62805</ele><time>2026-01-30T21:34:43.000Z</time></trkpt>
        <trkpt lat="28.38508" lon="104.713141"><ele>1017.37396</ele><time>2026-01-30T21:34:49.000Z</time></trkpt>
        <trkpt lat="28.385075" lon="104.713078"><ele>1018.0614</ele><time>2026-01-30T21:34:55.000Z</time></trkpt>
        <trkpt lat="28.38508" lon="104.713027"><ele>1021.3492</ele><time>2026-01-30T21:35:05.000Z</time></trkpt>
        <trkpt lat="28.385127" lon="104.712973"><ele>1022.7775</ele><time>2026-01-30T21:35:11.000Z</time></trkpt>
        <trkpt lat="28.385106" lon="104.712917"><ele>1025.066</ele><time>2026-01-30T21:35:21.000Z</time></trkpt>
        <trkpt lat="28.385108" lon="104.712859"><ele>1025.627</ele><time>2026-01-30T21:35:30.000Z</time></trkpt>
        <trkpt lat="28.385061" lon="104.712819"><ele>1025.8489</ele><time>2026-01-30T21:35:34.000Z</time></trkpt>
        <trkpt lat="28.385056" lon="104.712759"><ele>1026.1288</ele><time>2026-01-30T21:35:46.000Z</time></trkpt>
        <trkpt lat="28.385052" lon="104.712707"><ele>1026.6302</ele><time>2026-01-30T21:35:49.000Z</time></trkpt>
        <trkpt lat="28.385019" lon="104.712664"><ele>1027.1533</ele><time>2026-01-30T21:35:54.000Z</time></trkpt>
        <trkpt lat="28.384971" lon="104.712656"><ele>1026.4508</ele><time>2026-01-30T21:35:58.000Z</time></trkpt>
        <trkpt lat="28.38493" lon="104.71262"><ele>1026.6307</ele><time>2026-01-30T21:36:01.000Z</time></trkpt>
        <trkpt lat="28.384897" lon="104.71258"><ele>1028.2537</ele><time>2026-01-30T21:36:06.000Z</time></trkpt>
        <trkpt lat="28.38487" lon="104.712534"><ele>1029.8541</ele><time>2026-01-30T21:36:12.000Z</time></trkpt>
        <trkpt lat="28.38486" lon="104.71248"><ele>1030.9806</ele><time>2026-01-30T21:36:16.000Z</time></trkpt>
        <trkpt lat="28.384857" lon="104.712421"><ele>1031.6362</ele><time>2026-01-30T21:36:20.000Z</time></trkpt>
        <trkpt lat="28.384869" lon="104.712369"><ele>1031.8466</ele><time>2026-01-30T21:36:23.000Z</time></trkpt>
        <trkpt lat="28.384873" lon="104.7123"><ele>1032.5088</ele><time>2026-01-30T21:36:27.000Z</time></trkpt>
        <trkpt lat="28.384882" lon="104.71225"><ele>1033.1823</ele><time>2026-01-30T21:36:31.000Z</time></trkpt>
        <trkpt lat="28.384882" lon="104.712194"><ele>1033.3016</ele><time>2026-01-30T21:36:35.000Z</time></trkpt>
        <trkpt lat="28.38488" lon="104.712133"><ele>1033.8152</ele><time>2026-01-30T21:36:39.000Z</time></trkpt>
        <trkpt lat="28.384894" lon="104.712075"><ele>1032.7207</ele><time>2026-01-30T21:36:43.000Z</time></trkpt>
        <trkpt lat="28.384911" lon="104.712012"><ele>1031.7622</ele><time>2026-01-30T21:36:47.000Z</time></trkpt>
        <trkpt lat="28.384925" lon="104.711953"><ele>1030.5782</ele><time>2026-01-30T21:36:51.000Z</time></trkpt>
        <trkpt lat="28.384935" lon="104.711901"><ele>1030.0411</ele><time>2026-01-30T21:36:54.000Z</time></trkpt>
        <trkpt lat="28.384962" lon="104.711843"><ele>1027.4598</ele><time>2026-01-30T21:37:17.000Z</time></trkpt>
        <trkpt lat="28.384958" lon="104.711781"><ele>1026.8314</ele><time>2026-01-30T21:37:21.000Z</time></trkpt>
        <trkpt lat="28.384958" lon="104.711716"><ele>1026.2052</ele><time>2026-01-30T21:37:25.000Z</time></trkpt>
        <trkpt lat="28.384966" lon="104.711662"><ele>1024.305</ele><time>2026-01-30T21:37:29.000Z</time></trkpt>
        <trkpt lat="28.384983" lon="104.711606"><ele>1024.1992</ele><time>2026-01-30T21:37:33.000Z</time></trkpt>
        <trkpt lat="28.384987" lon="104.711554"><ele>1024.5822</ele><time>2026-01-30T21:37:36.000Z</time></trkpt>
        <trkpt lat="28.384992" lon="104.711503"><ele>1024.2751</ele><time>2026-01-30T21:37:39.000Z</time></trkpt>
        <trkpt lat="28.385003" lon="104.711442"><ele>1024.706</ele><time>2026-01-30T21:37:43.000Z</time></trkpt>
        <trkpt lat="28.385008" lon="104.711379"><ele>1024.0374</ele><time>2026-01-30T21:37:47.000Z</time></trkpt>
        <trkpt lat="28.385014" lon="104.711328"><ele>1024.4231</ele><time>2026-01-30T21:37:50.000Z</time></trkpt>
        <trkpt lat="28.385015" lon="104.711277"><ele>1024.5709</ele><time>2026-01-30T21:37:53.000Z</time></trkpt>
        <trkpt lat="28.38503" lon="104.711212"><ele>1024.755</ele><time>2026-01-30T21:37:57.000Z</time></trkpt>
        <trkpt lat="28.385063" lon="104.711157"><ele>1024.1428</ele><time>2026-01-30T21:38:01.000Z</time></trkpt>
        <trkpt lat="28.385093" lon="104.7111"><ele>1024.3384</ele><time>2026-01-30T21:38:05.000Z</time></trkpt>
        <trkpt lat="28.385129" lon="104.711061"><ele>1024.6732</ele><time>2026-01-30T21:38:09.000Z</time></trkpt>
        <trkpt lat="28.385169" lon="104.711019"><ele>1023.3821</ele><time>2026-01-30T21:38:13.000Z</time></trkpt>
        <trkpt lat="28.385203" lon="104.710982"><ele>1023.1088</ele><time>2026-01-30T21:38:17.000Z</time></trkpt>
        <trkpt lat="28.385238" lon="104.710945"><ele>1022.20123</ele><time>2026-01-30T21:38:21.000Z</time></trkpt>
        <trkpt lat="28.38527" lon="104.710907"><ele>1021.4371</ele><time>2026-01-30T21:38:25.000Z</time></trkpt>
        <trkpt lat="28.385308" lon="104.710875"><ele>1020.6185</ele><time>2026-01-30T21:38:29.000Z</time></trkpt>
        <trkpt lat="28.385345" lon="104.710839"><ele>1020.36847</ele><time>2026-01-30T21:38:33.000Z</time></trkpt>
        <trkpt lat="28.385381" lon="104.71081"><ele>1020.1472</ele><time>2026-01-30T21:38:37.000Z</time></trkpt>
      </trkseg>
      <trkseg>
        <trkpt lat="28.38605" lon="104.710832"><ele>1020.211</ele><time>2026-01-30T21:40:21.000Z</time></trkpt>
        <trkpt lat="28.386099" lon="104.710833"><ele>1021.8581</ele><time>2026-01-30T21:40:23.000Z</time></trkpt>
        <trkpt lat="28.386168" lon="104.710833"><ele>1023.5828</ele><time>2026-01-30T21:40:25.000Z</time></trkpt>
        <trkpt lat="28.386227" lon="104.710843"><ele>1025.655</ele><time>2026-01-30T21:40:28.000Z</time></trkpt>
        <trkpt lat="28.386275" lon="104.710852"><ele>1026.6404</ele><time>2026-01-30T21:40:30.000Z</time></trkpt>
        <trkpt lat="28.386321" lon="104.71086"><ele>1028.2006</ele><time>2026-01-30T21:40:32.000Z</time></trkpt>
        <trkpt lat="28.386374" lon="104.710869"><ele>1027.0402</ele><time>2026-01-30T21:40:35.000Z</time></trkpt>
        <trkpt lat="28.386425" lon="104.710874"><ele>1027.7803</ele><time>2026-01-30T21:40:39.000Z</time></trkpt>
        <trkpt lat="28.386471" lon="104.710894"><ele>1029.2468</ele><time>2026-01-30T21:40:44.000Z</time></trkpt>
        <trkpt lat="28.386515" lon="104.710874"><ele>1029.5145</ele><time>2026-01-30T21:40:47.000Z</time></trkpt>
        <trkpt lat="28.386561" lon="104.710858"><ele>1029.4735</ele><time>2026-01-30T21:40:53.000Z</time></trkpt>
        <trkpt lat="28.386604" lon="104.710826"><ele>1029.3776</ele><time>2026-01-30T21:40:58.000Z</time></trkpt>
        <trkpt lat="28.386637" lon="104.710791"><ele>1029.6731</ele><time>2026-01-30T21:41:03.000Z</time></trkpt>
        <trkpt lat="28.386679" lon="104.710765"><ele>1029.5076</ele><time>2026-01-30T21:41:19.000Z</time></trkpt>
        <trkpt lat="28.386722" lon="104.710733"><ele>1029.6083</ele><time>2026-01-30T21:41:24.000Z</time></trkpt>
        <trkpt lat="28.386761" lon="104.710697"><ele>1030.0654</ele><time>2026-01-30T21:41:30.000Z</time></trkpt>
        <trkpt lat="28.386809" lon="104.710677"><ele>1030.4226</ele><time>2026-01-30T21:41:35.000Z</time></trkpt>
        <trkpt lat="28.386862" lon="104.710683"><ele>1030.7731</ele><time>2026-01-30T21:41:40.000Z</time></trkpt>
        <trkpt lat="28.386909" lon="104.710676"><ele>1032.516</ele><time>2026-01-30T21:41:47.000Z</time></trkpt>
        <trkpt lat="28.38696" lon="104.710676"><ele>1033.5656</ele><time>2026-01-30T21:41:51.000Z</time></trkpt>
        <trkpt lat="28.387012" lon="104.710674"><ele>1034.4243</ele><time>2026-01-30T21:41:57.000Z</time></trkpt>
        <trkpt lat="28.387068" lon="104.71069"><ele>1034.4792</ele><time>2026-01-30T21:42:02.000Z</time></trkpt>
        <trkpt lat="28.387114" lon="104.710706"><ele>1034.9159</ele><time>2026-01-30T21:42:06.000Z</time></trkpt>
        <trkpt lat="28.387159" lon="104.710726"><ele>1035.347</ele><time>2026-01-30T21:42:11.000Z</time></trkpt>
        <trkpt lat="28.387204" lon="104.710747"><ele>1036.4955</ele><time>2026-01-30T21:42:16.000Z</time></trkpt>
        <trkpt lat="28.387255" lon="104.710739"><ele>1037.8921</ele><time>2026-01-30T21:42:27.000Z</time></trkpt>
        <trkpt lat="28.3873" lon="104.710733"><ele>1037.2214</ele><time>2026-01-30T21:42:32.000Z</time></trkpt>
        <trkpt lat="28.387347" lon="104.71073"><ele>1037.3732</ele><time>2026-01-30T21:42:41.000Z</time></trkpt>
        <trkpt lat="28.387393" lon="104.710719"><ele>1037.3516</ele><time>2026-01-30T21:42:47.000Z</time></trkpt>
        <trkpt lat="28.387446" lon="104.710724"><ele>1036.7026</ele><time>2026-01-30T21:42:53.000Z</time></trkpt>
        <trkpt lat="28.387492" lon="104.710728"><ele>1035.5592</ele><time>2026-01-30T21:42:57.000Z</time></trkpt>
        <trkpt lat="28.387554" lon="104.710725"><ele>1034.6956</ele><time>2026-01-30T21:43:07.000Z</time></trkpt>
        <trkpt lat="28.387597" lon="104.710746"><ele>1034.0535</ele><time>2026-01-30T21:43:11.000Z</time></trkpt>
        <trkpt lat="28.387648" lon="104.710763"><ele>1033.721</ele><time>2026-01-30T21:43:17.000Z</time></trkpt>
        <trkpt lat="28.38769" lon="104.71078"><ele>1033.723</ele><time>2026-01-30T21:43:26.000Z</time></trkpt>
        <trkpt lat="28.387745" lon="104.710797"><ele>1034.4498</ele><time>2026-01-30T21:43:36.000Z</time></trkpt>
        <trkpt lat="28.387797" lon="104.710803"><ele>1034.7708</ele><time>2026-01-30T21:43:42.000Z</time></trkpt>
        <trkpt lat="28.387845" lon="104.710818"><ele>1034.6202</ele><time>2026-01-30T21:43:46.000Z</time></trkpt>
        <trkpt lat="28.387895" lon="104.710829"><ele>1034.7352</ele><time>2026-01-30T21:43:51.000Z</time></trkpt>
        <trkpt lat="28.387943" lon="104.710859"><ele>1034.9768</ele><time>2026-01-30T21:43:56.000Z</time></trkpt>
        <trkpt lat="28.387994" lon="104.710878"><ele>1034.9626</ele><time>2026-01-30T21:44:01.000Z</time></trkpt>
        <trkpt lat="28.388039" lon="104.710901"><ele>1035.3558</ele><time>2026-01-30T21:44:07.000Z</time></trkpt>
        <trkpt lat="28.388077" lon="104.710929"><ele>1035.6758</ele><time>2026-01-30T21:44:17.000Z</time></trkpt>
        <trkpt lat="28.388119" lon="104.710957"><ele>1035.642</ele><time>2026-01-30T21:44:22.000Z</time></trkpt>
        <trkpt lat="28.38816" lon="104.710988"><ele>1035.5266</ele><time>2026-01-30T21:44:26.000Z</time></trkpt>
        <trkpt lat="28.388199" lon="104.711015"><ele>1035.5126</ele><time>2026-01-30T21:44:30.000Z</time></trkpt>
        <trkpt lat="28.38824" lon="104.711058"><ele>1034.1414</ele><time>2026-01-30T21:44:38.000Z</time></trkpt>
        <trkpt lat="28.388282" lon="104.711082"><ele>1033.5256</ele><time>2026-01-30T21:44:43.000Z</time></trkpt>
        <trkpt lat="28.388325" lon="104.711111"><ele>1033.264</ele><time>2026-01-30T21:44:48.000Z</time></trkpt>
        <trkpt lat="28.388363" lon="104.71114"><ele>1032.7958</ele><time>2026-01-30T21:44:52.000Z</time></trkpt>
        <trkpt lat="28.388408" lon="104.711168"><ele>1033.2775</ele><time>2026-01-30T21:44:56.000Z</time></trkpt>
        <trkpt lat="28.388453" lon="104.711201"><ele>1031.1698</ele><time>2026-01-30T21:45:02.000Z</time></trkpt>
        <trkpt lat="28.388498" lon="104.711227"><ele>1030.9884</ele><time>2026-01-30T21:45:06.000Z</time></trkpt>
        <trkpt lat="28.388538" lon="104.711257"><ele>1031.0126</ele><time>2026-01-30T21:45:11.000Z</time></trkpt>
        <trkpt lat="28.388594" lon="104.711287"><ele>1031.4305</ele><time>2026-01-30T21:45:18.000Z</time></trkpt>
        <trkpt lat="28.38864" lon="104.711297"><ele>1030.7222</ele><time>2026-01-30T21:45:22.000Z</time></trkpt>
        <trkpt lat="28.388688" lon="104.71132"><ele>1030.8853</ele><time>2026-01-30T21:45:28.000Z</time></trkpt>
        <trkpt lat="28.388737" lon="104.711344"><ele>1031.995</ele><time>2026-01-30T21:45:33.000Z</time></trkpt>
        <trkpt lat="28.38879" lon="104.711372"><ele>1032.2589</ele><time>2026-01-30T21:45:39.000Z</time></trkpt>
        <trkpt lat="28.388838" lon="104.711394"><ele>1033.9406</ele><time>2026-01-30T21:45:44.000Z</time></trkpt>
        <trkpt lat="28.388879" lon="104.711416"><ele>1034.7847</ele><time>2026-01-30T21:45:47.000Z</time></trkpt>
        <trkpt lat="28.388926" lon="104.711439"><ele>1035.0609</ele><time>2026-01-30T21:45:52.000Z</time></trkpt>
        <trkpt lat="28.388969" lon="104.711462"><ele>1034.4447</ele><time>2026-01-30T21:45:57.000Z</time></trkpt>
        <trkpt lat="28.389012" lon="104.711476"><ele>1034.6101</ele><time>2026-01-30T21:46:01.000Z</time></trkpt>
        <trkpt lat="28.389056" lon="104.711501"><ele>1035.0518</ele><time>2026-01-30T21:46:05.000Z</time></trkpt>
        <trkpt lat="28.389107" lon="104.711526"><ele>1034.7556</ele><time>2026-01-30T21:46:10.000Z</time></trkpt>
        <trkpt lat="28.389151" lon="104.711544"><ele>1034.587</ele><time>2026-01-30T21:46:14.000Z</time></trkpt>
        <trkpt lat="28.389192" lon="104.711574"><ele>1033.972</ele><time>2026-01-30T21:46:19.000Z</time></trkpt>
        <trkpt lat="28.389237" lon="104.711612"><ele>1034.357</ele><time>2026-01-30T21:46:24.000Z</time></trkpt>
        <trkpt lat="28.389271" lon="104.711646"><ele>1034.2272</ele><time>2026-01-30T21:46:29.000Z</time></trkpt>
        <trkpt lat="28.389309" lon="104.711681"><ele>1034.5691</ele><time>2026-01-30T21:46:34.000Z</time></trkpt>
        <trkpt lat="28.389341" lon="104.711727"><ele>1035.1542</ele><time>2026-01-30T21:46:40.000Z</time></trkpt>
        <trkpt lat="28.38938" lon="104.711761"><ele>1035.6177</ele><time>2026-01-30T21:46:45.000Z</time></trkpt>
        <trkpt lat="28.389417" lon="104.71179"><ele>1035.6504</ele><time>2026-01-30T21:46:50.000Z</time></trkpt>
        <trkpt lat="28.389461" lon="104.711827"><ele>1035.9363</ele><time>2026-01-30T21:46:55.000Z</time></trkpt>
        <trkpt lat="28.389499" lon="104.711862"><ele>1035.9424</ele><time>2026-01-30T21:47:00.000Z</time></trkpt>
        <trkpt lat="28.389538" lon="104.711896"><ele>1035.8767</ele><time>2026-01-30T21:47:06.000Z</time></trkpt>
        <trkpt lat="28.389572" lon="104.711931"><ele>1035.9481</ele><time>2026-01-30T21:47:10.000Z</time></trkpt>
        <trkpt lat="28.389604" lon="104.711975"><ele>1036.5728</ele><time>2026-01-30T21:47:15.000Z</time></trkpt>
        <trkpt lat="28.389635" lon="104.712026"><ele>1036.3765</ele><time>2026-01-30T21:47:22.000Z</time></trkpt>
        <trkpt lat="28.389653" lon="104.712074"><ele>1036.552</ele><time>2026-01-30T21:47:26.000Z</time></trkpt>
        <trkpt lat="28.389678" lon="104.712122"><ele>1035.6569</ele><time>2026-01-30T21:47:31.000Z</time></trkpt>
        <trkpt lat="28.389707" lon="104.712177"><ele>1034.5059</ele><time>2026-01-30T21:47:36.000Z</time></trkpt>
        <trkpt lat="28.389735" lon="104.712225"><ele>1035.1708</ele><time>2026-01-30T21:47:40.000Z</time></trkpt>
        <trkpt lat="28.389767" lon="104.712267"><ele>1035.5308</ele><time>2026-01-30T21:47:44.000Z</time></trkpt>
        <trkpt lat="28.389785" lon="104.712327"><ele>1035.4431</ele><time>2026-01-30T21:47:50.000Z</time></trkpt>
        <trkpt lat="28.389791" lon="104.712379"><ele>1034.4088</ele><time>2026-01-30T21:47:54.000Z</time></trkpt>
        <trkpt lat="28.389816" lon="104.71243"><ele>1034.2557</ele><time>2026-01-30T21:47:58.000Z</time></trkpt>
        <trkpt lat="28.389847" lon="104.712475"><ele>1032.8171</ele><time>2026-01-30T21:48:03.000Z</time></trkpt>
        <trkpt lat="28.389888" lon="104.712521"><ele>1032.8319</ele><time>2026-01-30T21:48:08.000Z</time></trkpt>
        <trkpt lat="28.38993" lon="104.712564"><ele>1032.7202</ele><time>2026-01-30T21:48:12.000Z</time></trkpt>
        <trkpt lat="28.389974" lon="104.71261"><ele>1033.2334</ele><time>2026-01-30T21:48:17.000Z</time></trkpt>
        <trkpt lat="28.39001" lon="104.712655"><ele>1032.6578</ele><time>2026-01-30T21:48:22.000Z</time></trkpt>
        <trkpt lat="28.390043" lon="104.712703"><ele>1032.4939</ele><time>2026-01-30T21:48:27.000Z</time></trkpt>
        <trkpt lat="28.390086" lon="104.712746"><ele>1032.4009</ele><time>2026-01-30T21:48:32.000Z</time></trkpt>
        <trkpt lat="28.390126" lon="104.712783"><ele>1032.6997</ele><time>2026-01-30T21:48:36.000Z</time></trkpt>
        <trkpt lat="28.39016" lon="104.71282"><ele>1032.3378</ele><time>2026-01-30T21:48:40.000Z</time></trkpt>
        <trkpt lat="28.390207" lon="104.712853"><ele>1031.6384</ele><time>2026-01-30T21:48:46.000Z</time></trkpt>
        <trkpt lat="28.390259" lon="104.712875"><ele>1030.4598</ele><time>2026-01-30T21:48:53.000Z</time></trkpt>
        <trkpt lat="28.390299" lon="104.712906"><ele>1030.2838</ele><time>2026-01-30T21:48:57.000Z</time></trkpt>
        <trkpt lat="28.390346" lon="104.712919"><ele>1029.2346</ele><time>2026-01-30T21:49:01.000Z</time></trkpt>
        <trkpt lat="28.390391" lon="104.712912"><ele>1028.7926</ele><time>2026-01-30T21:49:05.000Z</time></trkpt>
        <trkpt lat="28.390432" lon="104.712934"><ele>1027.7094</ele><time>2026-01-30T21:49:09.000Z</time></trkpt>
        <trkpt lat="28.390487" lon="104.712944"><ele>1027.6749</ele><time>2026-01-30T21:49:13.000Z</time></trkpt>
        <trkpt lat="28.390544" lon="104.71293"><ele>1025.9894</ele><time>2026-01-30T21:49:17.000Z</time></trkpt>
        <trkpt lat="28.390593" lon="104.71293"><ele>1025.6075</ele><time>2026-01-30T21:49:21.000Z</time></trkpt>
        <trkpt lat="28.390644" lon="104.712919"><ele>1026.003</ele><time>2026-01-30T21:49:25.000Z</time></trkpt>
        <trkpt lat="28.390695" lon="104.712905"><ele>1025.7677</ele><time>2026-01-30T21:49:29.000Z</time></trkpt>
        <trkpt lat="28.390743" lon="104.71289"><ele>1025.5952</ele><time>2026-01-30T21:49:34.000Z</time></trkpt>
        <trkpt lat="28.390785" lon="104.712869"><ele>1023.7526</ele><time>2026-01-30T21:49:39.000Z</time></trkpt>
        <trkpt lat="28.390841" lon="104.712866"><ele>1022.08105</ele><time>2026-01-30T21:49:45.000Z</time></trkpt>
        <trkpt lat="28.390888" lon="104.712854"><ele>1022.44824</ele><time>2026-01-30T21:49:48.000Z</time></trkpt>
        <trkpt lat="28.39094" lon="104.712836"><ele>1023.70154</ele><time>2026-01-30T21:49:52.000Z</time></trkpt>
        <trkpt lat="28.390989" lon="104.712819"><ele>1024.647</ele><time>2026-01-30T21:49:57.000Z</time></trkpt>
        <trkpt lat="28.391035" lon="104.712809"><ele>1025.9315</ele><time>2026-01-30T21:50:01.000Z</time></trkpt>
        <trkpt lat="28.391089" lon="104.712791"><ele>1027.3258</ele><time>2026-01-30T21:50:06.000Z</time></trkpt>
        <trkpt lat="28.391127" lon="104.71283"><ele>1027.0616</ele><time>2026-01-30T21:50:10.000Z</time></trkpt>
        <trkpt lat="28.391172" lon="104.71284"><ele>1028.1154</ele><time>2026-01-30T21:50:15.000Z</time></trkpt>
        <trkpt lat="28.391191" lon="104.712886"><ele>1027.1337</ele><time>2026-01-30T21:50:19.000Z</time></trkpt>
        <trkpt lat="28.39123" lon="104.712926"><ele>1027.6158</ele><time>2026-01-30T21:50:23.000Z</time></trkpt>
        <trkpt lat="28.391247" lon="104.712974"><ele>1026.5701</ele><time>2026-01-30T21:50:28.000Z</time></trkpt>
        <trkpt lat="28.391275" lon="104.713021"><ele>1027.1876</ele><time>2026-01-30T21:50:33.000Z</time></trkpt>
        <trkpt lat="28.391297" lon="104.713068"><ele>1028.3938</ele><time>2026-01-30T21:50:46.000Z</time></trkpt>
        <trkpt lat="28.3913" lon="104.71312"><ele>1028.6394</ele><time>2026-01-30T21:50:52.000Z</time></trkpt>
        <trkpt lat="28.3913" lon="104.713174"><ele>1028.7632</ele><time>2026-01-30T21:50:57.000Z</time></trkpt>
        <trkpt lat="28.39131" lon="104.713245"><ele>1029.1738</ele><time>2026-01-30T21:51:03.000Z</time></trkpt>
        <trkpt lat="28.391363" lon="104.713226"><ele>1030.1777</ele><time>2026-01-30T21:51:20.000Z</time></trkpt>
        <trkpt lat="28.391366" lon="104.713279"><ele>1030.7151</ele><time>2026-01-30T21:51:27.000Z</time></trkpt>
        <trkpt lat="28.391408" lon="104.713302"><ele>1031.399</ele><time>2026-01-30T21:51:40.000Z</time></trkpt>
        <trkpt lat="28.39143" lon="104.713355"><ele>1030.2339</ele><time>2026-01-30T21:51:46.000Z</time></trkpt>
        <trkpt lat="28.391446" lon="104.713407"><ele>1029.7769</ele><time>2026-01-30T21:51:51.000Z</time></trkpt>
        <trkpt lat="28.39144" lon="104.71346"><ele>1030.9069</ele><time>2026-01-30T21:52:03.000Z</time></trkpt>
        <trkpt lat="28.391476" lon="104.713492"><ele>1030.6862</ele><time>2026-01-30T21:52:50.000Z</time></trkpt>
        <trkpt lat="28.391502" lon="104.713536"><ele>1030.6356</ele><time>2026-01-30T21:52:56.000Z</time></trkpt>
        <trkpt lat="28.391542" lon="104.713594"><ele>1030.6796</ele><time>2026-01-30T21:53:01.000Z</time></trkpt>
        <trkpt lat="28.391556" lon="104.713647"><ele>1031.8531</ele><time>2026-01-30T21:53:05.000Z</time></trkpt>
        <trkpt lat="28.391586" lon="104.713685"><ele>1032.5885</ele><time>2026-01-30T21:53:10.000Z</time></trkpt>
        <trkpt lat="28.391619" lon="104.713734"><ele>1032.9884</ele><time>2026-01-30T21:53:16.000Z</time></trkpt>
        <trkpt lat="28.391672" lon="104.713749"><ele>1033.3625</ele><time>2026-01-30T21:53:21.000Z</time></trkpt>
        <trkpt lat="28.391718" lon="104.713779"><ele>1032.6896</ele><time>2026-01-30T21:53:27.000Z</time></trkpt>
        <trkpt lat="28.391765" lon="104.713784"><ele>1031.9291</ele><time>2026-01-30T21:53:39.000Z</time></trkpt>
        <trkpt lat="28.391807" lon="104.713753"><ele>1032.028</ele><time>2026-01-30T21:53:45.000Z</time></trkpt>
        <trkpt lat="28.391853" lon="104.713749"><ele>1031.5145</ele><time>2026-01-30T21:53:49.000Z</time></trkpt>
        <trkpt lat="28.391896" lon="104.713713"><ele>1032.1443</ele><time>2026-01-30T21:53:56.000Z</time></trkpt>
        <trkpt lat="28.391942" lon="104.7137"><ele>1031.0919</ele><time>2026-01-30T21:54:01.000Z</time></trkpt>
        <trkpt lat="28.391989" lon="104.713668"><ele>1032.1499</ele><time>2026-01-30T21:54:05.000Z</time></trkpt>
        <trkpt lat="28.392031" lon="104.71363"><ele>1032.3973</ele><time>2026-01-30T21:54:11.000Z</time></trkpt>
        <trkpt lat="28.392073" lon="104.713591"><ele>1032.9945</ele><time>2026-01-30T21:54:17.000Z</time></trkpt>
        <trkpt lat="28.392126" lon="104.713587"><ele>1033.3541</ele><time>2026-01-30T21:54:22.000Z</time></trkpt>
        <trkpt lat="28.392173" lon="104.713611"><ele>1033.3644</ele><time>2026-01-30T21:54:26.000Z</time></trkpt>
        <trkpt lat="28.392216" lon="104.713651"><ele>1033.1989</ele><time>2026-01-30T21:54:31.000Z</time></trkpt>
        <trkpt lat="28.39225" lon="104.713702"><ele>1033.0726</ele><time>2026-01-30T21:54:36.000Z</time></trkpt>
        <trkpt lat="28.392277" lon="104.713752"><ele>1033.5254</ele><time>2026-01-30T21:54:41.000Z</time></trkpt>
        <trkpt lat="28.392304" lon="104.713804"><ele>1030.6783</ele><time>2026-01-30T21:54:51.000Z</time></trkpt>
        <trkpt lat="28.39234" lon="104.713836"><ele>1030.393</ele><time>2026-01-30T21:54:55.000Z</time></trkpt>
        <trkpt lat="28.392388" lon="104.713829"><ele>1030.4988</ele><time>2026-01-30T21:54:59.000Z</time></trkpt>
        <trkpt lat="28.39243" lon="104.713849"><ele>1029.9966</ele><time>2026-01-30T21:55:29.000Z</time></trkpt>
        <trkpt lat="28.392468" lon="104.713821"><ele>1028.8137</ele><time>2026-01-30T21:55:42.000Z</time></trkpt>
        <trkpt lat="28.392511" lon="104.713791"><ele>1029.2593</ele><time>2026-01-30T21:55:48.000Z</time></trkpt>
        <trkpt lat="28.392547" lon="104.713758"><ele>1030.2441</ele><time>2026-01-30T21:55:54.000Z</time></trkpt>
        <trkpt lat="28.392563" lon="104.713706"><ele>1030.2869</ele><time>2026-01-30T21:56:03.000Z</time></trkpt>
        <trkpt lat="28.392582" lon="104.713653"><ele>1031.5616</ele><time>2026-01-30T21:56:13.000Z</time></trkpt>
        <trkpt lat="28.392598" lon="104.713597"><ele>1032.325</ele><time>2026-01-30T21:56:18.000Z</time></trkpt>
        <trkpt lat="28.392627" lon="104.713553"><ele>1035.186</ele><time>2026-01-30T21:56:31.000Z</time></trkpt>
        <trkpt lat="28.392664" lon="104.713497"><ele>1037.2233</ele><time>2026-01-30T21:56:38.000Z</time></trkpt>
        <trkpt lat="28.392709" lon="104.713488"><ele>1037.7166</ele><time>2026-01-30T21:56:44.000Z</time></trkpt>
        <trkpt lat="28.39276" lon="104.713471"><ele>1038.1189</ele><time>2026-01-30T21:56:52.000Z</time></trkpt>
        <trkpt lat="28.392805" lon="104.713458"><ele>1039.0454</ele><time>2026-01-30T21:56:59.000Z</time></trkpt>
        <trkpt lat="28.392852" lon="104.713455"><ele>1038.7992</ele><time>2026-01-30T21:57:06.000Z</time></trkpt>
        <trkpt lat="28.392906" lon="104.713455"><ele>1038.5435</ele><time>2026-01-30T21:57:15.000Z</time></trkpt>
        <trkpt lat="28.392953" lon="104.713454"><ele>1038.3317</ele><time>2026-01-30T21:57:21.000Z</time></trkpt>
        <trkpt lat="28.393007" lon="104.713438"><ele>1038.1525</ele><time>2026-01-30T21:57:29.000Z</time></trkpt>
        <trkpt lat="28.393056" lon="104.713436"><ele>1038.4558</ele><time>2026-01-30T21:57:36.000Z</time></trkpt>
        <trkpt lat="28.393096" lon="104.713406"><ele>1038.6199</ele><time>2026-01-30T21:57:43.000Z</time></trkpt>
        <trkpt lat="28.393123" lon="104.713357"><ele>1038.8263</ele><time>2026-01-30T21:57:50.000Z</time></trkpt>
        <trkpt lat="28.393164" lon="104.713328"><ele>1041.3813</ele><time>2026-01-30T21:58:11.000Z</time></trkpt>
        <trkpt lat="28.393128" lon="104.713287"><ele>1042.277</ele><time>2026-01-30T21:58:55.000Z</time></trkpt>
        <trkpt lat="28.393082" lon="104.713289"><ele>1042.9432</ele><time>2026-01-30T21:59:01.000Z</time></trkpt>
        <trkpt lat="28.39303" lon="104.713301"><ele>1043.2177</ele><time>2026-01-30T21:59:08.000Z</time></trkpt>
        <trkpt lat="28.392989" lon="104.713323"><ele>1043.7594</ele><time>2026-01-30T21:59:14.000Z</time></trkpt>
        <trkpt lat="28.392944" lon="104.713313"><ele>1044.6367</ele><time>2026-01-30T22:00:00.000Z</time></trkpt>
        <trkpt lat="28.3929" lon="104.713296"><ele>1044.3461</ele><time>2026-01-30T22:00:04.000Z</time></trkpt>
        <trkpt lat="28.392859" lon="104.713262"><ele>1044.518</ele><time>2026-01-30T22:00:09.000Z</time></trkpt>
        <trkpt lat="28.392826" lon="104.713219"><ele>1043.8876</ele><time>2026-01-30T22:00:14.000Z</time></trkpt>
        <trkpt lat="28.392803" lon="104.71317"><ele>1043.9781</ele><time>2026-01-30T22:00:18.000Z</time></trkpt>
        <trkpt lat="28.392795" lon="104.713113"><ele>1043.9108</ele><time>2026-01-30T22:00:23.000Z</time></trkpt>
        <trkpt lat="28.3928" lon="104.713168"><ele>1042.7058</ele><time>2026-01-30T22:01:03.000Z</time></trkpt>
        <trkpt lat="28.392824" lon="104.71322"><ele>1042.393</ele><time>2026-01-30T22:01:08.000Z</time></trkpt>
        <trkpt lat="28.392863" lon="104.713266"><ele>1042.835</ele><time>2026-01-30T22:01:13.000Z</time></trkpt>
        <trkpt lat="28.392916" lon="104.7133"><ele>1043.2695</ele><time>2026-01-30T22:01:18.000Z</time></trkpt>
        <trkpt lat="28.392972" lon="104.713307"><ele>1043.9812</ele><time>2026-01-30T22:01:24.000Z</time></trkpt>
        <trkpt lat="28.393018" lon="104.713292"><ele>1044.7322</ele><time>2026-01-30T22:01:28.000Z</time></trkpt>
        <trkpt lat="28.393061" lon="104.713268"><ele>1045.0616</ele><time>2026-01-30T22:01:32.000Z</time></trkpt>
        <trkpt lat="28.393108" lon="104.713278"><ele>1044.0039</ele><time>2026-01-30T22:01:36.000Z</time></trkpt>
        <trkpt lat="28.393136" lon="104.713327"><ele>1042.1515</ele><time>2026-01-30T22:01:41.000Z</time></trkpt>
        <trkpt lat="28.393119" lon="104.713389"><ele>1041.9697</ele><time>2026-01-30T22:01:47.000Z</time></trkpt>
        <trkpt lat="28.393102" lon="104.713436"><ele>1040.6809</ele><time>2026-01-30T22:01:51.000Z</time></trkpt>
        <trkpt lat="28.393062" lon="104.713469"><ele>1038.3961</ele><time>2026-01-30T22:01:56.000Z</time></trkpt>
        <trkpt lat="28.393016" lon="104.71349"><ele>1037.1604</ele><time>2026-01-30T22:02:01.000Z</time></trkpt>
        <trkpt lat="28.392959" lon="104.71351"><ele>1035.141</ele><time>2026-01-30T22:02:08.000Z</time></trkpt>
        <trkpt lat="28.392906" lon="104.713498"><ele>1034.3281</ele><time>2026-01-30T22:02:13.000Z</time></trkpt>
        <trkpt lat="28.39286" lon="104.713498"><ele>1034.282</ele><time>2026-01-30T22:02:17.000Z</time></trkpt>
        <trkpt lat="28.39281" lon="104.713511"><ele>1033.9546</ele><time>2026-01-30T22:02:21.000Z</time></trkpt>
        <trkpt lat="28.392765" lon="104.713523"><ele>1034.1238</ele><time>2026-01-30T22:02:25.000Z</time></trkpt>
        <trkpt lat="28.392721" lon="104.713544"><ele>1033.8492</ele><time>2026-01-30T22:02:31.000Z</time></trkpt>
        <trkpt lat="28.392684" lon="104.713575"><ele>1033.1444</ele><time>2026-01-30T22:02:35.000Z</time></trkpt>
        <trkpt lat="28.392653" lon="104.713619"><ele>1031.625</ele><time>2026-01-30T22:02:39.000Z</time></trkpt>
        <trkpt lat="28.392625" lon="104.713676"><ele>1030.9539</ele><time>2026-01-30T22:02:44.000Z</time></trkpt>
        <trkpt lat="28.392664" lon="104.713649"><ele>1028.7562</ele><time>2026-01-30T22:03:12.000Z</time></trkpt>
        <trkpt lat="28.392707" lon="104.713625"><ele>1028.3715</ele><time>2026-01-30T22:03:15.000Z</time></trkpt>
        <trkpt lat="28.392751" lon="104.713639"><ele>1028.9312</ele><time>2026-01-30T22:03:23.000Z</time></trkpt>
        <trkpt lat="28.392802" lon="104.713641"><ele>1028.1827</ele><time>2026-01-30T22:03:34.000Z</time></trkpt>
        <trkpt lat="28.392851" lon="104.713642"><ele>1027.7852</ele><time>2026-01-30T22:03:39.000Z</time></trkpt>
        <trkpt lat="28.392898" lon="104.713664"><ele>1026.952</ele><time>2026-01-30T22:03:44.000Z</time></trkpt>
        <trkpt lat="28.392952" lon="104.713688"><ele>1024.9913</ele><time>2026-01-30T22:03:50.000Z</time></trkpt>
        <trkpt lat="28.393007" lon="104.713686"><ele>1024.6744</ele><time>2026-01-30T22:03:55.000Z</time></trkpt>
        <trkpt lat="28.393056" lon="104.713672"><ele>1021.1835</ele><time>2026-01-30T22:04:13.000Z</time></trkpt>
        <trkpt lat="28.393105" lon="104.713656"><ele>1020.3234</ele><time>2026-01-30T22:04:18.000Z</time></trkpt>
        <trkpt lat="28.393153" lon="104.713633"><ele>1019.3964</ele><time>2026-01-30T22:04:28.000Z</time></trkpt>
        <trkpt lat="28.393195" lon="104.713613"><ele>1018.6805</ele><time>2026-01-30T22:04:32.000Z</time></trkpt>
        <trkpt lat="28.393238" lon="104.713583"><ele>1018.57465</ele><time>2026-01-30T22:04:35.000Z</time></trkpt>
        <trkpt lat="28.393286" lon="104.713547"><ele>1018.5626</ele><time>2026-01-30T22:04:42.000Z</time></trkpt>
        <trkpt lat="28.393324" lon="104.713515"><ele>1018.206</ele><time>2026-01-30T22:04:47.000Z</time></trkpt>
        <trkpt lat="28.39338" lon="104.713491"><ele>1018.823</ele><time>2026-01-30T22:04:51.000Z</time></trkpt>
        <trkpt lat="28.393412" lon="104.713447"><ele>1019.113</ele><time>2026-01-30T22:04:57.000Z</time></trkpt>
        <trkpt lat="28.393455" lon="104.713414"><ele>1019.1047</ele><time>2026-01-30T22:05:02.000Z</time></trkpt>
        <trkpt lat="28.393474" lon="104.713365"><ele>1019.463</ele><time>2026-01-30T22:05:07.000Z</time></trkpt>
        <trkpt lat="28.393508" lon="104.71332"><ele>1019.30597</ele><time>2026-01-30T22:05:12.000Z</time></trkpt>
        <trkpt lat="28.393532" lon="104.713276"><ele>1017.6101</ele><time>2026-01-30T22:05:21.000Z</time></trkpt>
        <trkpt lat="28.393571" lon="104.713229"><ele>1017.51086</ele><time>2026-01-30T22:05:26.000Z</time></trkpt>
        <trkpt lat="28.393568" lon="104.713164"><ele>1017.688</ele><time>2026-01-30T22:05:32.000Z</time></trkpt>
        <trkpt lat="28.393519" lon="104.713133"><ele>1017.9386</ele><time>2026-01-30T22:05:38.000Z</time></trkpt>
        <trkpt lat="28.393511" lon="104.713081"><ele>1018.33984</ele><time>2026-01-30T22:05:45.000Z</time></trkpt>
        <trkpt lat="28.39355" lon="104.713056"><ele>1016.7231</ele><time>2026-01-30T22:06:13.000Z</time></trkpt>
        <trkpt lat="28.393598" lon="104.71306"><ele>1014.8852</ele><time>2026-01-30T22:06:24.000Z</time></trkpt>
        <trkpt lat="28.393649" lon="104.713047"><ele>1014.2806</ele><time>2026-01-30T22:06:29.000Z</time></trkpt>
        <trkpt lat="28.393689" lon="104.71309"><ele>1013.39014</ele><time>2026-01-30T22:06:38.000Z</time></trkpt>
        <trkpt lat="28.393705" lon="104.71314"><ele>1010.3377</ele><time>2026-01-30T22:06:49.000Z</time></trkpt>
        <trkpt lat="28.393683" lon="104.713188"><ele>1009.75275</ele><time>2026-01-30T22:06:56.000Z</time></trkpt>
        <trkpt lat="28.393672" lon="104.71324"><ele>1010.2523</ele><time>2026-01-30T22:07:03.000Z</time></trkpt>
        <trkpt lat="28.393681" lon="104.713319"><ele>1008.25415</ele><time>2026-01-30T22:07:40.000Z</time></trkpt>
        <trkpt lat="28.393703" lon="104.713254"><ele>1007.9339</ele><time>2026-01-30T22:07:58.000Z</time></trkpt>
        <trkpt lat="28.393746" lon="104.713238"><ele>1006.729</ele><time>2026-01-30T22:08:07.000Z</time></trkpt>
        <trkpt lat="28.393752" lon="104.713185"><ele>1003.4571</ele><time>2026-01-30T22:08:18.000Z</time></trkpt>
        <trkpt lat="28.393801" lon="104.713163"><ele>1002.4406</ele><time>2026-01-30T22:08:25.000Z</time></trkpt>
        <trkpt lat="28.393817" lon="104.713114"><ele>1000.4312</ele><time>2026-01-30T22:08:34.000Z</time></trkpt>
        <trkpt lat="28.393822" lon="104.713062"><ele>1001.63525</ele><time>2026-01-30T22:08:44.000Z</time></trkpt>
        <trkpt lat="28.393852" lon="104.713101"><ele>998.82935</ele><time>2026-01-30T22:09:15.000Z</time></trkpt>
        <trkpt lat="28.393861" lon="104.713154"><ele>996.733</ele><time>2026-01-30T22:09:24.000Z</time></trkpt>
        <trkpt lat="28.393907" lon="104.713135"><ele>995.31415</ele><time>2026-01-30T22:09:33.000Z</time></trkpt>
        <trkpt lat="28.393943" lon="104.713104"><ele>993.32745</ele><time>2026-01-30T22:09:40.000Z</time></trkpt>
        <trkpt lat="28.393991" lon="104.713077"><ele>992.74744</ele><time>2026-01-30T22:09:52.000Z</time></trkpt>
        <trkpt lat="28.394021" lon="104.713035"><ele>991.125</ele><time>2026-01-30T22:10:04.000Z</time></trkpt>
        <trkpt lat="28.394063" lon="104.713056"><ele>991.7697</ele><time>2026-01-30T22:10:12.000Z</time></trkpt>
        <trkpt lat="28.394089" lon="104.713011"><ele>990.37115</ele><time>2026-01-30T22:10:17.000Z</time></trkpt>
        <trkpt lat="28.394128" lon="104.712974"><ele>992.6018</ele><time>2026-01-30T22:10:24.000Z</time></trkpt>
        <trkpt lat="28.39417" lon="104.712948"><ele>994.1141</ele><time>2026-01-30T22:10:35.000Z</time></trkpt>
        <trkpt lat="28.394216" lon="104.712953"><ele>992.58344</ele><time>2026-01-30T22:11:09.000Z</time></trkpt>
        <trkpt lat="28.394269" lon="104.712955"><ele>990.5338</ele><time>2026-01-30T22:11:22.000Z</time></trkpt>
        <trkpt lat="28.394303" lon="104.712918"><ele>990.50494</ele><time>2026-01-30T22:11:32.000Z</time></trkpt>
        <trkpt lat="28.394347" lon="104.712925"><ele>989.4373</ele><time>2026-01-30T22:11:39.000Z</time></trkpt>
        <trkpt lat="28.3944" lon="104.712929"><ele>988.7204</ele><time>2026-01-30T22:11:45.000Z</time></trkpt>
        <trkpt lat="28.394445" lon="104.712917"><ele>987.3682</ele><time>2026-01-30T22:11:51.000Z</time></trkpt>
        <trkpt lat="28.394495" lon="104.712904"><ele>987.6024</ele><time>2026-01-30T22:11:57.000Z</time></trkpt>
        <trkpt lat="28.39454" lon="104.712904"><ele>986.7103</ele><time>2026-01-30T22:12:18.000Z</time></trkpt>
        <trkpt lat="28.394587" lon="104.712881"><ele>986.2084</ele><time>2026-01-30T22:12:23.000Z</time></trkpt>
        <trkpt lat="28.394645" lon="104.71285"><ele>987.2304</ele><time>2026-01-30T22:12:29.000Z</time></trkpt>
        <trkpt lat="28.394687" lon="104.712829"><ele>987.71185</ele><time>2026-01-30T22:12:33.000Z</time></trkpt>
        <trkpt lat="28.394731" lon="104.712812"><ele>987.5601</ele><time>2026-01-30T22:12:42.000Z</time></trkpt>
        <trkpt lat="28.394686" lon="104.712801"><ele>990.321</ele><time>2026-01-30T22:13:00.000Z</time></trkpt>
        <trkpt lat="28.394731" lon="104.712791"><ele>989.07526</ele><time>2026-01-30T22:13:45.000Z</time></trkpt>
        <trkpt lat="28.39478" lon="104.712785"><ele>989.4947</ele><time>2026-01-30T22:13:59.000Z</time></trkpt>
        <trkpt lat="28.394816" lon="104.712744"><ele>990.98145</ele><time>2026-01-30T22:14:19.000Z</time></trkpt>
        <trkpt lat="28.394867" lon="104.712729"><ele>993.4773</ele><time>2026-01-30T22:14:32.000Z</time></trkpt>
        <trkpt lat="28.394914" lon="104.712704"><ele>995.2175</ele><time>2026-01-30T22:14:41.000Z</time></trkpt>
        <trkpt lat="28.394959" lon="104.712677"><ele>996.3684</ele><time>2026-01-30T22:14:49.000Z</time></trkpt>
        <trkpt lat="28.39495" lon="104.712739"><ele>998.57495</ele><time>2026-01-30T22:16:03.000Z</time></trkpt>
        <trkpt lat="28.394989" lon="104.71271"><ele>996.14526</ele><time>2026-01-30T22:16:40.000Z</time></trkpt>
        <trkpt lat="28.395034" lon="104.712718"><ele>998.2549</ele><time>2026-01-30T22:16:50.000Z</time></trkpt>
        <trkpt lat="28.395074" lon="104.712688"><ele>1002.48804</ele><time>2026-01-30T22:17:11.000Z</time></trkpt>
        <trkpt lat="28.395112" lon="104.712717"><ele>1002.64496</ele><time>2026-01-30T22:17:20.000Z</time></trkpt>
        <trkpt lat="28.395157" lon="104.712704"><ele>1003.88104</ele><time>2026-01-30T22:17:27.000Z</time></trkpt>
        <trkpt lat="28.395203" lon="104.712713"><ele>1004.81573</ele><time>2026-01-30T22:17:33.000Z</time></trkpt>
        <trkpt lat="28.395249" lon="104.712695"><ele>1006.9477</ele><time>2026-01-30T22:17:44.000Z</time></trkpt>
        <trkpt lat="28.395298" lon="104.712695"><ele>1007.4053</ele><time>2026-01-30T22:17:55.000Z</time></trkpt>
        <trkpt lat="28.395341" lon="104.712673"><ele>1009.33453</ele><time>2026-01-30T22:18:05.000Z</time></trkpt>
        <trkpt lat="28.395388" lon="104.712658"><ele>1010.73724</ele><time>2026-01-30T22:18:14.000Z</time></trkpt>
        <trkpt lat="28.395433" lon="104.712643"><ele>1012.4538</ele><time>2026-01-30T22:18:21.000Z</time></trkpt>
        <trkpt lat="28.395479" lon="104.712635"><ele>1012.7718</ele><time>2026-01-30T22:18:29.000Z</time></trkpt>
        <trkpt lat="28.395514" lon="104.712592"><ele>1015.36316</ele><time>2026-01-30T22:18:44.000Z</time></trkpt>
        <trkpt lat="28.395561" lon="104.712584"><ele>1016.2547</ele><time>2026-01-30T22:18:49.000Z</time></trkpt>
        <trkpt lat="28.395606" lon="104.712587"><ele>1014.8703</ele><time>2026-01-30T22:18:56.000Z</time></trkpt>
        <trkpt lat="28.395656" lon="104.71259"><ele>1017.8347</ele><time>2026-01-30T22:19:07.000Z</time></trkpt>
        <trkpt lat="28.395707" lon="104.71258"><ele>1022.003</ele><time>2026-01-30T22:19:26.000Z</time></trkpt>
        <trkpt lat="28.395753" lon="104.71256"><ele>1023.9377</ele><time>2026-01-30T22:19:33.000Z</time></trkpt>
        <trkpt lat="28.395754" lon="104.712502"><ele>1031.9453</ele><time>2026-01-30T22:24:21.000Z</time></trkpt>
        <trkpt lat="28.395802" lon="104.712504"><ele>1031.87</ele><time>2026-01-30T22:24:30.000Z</time></trkpt>
        <trkpt lat="28.395777" lon="104.712456"><ele>1027.3986</ele><time>2026-01-30T22:25:04.000Z</time></trkpt>
        <trkpt lat="28.395774" lon="104.712393"><ele>1030.1584</ele><time>2026-01-30T22:25:30.000Z</time></trkpt>
        <trkpt lat="28.395776" lon="104.71234"><ele>1029.0159</ele><time>2026-01-30T22:25:39.000Z</time></trkpt>
        <trkpt lat="28.395766" lon="104.712287"><ele>1028.957</ele><time>2026-01-30T22:25:45.000Z</time></trkpt>
        <trkpt lat="28.395757" lon="104.712235"><ele>1023.80615</ele><time>2026-01-30T22:26:00.000Z</time></trkpt>
        <trkpt lat="28.395751" lon="104.712184"><ele>1017.9553</ele><time>2026-01-30T22:26:22.000Z</time></trkpt>
        <trkpt lat="28.395723" lon="104.712143"><ele>1016.8237</ele><time>2026-01-30T22:26:42.000Z</time></trkpt>
        <trkpt lat="28.395708" lon="104.712091"><ele>1016.51764</ele><time>2026-01-30T22:27:03.000Z</time></trkpt>
        <trkpt lat="28.395716" lon="104.712039"><ele>1014.30237</ele><time>2026-01-30T22:27:26.000Z</time></trkpt>
        <trkpt lat="28.39567" lon="104.712032"><ele>1012.9763</ele><time>2026-01-30T22:28:20.000Z</time></trkpt>
        <trkpt lat="28.395706" lon="104.711963"><ele>1012.5686</ele><time>2026-01-30T22:28:49.000Z</time></trkpt>
        <trkpt lat="28.39569" lon="104.71188"><ele>1009.89636</ele><time>2026-01-30T22:29:03.000Z</time></trkpt>
        <trkpt lat="28.395721" lon="104.71193"><ele>1008.43353</ele><time>2026-01-30T22:29:07.000Z</time></trkpt>
        <trkpt lat="28.395748" lon="104.711886"><ele>1004.61414</ele><time>2026-01-30T22:29:58.000Z</time></trkpt>
        <trkpt lat="28.395756" lon="104.711936"><ele>1003.17163</ele><time>2026-01-30T22:30:22.000Z</time></trkpt>
        <trkpt lat="28.395761" lon="104.711874"><ele>1006.31946</ele><time>2026-01-30T22:30:44.000Z</time></trkpt>
        <trkpt lat="28.395724" lon="104.711912"><ele>1005.17004</ele><time>2026-01-30T22:31:01.000Z</time></trkpt>
        <trkpt lat="28.395684" lon="104.711945"><ele>1006.0156</ele><time>2026-01-30T22:31:13.000Z</time></trkpt>
        <trkpt lat="28.395701" lon="104.711897"><ele>1000.8385</ele><time>2026-01-30T22:31:51.000Z</time></trkpt>
        <trkpt lat="28.395651" lon="104.711889"><ele>1004.709</ele><time>2026-01-30T22:32:10.000Z</time></trkpt>
        <trkpt lat="28.395591" lon="104.711874"><ele>1002.2338</ele><time>2026-01-30T22:32:30.000Z</time></trkpt>
        <trkpt lat="28.395623" lon="104.711924"><ele>1002.2059</ele><time>2026-01-30T22:32:40.000Z</time></trkpt>
        <trkpt lat="28.395573" lon="104.711899"><ele>1004.95465</ele><time>2026-01-30T22:32:50.000Z</time></trkpt>
        <trkpt lat="28.395543" lon="104.711857"><ele>1001.3809</ele><time>2026-01-30T22:33:20.000Z</time></trkpt>
        <trkpt lat="28.395525" lon="104.711904"><ele>998.57733</ele><time>2026-01-30T22:33:41.000Z</time></trkpt>
        <trkpt lat="28.395522" lon="104.711853"><ele>996.94574</ele><time>2026-01-30T22:34:04.000Z</time></trkpt>
        <trkpt lat="28.395512" lon="104.711802"><ele>993.3725</ele><time>2026-01-30T22:35:37.000Z</time></trkpt>
        <trkpt lat="28.395556" lon="104.711788"><ele>992.1558</ele><time>2026-01-30T22:35:54.000Z</time></trkpt>
        <trkpt lat="28.395538" lon="104.711734"><ele>988.93146</ele><time>2026-01-30T22:36:26.000Z</time></trkpt>
        <trkpt lat="28.395499" lon="104.711761"><ele>986.1902</ele><time>2026-01-30T22:36:43.000Z</time></trkpt>
        <trkpt lat="28.395473" lon="104.711719"><ele>987.9261</ele><time>2026-01-30T22:37:33.000Z</time></trkpt>
        <trkpt lat="28.395487" lon="104.711664"><ele>985.4725</ele><time>2026-01-30T22:37:56.000Z</time></trkpt>
        <trkpt lat="28.39548" lon="104.711613"><ele>982.8131</ele><time>2026-01-30T22:38:23.000Z</time></trkpt>
        <trkpt lat="28.395469" lon="104.711555"><ele>981.7954</ele><time>2026-01-30T22:38:52.000Z</time></trkpt>
        <trkpt lat="28.395481" lon="104.711505"><ele>976.62006</ele><time>2026-01-30T22:39:37.000Z</time></trkpt>
        <trkpt lat="28.395478" lon="104.711446"><ele>976.8212</ele><time>2026-01-30T22:40:05.000Z</time></trkpt>
        <trkpt lat="28.395446" lon="104.711409"><ele>975.7925</ele><time>2026-01-30T22:40:18.000Z</time></trkpt>
        <trkpt lat="28.395471" lon="104.711362"><ele>971.871</ele><time>2026-01-30T22:40:29.000Z</time></trkpt>
        <trkpt lat="28.395503" lon="104.711324"><ele>970.1433</ele><time>2026-01-30T22:40:39.000Z</time></trkpt>
        <trkpt lat="28.395508" lon="104.711271"><ele>971.2146</ele><time>2026-01-30T22:40:55.000Z</time></trkpt>
        <trkpt lat="28.395509" lon="104.71122"><ele>968.101</ele><time>2026-01-30T22:41:08.000Z</time></trkpt>
        <trkpt lat="28.395474" lon="104.711179"><ele>966.73016</ele><time>2026-01-30T22:41:42.000Z</time></trkpt>
        <trkpt lat="28.395432" lon="104.711143"><ele>965.2966</ele><time>2026-01-30T22:42:19.000Z</time></trkpt>
        <trkpt lat="28.395441" lon="104.711088"><ele>963.93536</ele><time>2026-01-30T22:42:45.000Z</time></trkpt>
        <trkpt lat="28.395416" lon="104.711136"><ele>947.1896</ele><time>2026-01-30T22:43:13.000Z</time></trkpt>
        <trkpt lat="28.395407" lon="104.711055"><ele>947.0209</ele><time>2026-01-30T22:43:41.000Z</time></trkpt>
        <trkpt lat="28.395348" lon="104.711059"><ele>945.68567</ele><time>2026-01-30T22:43:44.000Z</time></trkpt>
        <trkpt lat="28.39539" lon="104.711025"><ele>945.5647</ele><time>2026-01-30T22:43:50.000Z</time></trkpt>
        <trkpt lat="28.395431" lon="104.711057"><ele>945.8511</ele><time>2026-01-30T22:44:47.000Z</time></trkpt>
        <trkpt lat="28.395437" lon="104.711001"><ele>945.4899</ele><time>2026-01-30T22:44:53.000Z</time></trkpt>
        <trkpt lat="28.395391" lon="104.710992"><ele>946.3708</ele><time>2026-01-30T22:45:01.000Z</time></trkpt>
        <trkpt lat="28.395356" lon="104.711026"><ele>946.4306</ele><time>2026-01-30T22:45:20.000Z</time></trkpt>
        <trkpt lat="28.395302" lon="104.711003"><ele>945.75366</ele><time>2026-01-30T22:45:50.000Z</time></trkpt>
        <trkpt lat="28.395299" lon="104.71106"><ele>945.1804</ele><time>2026-01-30T22:45:54.000Z</time></trkpt>
        <trkpt lat="28.395306" lon="104.711002"><ele>944.59827</ele><time>2026-01-30T22:45:59.000Z</time></trkpt>
        <trkpt lat="28.395282" lon="104.711057"><ele>944.8769</ele><time>2026-01-30T22:46:07.000Z</time></trkpt>
        <trkpt lat="28.395263" lon="104.711112"><ele>944.5615</ele><time>2026-01-30T22:46:37.000Z</time></trkpt>
        <trkpt lat="28.395297" lon="104.711004"><ele>944.80554</ele><time>2026-01-30T22:46:38.000Z</time></trkpt>
        <trkpt lat="28.395265" lon="104.710967"><ele>943.9411</ele><time>2026-01-30T22:46:41.000Z</time></trkpt>
        <trkpt lat="28.39528" lon="104.710912"><ele>940.88617</ele><time>2026-01-30T22:47:00.000Z</time></trkpt>
        <trkpt lat="28.395234" lon="104.710889"><ele>938.1885</ele><time>2026-01-30T22:47:37.000Z</time></trkpt>
        <trkpt lat="28.395245" lon="104.710816"><ele>936.6491</ele><time>2026-01-30T22:47:40.000Z</time></trkpt>
        <trkpt lat="28.395275" lon="104.710771"><ele>935.55835</ele><time>2026-01-30T22:47:42.000Z</time></trkpt>
        <trkpt lat="28.395272" lon="104.710832"><ele>933.32104</ele><time>2026-01-30T22:47:48.000Z</time></trkpt>
        <trkpt lat="28.395257" lon="104.710889"><ele>934.6634</ele><time>2026-01-30T22:47:53.000Z</time></trkpt>
        <trkpt lat="28.39521" lon="104.710884"><ele>934.7509</ele><time>2026-01-30T22:48:10.000Z</time></trkpt>
        <trkpt lat="28.395179" lon="104.710925"><ele>933.4247</ele><time>2026-01-30T22:48:32.000Z</time></trkpt>
        <trkpt lat="28.395158" lon="104.71097"><ele>933.3149</ele><time>2026-01-30T22:48:44.000Z</time></trkpt>
        <trkpt lat="28.395138" lon="104.711024"><ele>933.33563</ele><time>2026-01-30T22:48:58.000Z</time></trkpt>
        <trkpt lat="28.395174" lon="104.711059"><ele>934.7848</ele><time>2026-01-30T22:49:12.000Z</time></trkpt>
        <trkpt lat="28.395136" lon="104.711023"><ele>934.3046</ele><time>2026-01-30T22:49:17.000Z</time></trkpt>
        <trkpt lat="28.395113" lon="104.710973"><ele>933.2265</ele><time>2026-01-30T22:49:20.000Z</time></trkpt>
        <trkpt lat="28.395093" lon="104.710916"><ele>931.1087</ele><time>2026-01-30T22:49:29.000Z</time></trkpt>
        <trkpt lat="28.395041" lon="104.710939"><ele>923.8122</ele><time>2026-01-30T22:50:57.000Z</time></trkpt>
        <trkpt lat="28.395063" lon="104.71089"><ele>923.71204</ele><time>2026-01-30T22:51:06.000Z</time></trkpt>
        <trkpt lat="28.395016" lon="104.710897"><ele>918.3498</ele><time>2026-01-30T22:51:33.000Z</time></trkpt>
        <trkpt lat="28.395047" lon="104.710854"><ele>912.3243</ele><time>2026-01-30T22:52:10.000Z</time></trkpt>
        <trkpt lat="28.395009" lon="104.71082"><ele>917.1711</ele><time>2026-01-30T22:52:23.000Z</time></trkpt>
        <trkpt lat="28.395025" lon="104.710868"><ele>914.09827</ele><time>2026-01-30T22:52:40.000Z</time></trkpt>
        <trkpt lat="28.394993" lon="104.710904"><ele>914.65765</ele><time>2026-01-30T22:55:19.000Z</time></trkpt>
        <trkpt lat="28.394997" lon="104.710816"><ele>916.7934</ele><time>2026-01-30T22:55:32.000Z</time></trkpt>
        <trkpt lat="28.395001" lon="104.710868"><ele>914.30194</ele><time>2026-01-30T22:55:39.000Z</time></trkpt>
        <trkpt lat="28.394956" lon="104.710827"><ele>910.4966</ele><time>2026-01-30T22:55:52.000Z</time></trkpt>
        <trkpt lat="28.394958" lon="104.710879"><ele>915.18945</ele><time>2026-01-30T22:56:18.000Z</time></trkpt>
        <trkpt lat="28.39493" lon="104.710929"><ele>914.95056</ele><time>2026-01-30T22:56:33.000Z</time></trkpt>
        <trkpt lat="28.394912" lon="104.710982"><ele>913.2429</ele><time>2026-01-30T22:56:41.000Z</time></trkpt>
        <trkpt lat="28.394903" lon="104.710923"><ele>912.37537</ele><time>2026-01-30T22:56:58.000Z</time></trkpt>
        <trkpt lat="28.394895" lon="104.710975"><ele>914.0002</ele><time>2026-01-30T22:57:36.000Z</time></trkpt>
        <trkpt lat="28.394865" lon="104.711025"><ele>913.44476</ele><time>2026-01-30T22:57:43.000Z</time></trkpt>
        <trkpt lat="28.394842" lon="104.71107"><ele>912.76227</ele><time>2026-01-30T22:57:48.000Z</time></trkpt>
        <trkpt lat="28.394817" lon="104.711116"><ele>912.6217</ele><time>2026-01-30T22:57:52.000Z</time></trkpt>
        <trkpt lat="28.394797" lon="104.711176"><ele>913.0336</ele><time>2026-01-30T22:57:56.000Z</time></trkpt>
        <trkpt lat="28.394797" lon="104.711232"><ele>913.6415</ele><time>2026-01-30T22:58:00.000Z</time></trkpt>
        <trkpt lat="28.394785" lon="104.711289"><ele>914.5993</ele><time>2026-01-30T22:58:05.000Z</time></trkpt>
        <trkpt lat="28.394753" lon="104.711331"><ele>914.9372</ele><time>2026-01-30T22:58:10.000Z</time></trkpt>
        <trkpt lat="28.394731" lon="104.71139"><ele>914.84436</ele><time>2026-01-30T22:58:21.000Z</time></trkpt>
        <trkpt lat="28.394681" lon="104.711409"><ele>915.14233</ele><time>2026-01-30T22:58:29.000Z</time></trkpt>
        <trkpt lat="28.394635" lon="104.711421"><ele>913.1621</ele><time>2026-01-30T22:58:38.000Z</time></trkpt>
        <trkpt lat="28.394597" lon="104.711453"><ele>913.6871</ele><time>2026-01-30T22:58:46.000Z</time></trkpt>
        <trkpt lat="28.394554" lon="104.711476"><ele>914.13324</ele><time>2026-01-30T22:58:55.000Z</time></trkpt>
        <trkpt lat="28.394517" lon="104.711515"><ele>916.0479</ele><time>2026-01-30T22:59:00.000Z</time></trkpt>
        <trkpt lat="28.394474" lon="104.711498"><ele>916.82166</ele><time>2026-01-30T22:59:05.000Z</time></trkpt>
        <trkpt lat="28.394458" lon="104.711441"><ele>914.66766</ele><time>2026-01-30T22:59:12.000Z</time></trkpt>
        <trkpt lat="28.394444" lon="104.711386"><ele>912.43396</ele><time>2026-01-30T22:59:18.000Z</time></trkpt>
        <trkpt lat="28.39442" lon="104.711339"><ele>911.30365</ele><time>2026-01-30T22:59:24.000Z</time></trkpt>
        <trkpt lat="28.394389" lon="104.711279"><ele>910.20087</ele><time>2026-01-30T22:59:30.000Z</time></trkpt>
        <trkpt lat="28.394347" lon="104.711246"><ele>911.01294</ele><time>2026-01-30T22:59:38.000Z</time></trkpt>
        <trkpt lat="28.394347" lon="104.711189"><ele>911.2855</ele><time>2026-01-30T22:59:44.000Z</time></trkpt>
        <trkpt lat="28.39434" lon="104.711125"><ele>911.17847</ele><time>2026-01-30T22:59:53.000Z</time></trkpt>
        <trkpt lat="28.394311" lon="104.711067"><ele>910.0584</ele><time>2026-01-30T22:59:59.000Z</time></trkpt>
        <trkpt lat="28.394304" lon="104.711014"><ele>909.7375</ele><time>2026-01-30T23:00:08.000Z</time></trkpt>
        <trkpt lat="28.394269" lon="104.71098"><ele>908.28613</ele><time>2026-01-30T23:00:20.000Z</time></trkpt>
        <trkpt lat="28.394217" lon="104.710972"><ele>908.33466</ele><time>2026-01-30T23:00:26.000Z</time></trkpt>
        <trkpt lat="28.394169" lon="104.710953"><ele>910.8815</ele><time>2026-01-30T23:00:31.000Z</time></trkpt>
        <trkpt lat="28.394121" lon="104.710954"><ele>912.96326</ele><time>2026-01-30T23:00:35.000Z</time></trkpt>
        <trkpt lat="28.394071" lon="104.710952"><ele>915.49097</ele><time>2026-01-30T23:00:41.000Z</time></trkpt>
        <trkpt lat="28.394007" lon="104.710951"><ele>917.57477</ele><time>2026-01-30T23:00:46.000Z</time></trkpt>
        <trkpt lat="28.393965" lon="104.710922"><ele>918.82416</ele><time>2026-01-30T23:00:51.000Z</time></trkpt>
        <trkpt lat="28.393922" lon="104.710882"><ele>919.5856</ele><time>2026-01-30T23:00:54.000Z</time></trkpt>
        <trkpt lat="28.393911" lon="104.710816"><ele>919.72015</ele><time>2026-01-30T23:00:59.000Z</time></trkpt>
        <trkpt lat="28.393914" lon="104.710761"><ele>919.8595</ele><time>2026-01-30T23:01:03.000Z</time></trkpt>
        <trkpt lat="28.393917" lon="104.71071"><ele>919.2104</ele><time>2026-01-30T23:01:10.000Z</time></trkpt>
        <trkpt lat="28.393964" lon="104.710724"><ele>918</ele><time>2026-01-30T23:02:23.000Z</time></trkpt>
        <trkpt lat="28.393944" lon="104.71066"><ele>917.9325</ele><time>2026-01-30T23:02:29.000Z</time></trkpt>
        <trkpt lat="28.393923" lon="104.710611"><ele>917.9298</ele><time>2026-01-30T23:02:35.000Z</time></trkpt>
        <trkpt lat="28.393911" lon="104.71055"><ele>917.94324</ele><time>2026-01-30T23:02:41.000Z</time></trkpt>
        <trkpt lat="28.39394" lon="104.710497"><ele>919.46155</ele><time>2026-01-30T23:02:47.000Z</time></trkpt>
        <trkpt lat="28.393973" lon="104.710456"><ele>919.2796</ele><time>2026-01-30T23:02:52.000Z</time></trkpt>
        <trkpt lat="28.394014" lon="104.710413"><ele>919.44824</ele><time>2026-01-30T23:02:57.000Z</time></trkpt>
        <trkpt lat="28.394057" lon="104.710392"><ele>920.1327</ele><time>2026-01-30T23:03:02.000Z</time></trkpt>
        <trkpt lat="28.394105" lon="104.710361"><ele>919.3002</ele><time>2026-01-30T23:03:08.000Z</time></trkpt>
        <trkpt lat="28.394145" lon="104.710316"><ele>916.7828</ele><time>2026-01-30T23:03:14.000Z</time></trkpt>
        <trkpt lat="28.39417" lon="104.710271"><ele>913.8375</ele><time>2026-01-30T23:03:21.000Z</time></trkpt>
        <trkpt lat="28.394178" lon="104.710214"><ele>914.2979</ele><time>2026-01-30T23:03:24.000Z</time></trkpt>
        <trkpt lat="28.394175" lon="104.710149"><ele>914.8488</ele><time>2026-01-30T23:03:29.000Z</time></trkpt>
        <trkpt lat="28.394161" lon="104.710096"><ele>914.7728</ele><time>2026-01-30T23:03:34.000Z</time></trkpt>
        <trkpt lat="28.394167" lon="104.710019"><ele>915.7503</ele><time>2026-01-30T23:03:40.000Z</time></trkpt>
        <trkpt lat="28.394172" lon="104.709968"><ele>916.79315</ele><time>2026-01-30T23:03:44.000Z</time></trkpt>
        <trkpt lat="28.394184" lon="104.709896"><ele>916.2934</ele><time>2026-01-30T23:04:27.000Z</time></trkpt>
        <trkpt lat="28.394198" lon="104.70983"><ele>915.44586</ele><time>2026-01-30T23:04:36.000Z</time></trkpt>
        <trkpt lat="28.394207" lon="104.709779"><ele>915.9738</ele><time>2026-01-30T23:04:41.000Z</time></trkpt>
        <trkpt lat="28.394229" lon="104.709735"><ele>916.2503</ele><time>2026-01-30T23:04:44.000Z</time></trkpt>
        <trkpt lat="28.394239" lon="104.709685"><ele>915.84406</ele><time>2026-01-30T23:04:49.000Z</time></trkpt>
        <trkpt lat="28.394256" lon="104.709634"><ele>914.5096</ele><time>2026-01-30T23:04:57.000Z</time></trkpt>
        <trkpt lat="28.394275" lon="104.709577"><ele>913.8356</ele><time>2026-01-30T23:05:01.000Z</time></trkpt>
        <trkpt lat="28.39429" lon="104.709529"><ele>912.4811</ele><time>2026-01-30T23:05:05.000Z</time></trkpt>
        <trkpt lat="28.394276" lon="104.70947"><ele>911.71204</ele><time>2026-01-30T23:05:11.000Z</time></trkpt>
        <trkpt lat="28.394242" lon="104.709426"><ele>911.824</ele><time>2026-01-30T23:05:16.000Z</time></trkpt>
        <trkpt lat="28.394193" lon="104.709413"><ele>912.8736</ele><time>2026-01-30T23:05:23.000Z</time></trkpt>
        <trkpt lat="28.394148" lon="104.709417"><ele>914.4012</ele><time>2026-01-30T23:05:26.000Z</time></trkpt>
        <trkpt lat="28.394105" lon="104.709397"><ele>914.7735</ele><time>2026-01-30T23:05:30.000Z</time></trkpt>
        <trkpt lat="28.394049" lon="104.709391"><ele>916.1302</ele><time>2026-01-30T23:05:34.000Z</time></trkpt>
        <trkpt lat="28.393995" lon="104.709395"><ele>917.62225</ele><time>2026-01-30T23:05:38.000Z</time></trkpt>
        <trkpt lat="28.393955" lon="104.709366"><ele>919.2951</ele><time>2026-01-30T23:05:46.000Z</time></trkpt>
        <trkpt lat="28.393901" lon="104.709351"><ele>919.64</ele><time>2026-01-30T23:05:51.000Z</time></trkpt>
        <trkpt lat="28.393856" lon="104.709318"><ele>919.99194</ele><time>2026-01-30T23:05:57.000Z</time></trkpt>
        <trkpt lat="28.393845" lon="104.709254"><ele>920.9039</ele><time>2026-01-30T23:06:03.000Z</time></trkpt>
        <trkpt lat="28.393829" lon="104.709207"><ele>919.6605</ele><time>2026-01-30T23:06:09.000Z</time></trkpt>
        <trkpt lat="28.393853" lon="104.709125"><ele>920.669</ele><time>2026-01-30T23:06:14.000Z</time></trkpt>
        <trkpt lat="28.393821" lon="104.709085"><ele>919.9698</ele><time>2026-01-30T23:06:22.000Z</time></trkpt>
        <trkpt lat="28.393839" lon="104.709033"><ele>921.4517</ele><time>2026-01-30T23:06:57.000Z</time></trkpt>
        <trkpt lat="28.393833" lon="104.70898"><ele>921.83276</ele><time>2026-01-30T23:07:02.000Z</time></trkpt>
        <trkpt lat="28.393862" lon="104.708936"><ele>922.7318</ele><time>2026-01-30T23:07:07.000Z</time></trkpt>
        <trkpt lat="28.393868" lon="104.708877"><ele>922.75916</ele><time>2026-01-30T23:07:14.000Z</time></trkpt>
        <trkpt lat="28.393908" lon="104.70884"><ele>921.2548</ele><time>2026-01-30T23:07:21.000Z</time></trkpt>
        <trkpt lat="28.393927" lon="104.708794"><ele>921.5622</ele><time>2026-01-30T23:07:26.000Z</time></trkpt>
        <trkpt lat="28.393962" lon="104.708752"><ele>920.8665</ele><time>2026-01-30T23:07:31.000Z</time></trkpt>
        <trkpt lat="28.394011" lon="104.708729"><ele>920.76605</ele><time>2026-01-30T23:07:41.000Z</time></trkpt>
        <trkpt lat="28.394048" lon="104.708679"><ele>918.7127</ele><time>2026-01-30T23:08:06.000Z</time></trkpt>
        <trkpt lat="28.394089" lon="104.708649"><ele>918.1549</ele><time>2026-01-30T23:08:12.000Z</time></trkpt>
        <trkpt lat="28.394117" lon="104.708596"><ele>917.76306</ele><time>2026-01-30T23:08:18.000Z</time></trkpt>
        <trkpt lat="28.394141" lon="104.708533"><ele>918.1036</ele><time>2026-01-30T23:08:23.000Z</time></trkpt>
        <trkpt lat="28.394162" lon="104.708483"><ele>918.14343</ele><time>2026-01-30T23:08:33.000Z</time></trkpt>
        <trkpt lat="28.394149" lon="104.708431"><ele>918.994</ele><time>2026-01-30T23:08:40.000Z</time></trkpt>
        <trkpt lat="28.394145" lon="104.708372"><ele>921.0578</ele><time>2026-01-30T23:08:48.000Z</time></trkpt>
        <trkpt lat="28.394166" lon="104.708326"><ele>922.465</ele><time>2026-01-30T23:08:53.000Z</time></trkpt>
        <trkpt lat="28.394187" lon="104.70828"><ele>923.6847</ele><time>2026-01-30T23:08:59.000Z</time></trkpt>
        <trkpt lat="28.394219" lon="104.708232"><ele>923.3783</ele><time>2026-01-30T23:09:05.000Z</time></trkpt>
        <trkpt lat="28.394267" lon="104.708211"><ele>923.175</ele><time>2026-01-30T23:09:11.000Z</time></trkpt>
        <trkpt lat="28.394312" lon="104.708192"><ele>922.09467</ele><time>2026-01-30T23:09:15.000Z</time></trkpt>
        <trkpt lat="28.394349" lon="104.708162"><ele>921.6325</ele><time>2026-01-30T23:09:20.000Z</time></trkpt>
        <trkpt lat="28.394394" lon="104.708139"><ele>921.2723</ele><time>2026-01-30T23:09:25.000Z</time></trkpt>
        <trkpt lat="28.394446" lon="104.708105"><ele>919.93085</ele><time>2026-01-30T23:09:31.000Z</time></trkpt>
        <trkpt lat="28.394478" lon="104.708061"><ele>919.3255</ele><time>2026-01-30T23:09:36.000Z</time></trkpt>
        <trkpt lat="28.394498" lon="104.708011"><ele>918.9396</ele><time>2026-01-30T23:09:42.000Z</time></trkpt>
        <trkpt lat="28.394471" lon="104.70797"><ele>918.3863</ele><time>2026-01-30T23:10:05.000Z</time></trkpt>
        <trkpt lat="28.394431" lon="104.70793"><ele>918.6244</ele><time>2026-01-30T23:10:11.000Z</time></trkpt>
        <trkpt lat="28.394378" lon="104.70791"><ele>918.862</ele><time>2026-01-30T23:10:17.000Z</time></trkpt>
        <trkpt lat="28.394326" lon="104.707909"><ele>920.3453</ele><time>2026-01-30T23:10:22.000Z</time></trkpt>
        <trkpt lat="28.394278" lon="104.707909"><ele>919.9381</ele><time>2026-01-30T23:10:27.000Z</time></trkpt>
        <trkpt lat="28.394222" lon="104.707923"><ele>920.7642</ele><time>2026-01-30T23:10:32.000Z</time></trkpt>
        <trkpt lat="28.394184" lon="104.707964"><ele>921.944</ele><time>2026-01-30T23:10:41.000Z</time></trkpt>
        <trkpt lat="28.394144" lon="104.70799"><ele>921.85956</ele><time>2026-01-30T23:10:46.000Z</time></trkpt>
        <trkpt lat="28.394101" lon="104.707971"><ele>923.47614</ele><time>2026-01-30T23:11:00.000Z</time></trkpt>
        <trkpt lat="28.394076" lon="104.708018"><ele>922.91254</ele><time>2026-01-30T23:11:12.000Z</time></trkpt>
        <trkpt lat="28.394045" lon="104.708061"><ele>922.73895</ele><time>2026-01-30T23:11:16.000Z</time></trkpt>
        <trkpt lat="28.394011" lon="104.708102"><ele>923.5342</ele><time>2026-01-30T23:11:22.000Z</time></trkpt>
        <trkpt lat="28.393974" lon="104.70814"><ele>923.4402</ele><time>2026-01-30T23:11:26.000Z</time></trkpt>
        <trkpt lat="28.393925" lon="104.708177"><ele>923.66473</ele><time>2026-01-30T23:11:31.000Z</time></trkpt>
        <trkpt lat="28.393881" lon="104.708202"><ele>924.29553</ele><time>2026-01-30T23:11:34.000Z</time></trkpt>
        <trkpt lat="28.393841" lon="104.708236"><ele>924.6761</ele><time>2026-01-30T23:11:41.000Z</time></trkpt>
        <trkpt lat="28.393795" lon="104.708246"><ele>925.0066</ele><time>2026-01-30T23:11:46.000Z</time></trkpt>
        <trkpt lat="28.39375" lon="104.708259"><ele>925.2052</ele><time>2026-01-30T23:11:51.000Z</time></trkpt>
        <trkpt lat="28.393705" lon="104.708266"><ele>925.60175</ele><time>2026-01-30T23:11:55.000Z</time></trkpt>
        <trkpt lat="28.393661" lon="104.708247"><ele>925.90717</ele><time>2026-01-30T23:12:00.000Z</time></trkpt>
        <trkpt lat="28.393615" lon="104.70823"><ele>925.9396</ele><time>2026-01-30T23:12:05.000Z</time></trkpt>
        <trkpt lat="28.393572" lon="104.708204"><ele>925.3389</ele><time>2026-01-30T23:12:09.000Z</time></trkpt>
        <trkpt lat="28.393558" lon="104.708154"><ele>924.4069</ele><time>2026-01-30T23:12:16.000Z</time></trkpt>
        <trkpt lat="28.39354" lon="104.708103"><ele>924.38727</ele><time>2026-01-30T23:12:28.000Z</time></trkpt>
        <trkpt lat="28.393494" lon="104.708073"><ele>918.46674</ele><time>2026-01-30T23:12:50.000Z</time></trkpt>
        <trkpt lat="28.393464" lon="104.708032"><ele>916.3957</ele><time>2026-01-30T23:12:56.000Z</time></trkpt>
        <trkpt lat="28.393425" lon="104.707987"><ele>916.20795</ele><time>2026-01-30T23:13:01.000Z</time></trkpt>
        <trkpt lat="28.393393" lon="104.707948"><ele>914.0557</ele><time>2026-01-30T23:13:05.000Z</time></trkpt>
        <trkpt lat="28.393361" lon="104.7079"><ele>912.2896</ele><time>2026-01-30T23:13:09.000Z</time></trkpt>
        <trkpt lat="28.393315" lon="104.707877"><ele>910.7326</ele><time>2026-01-30T23:13:14.000Z</time></trkpt>
        <trkpt lat="28.393284" lon="104.707839"><ele>909.44934</ele><time>2026-01-30T23:13:19.000Z</time></trkpt>
        <trkpt lat="28.39323" lon="104.707823"><ele>909.02844</ele><time>2026-01-30T23:13:24.000Z</time></trkpt>
        <trkpt lat="28.393179" lon="104.707811"><ele>906.2593</ele><time>2026-01-30T23:13:29.000Z</time></trkpt>
        <trkpt lat="28.393124" lon="104.70781"><ele>906.7882</ele><time>2026-01-30T23:13:34.000Z</time></trkpt>
        <trkpt lat="28.393084" lon="104.707848"><ele>907.0461</ele><time>2026-01-30T23:13:38.000Z</time></trkpt>
        <trkpt lat="28.393058" lon="104.707892"><ele>907.5053</ele><time>2026-01-30T23:13:42.000Z</time></trkpt>
        <trkpt lat="28.393025" lon="104.707933"><ele>907.0905</ele><time>2026-01-30T23:13:48.000Z</time></trkpt>
        <trkpt lat="28.392998" lon="104.707986"><ele>906.87</ele><time>2026-01-30T23:13:52.000Z</time></trkpt>
        <trkpt lat="28.392972" lon="104.708039"><ele>907.0868</ele><time>2026-01-30T23:13:57.000Z</time></trkpt>
        <trkpt lat="28.392934" lon="104.708079"><ele>905.9575</ele><time>2026-01-30T23:14:03.000Z</time></trkpt>
        <trkpt lat="28.392906" lon="104.708122"><ele>905.6497</ele><time>2026-01-30T23:14:06.000Z</time></trkpt>
        <trkpt lat="28.392893" lon="104.708178"><ele>903.8596</ele><time>2026-01-30T23:14:13.000Z</time></trkpt>
        <trkpt lat="28.392886" lon="104.708237"><ele>903.6173</ele><time>2026-01-30T23:14:18.000Z</time></trkpt>
        <trkpt lat="28.392891" lon="104.70829"><ele>902.8797</ele><time>2026-01-30T23:14:22.000Z</time></trkpt>
        <trkpt lat="28.392895" lon="104.708345"><ele>902.92993</ele><time>2026-01-30T23:14:26.000Z</time></trkpt>
        <trkpt lat="28.392894" lon="104.708402"><ele>903.73816</ele><time>2026-01-30T23:14:30.000Z</time></trkpt>
        <trkpt lat="28.392906" lon="104.708452"><ele>903.03876</ele><time>2026-01-30T23:14:35.000Z</time></trkpt>
        <trkpt lat="28.392924" lon="104.7085"><ele>903.90594</ele><time>2026-01-30T23:14:41.000Z</time></trkpt>
        <trkpt lat="28.392921" lon="104.708559"><ele>903.9492</ele><time>2026-01-30T23:14:46.000Z</time></trkpt>
        <trkpt lat="28.392915" lon="104.708611"><ele>903.84924</ele><time>2026-01-30T23:14:52.000Z</time></trkpt>
        <trkpt lat="28.392924" lon="104.708669"><ele>904.2611</ele><time>2026-01-30T23:14:57.000Z</time></trkpt>
        <trkpt lat="28.392934" lon="104.708731"><ele>903.41986</ele><time>2026-01-30T23:15:02.000Z</time></trkpt>
        <trkpt lat="28.392921" lon="104.70878"><ele>904.38635</ele><time>2026-01-30T23:15:07.000Z</time></trkpt>
        <trkpt lat="28.392909" lon="104.70883"><ele>903.68866</ele><time>2026-01-30T23:15:11.000Z</time></trkpt>
        <trkpt lat="28.3929" lon="104.708893"><ele>902.841</ele><time>2026-01-30T23:15:17.000Z</time></trkpt>
        <trkpt lat="28.392882" lon="104.708956"><ele>902.2246</ele><time>2026-01-30T23:15:23.000Z</time></trkpt>
        <trkpt lat="28.392884" lon="104.709012"><ele>902.4697</ele><time>2026-01-30T23:15:28.000Z</time></trkpt>
        <trkpt lat="28.392838" lon="104.709053"><ele>902.9232</ele><time>2026-01-30T23:15:32.000Z</time></trkpt>
        <trkpt lat="28.392779" lon="104.70906"><ele>902.47626</ele><time>2026-01-30T23:15:36.000Z</time></trkpt>
        <trkpt lat="28.392727" lon="104.709047"><ele>901.36786</ele><time>2026-01-30T23:15:41.000Z</time></trkpt>
        <trkpt lat="28.39268" lon="104.709017"><ele>900.76416</ele><time>2026-01-30T23:15:46.000Z</time></trkpt>
        <trkpt lat="28.392623" lon="104.708996"><ele>900.3792</ele><time>2026-01-30T23:15:51.000Z</time></trkpt>
        <trkpt lat="28.392574" lon="104.708984"><ele>899.3657</ele><time>2026-01-30T23:15:56.000Z</time></trkpt>
        <trkpt lat="28.392527" lon="104.708928"><ele>898.5295</ele><time>2026-01-30T23:16:04.000Z</time></trkpt>
        <trkpt lat="28.392481" lon="104.708925"><ele>896.8621</ele><time>2026-01-30T23:16:10.000Z</time></trkpt>
        <trkpt lat="28.392435" lon="104.708896"><ele>896.482</ele><time>2026-01-30T23:16:15.000Z</time></trkpt>
        <trkpt lat="28.392391" lon="104.708884"><ele>896.5181</ele><time>2026-01-30T23:16:19.000Z</time></trkpt>
        <trkpt lat="28.392372" lon="104.708835"><ele>897.0687</ele><time>2026-01-30T23:16:25.000Z</time></trkpt>
        <trkpt lat="28.392326" lon="104.708809"><ele>896.5118</ele><time>2026-01-30T23:16:29.000Z</time></trkpt>
        <trkpt lat="28.392294" lon="104.708757"><ele>893.83746</ele><time>2026-01-30T23:16:34.000Z</time></trkpt>
        <trkpt lat="28.392253" lon="104.70873"><ele>892.62427</ele><time>2026-01-30T23:16:38.000Z</time></trkpt>
        <trkpt lat="28.392204" lon="104.708706"><ele>891.9565</ele><time>2026-01-30T23:16:43.000Z</time></trkpt>
        <trkpt lat="28.392156" lon="104.708691"><ele>892.41766</ele><time>2026-01-30T23:16:47.000Z</time></trkpt>
        <trkpt lat="28.392126" lon="104.708653"><ele>891.8632</ele><time>2026-01-30T23:16:51.000Z</time></trkpt>
        <trkpt lat="28.39208" lon="104.708626"><ele>892.6813</ele><time>2026-01-30T23:16:57.000Z</time></trkpt>
        <trkpt lat="28.392024" lon="104.708628"><ele>892.2642</ele><time>2026-01-30T23:17:02.000Z</time></trkpt>
        <trkpt lat="28.391978" lon="104.708618"><ele>893.7185</ele><time>2026-01-30T23:17:07.000Z</time></trkpt>
        <trkpt lat="28.391931" lon="104.708615"><ele>896.32733</ele><time>2026-01-30T23:17:12.000Z</time></trkpt>
        <trkpt lat="28.39188" lon="104.708592"><ele>899.4189</ele><time>2026-01-30T23:17:18.000Z</time></trkpt>
        <trkpt lat="28.391848" lon="104.708549"><ele>898.68994</ele><time>2026-01-30T23:17:22.000Z</time></trkpt>
        <trkpt lat="28.39184" lon="104.708493"><ele>897.4013</ele><time>2026-01-30T23:17:29.000Z</time></trkpt>
        <trkpt lat="28.39185" lon="104.708437"><ele>894.7951</ele><time>2026-01-30T23:17:33.000Z</time></trkpt>
        <trkpt lat="28.391847" lon="104.708384"><ele>891.02106</ele><time>2026-01-30T23:17:38.000Z</time></trkpt>
        <trkpt lat="28.391873" lon="104.708332"><ele>886.89795</ele><time>2026-01-30T23:17:44.000Z</time></trkpt>
        <trkpt lat="28.39189" lon="104.708272"><ele>885.814</ele><time>2026-01-30T23:17:49.000Z</time></trkpt>
        <trkpt lat="28.391896" lon="104.708213"><ele>882.9328</ele><time>2026-01-30T23:17:54.000Z</time></trkpt>
        <trkpt lat="28.391894" lon="104.708156"><ele>880.67004</ele><time>2026-01-30T23:17:59.000Z</time></trkpt>
        <trkpt lat="28.391906" lon="104.708106"><ele>879.9945</ele><time>2026-01-30T23:18:02.000Z</time></trkpt>
        <trkpt lat="28.391895" lon="104.708057"><ele>877.24854</ele><time>2026-01-30T23:18:08.000Z</time></trkpt>
        <trkpt lat="28.391881" lon="104.708007"><ele>875.3651</ele><time>2026-01-30T23:18:14.000Z</time></trkpt>
        <trkpt lat="28.391889" lon="104.707955"><ele>874.36615</ele><time>2026-01-30T23:18:18.000Z</time></trkpt>
        <trkpt lat="28.391853" lon="104.707921"><ele>874.2493</ele><time>2026-01-30T23:19:09.000Z</time></trkpt>
        <trkpt lat="28.391823" lon="104.707877"><ele>872.2734</ele><time>2026-01-30T23:19:15.000Z</time></trkpt>
        <trkpt lat="28.391786" lon="104.707847"><ele>872.438</ele><time>2026-01-30T23:19:20.000Z</time></trkpt>
        <trkpt lat="28.391741" lon="104.70783"><ele>871.8022</ele><time>2026-01-30T23:19:25.000Z</time></trkpt>
        <trkpt lat="28.39169" lon="104.707826"><ele>872.2835</ele><time>2026-01-30T23:19:30.000Z</time></trkpt>
        <trkpt lat="28.391646" lon="104.707807"><ele>873.38837</ele><time>2026-01-30T23:19:36.000Z</time></trkpt>
        <trkpt lat="28.39159" lon="104.707809"><ele>875.0746</ele><time>2026-01-30T23:19:44.000Z</time></trkpt>
        <trkpt lat="28.391548" lon="104.707783"><ele>876.19775</ele><time>2026-01-30T23:19:49.000Z</time></trkpt>
        <trkpt lat="28.391496" lon="104.707758"><ele>876.50073</ele><time>2026-01-30T23:19:55.000Z</time></trkpt>
        <trkpt lat="28.391502" lon="104.707688"><ele>877.0283</ele><time>2026-01-30T23:20:00.000Z</time></trkpt>
        <trkpt lat="28.391525" lon="104.707639"><ele>874.9373</ele><time>2026-01-30T23:20:07.000Z</time></trkpt>
        <trkpt lat="28.391544" lon="104.707589"><ele>874.37006</ele><time>2026-01-30T23:20:11.000Z</time></trkpt>
        <trkpt lat="28.391576" lon="104.70755"><ele>872.29364</ele><time>2026-01-30T23:20:17.000Z</time></trkpt>
        <trkpt lat="28.391594" lon="104.707495"><ele>871.0222</ele><time>2026-01-30T23:20:25.000Z</time></trkpt>
        <trkpt lat="28.391601" lon="104.707441"><ele>868.29974</ele><time>2026-01-30T23:20:31.000Z</time></trkpt>
        <trkpt lat="28.391623" lon="104.707373"><ele>866.38617</ele><time>2026-01-30T23:20:38.000Z</time></trkpt>
        <trkpt lat="28.391613" lon="104.707322"><ele>863.8942</ele><time>2026-01-30T23:20:43.000Z</time></trkpt>
        <trkpt lat="28.39161" lon="104.707265"><ele>862.5041</ele><time>2026-01-30T23:20:48.000Z</time></trkpt>
        <trkpt lat="28.391566" lon="104.707237"><ele>862.3168</ele><time>2026-01-30T23:20:53.000Z</time></trkpt>
        <trkpt lat="28.39152" lon="104.707212"><ele>862.5521</ele><time>2026-01-30T23:20:57.000Z</time></trkpt>
        <trkpt lat="28.391472" lon="104.707208"><ele>864.8164</ele><time>2026-01-30T23:21:03.000Z</time></trkpt>
        <trkpt lat="28.391418" lon="104.707202"><ele>865.3887</ele><time>2026-01-30T23:21:11.000Z</time></trkpt>
        <trkpt lat="28.391389" lon="104.707162"><ele>868.5602</ele><time>2026-01-30T23:21:17.000Z</time></trkpt>
        <trkpt lat="28.391368" lon="104.707116"><ele>870.0132</ele><time>2026-01-30T23:21:41.000Z</time></trkpt>
        <trkpt lat="28.391369" lon="104.707058"><ele>869.6679</ele><time>2026-01-30T23:21:52.000Z</time></trkpt>
        <trkpt lat="28.391411" lon="104.707017"><ele>868.18195</ele><time>2026-01-30T23:21:57.000Z</time></trkpt>
        <trkpt lat="28.391447" lon="104.706984"><ele>864.85583</ele><time>2026-01-30T23:22:09.000Z</time></trkpt>
        <trkpt lat="28.391485" lon="104.706948"><ele>863.274</ele><time>2026-01-30T23:22:17.000Z</time></trkpt>
        <trkpt lat="28.391518" lon="104.706901"><ele>861.28174</ele><time>2026-01-30T23:22:22.000Z</time></trkpt>
        <trkpt lat="28.391539" lon="104.706852"><ele>857.90094</ele><time>2026-01-30T23:22:32.000Z</time></trkpt>
        <trkpt lat="28.391576" lon="104.706816"><ele>856.79877</ele><time>2026-01-30T23:22:38.000Z</time></trkpt>
        <trkpt lat="28.391596" lon="104.706763"><ele>854.92664</ele><time>2026-01-30T23:22:46.000Z</time></trkpt>
        <trkpt lat="28.391631" lon="104.706726"><ele>853.23755</ele><time>2026-01-30T23:22:52.000Z</time></trkpt>
        <trkpt lat="28.391665" lon="104.706683"><ele>853.10114</ele><time>2026-01-30T23:22:58.000Z</time></trkpt>
        <trkpt lat="28.391668" lon="104.706626"><ele>851.5038</ele><time>2026-01-30T23:23:04.000Z</time></trkpt>
        <trkpt lat="28.391689" lon="104.706563"><ele>848.6239</ele><time>2026-01-30T23:23:28.000Z</time></trkpt>
        <trkpt lat="28.391691" lon="104.706496"><ele>847.803</ele><time>2026-01-30T23:23:33.000Z</time></trkpt>
        <trkpt lat="28.391715" lon="104.706443"><ele>847.2106</ele><time>2026-01-30T23:23:45.000Z</time></trkpt>
        <trkpt lat="28.391708" lon="104.70639"><ele>845.0291</ele><time>2026-01-30T23:23:49.000Z</time></trkpt>
        <trkpt lat="28.391677" lon="104.706341"><ele>845.47864</ele><time>2026-01-30T23:23:53.000Z</time></trkpt>
        <trkpt lat="28.391643" lon="104.706304"><ele>845.3772</ele><time>2026-01-30T23:23:57.000Z</time></trkpt>
        <trkpt lat="28.391597" lon="104.706288"><ele>846.33057</ele><time>2026-01-30T23:24:01.000Z</time></trkpt>
        <trkpt lat="28.391556" lon="104.706311"><ele>846.87067</ele><time>2026-01-30T23:24:12.000Z</time></trkpt>
        <trkpt lat="28.391503" lon="104.706304"><ele>847.5144</ele><time>2026-01-30T23:24:16.000Z</time></trkpt>
        <trkpt lat="28.391451" lon="104.706315"><ele>850.26056</ele><time>2026-01-30T23:24:23.000Z</time></trkpt>
        <trkpt lat="28.391397" lon="104.706317"><ele>851.8832</ele><time>2026-01-30T23:24:31.000Z</time></trkpt>
        <trkpt lat="28.391353" lon="104.70629"><ele>853.0172</ele><time>2026-01-30T23:24:37.000Z</time></trkpt>
        <trkpt lat="28.391307" lon="104.706272"><ele>854.248</ele><time>2026-01-30T23:24:41.000Z</time></trkpt>
        <trkpt lat="28.391259" lon="104.706266"><ele>855.83246</ele><time>2026-01-30T23:24:46.000Z</time></trkpt>
        <trkpt lat="28.391211" lon="104.706245"><ele>857.9459</ele><time>2026-01-30T23:24:51.000Z</time></trkpt>
        <trkpt lat="28.391157" lon="104.70626"><ele>859.6341</ele><time>2026-01-30T23:24:56.000Z</time></trkpt>
        <trkpt lat="28.391111" lon="104.706258"><ele>862.6087</ele><time>2026-01-30T23:25:05.000Z</time></trkpt>
        <trkpt lat="28.391058" lon="104.706274"><ele>865.00397</ele><time>2026-01-30T23:25:13.000Z</time></trkpt>
        <trkpt lat="28.391002" lon="104.706266"><ele>867.2563</ele><time>2026-01-30T23:25:22.000Z</time></trkpt>
        <trkpt lat="28.390968" lon="104.706226"><ele>869.0725</ele><time>2026-01-30T23:25:27.000Z</time></trkpt>
        <trkpt lat="28.390939" lon="104.706181"><ele>871.0814</ele><time>2026-01-30T23:25:35.000Z</time></trkpt>
        <trkpt lat="28.39094" lon="104.706129"><ele>871.16974</ele><time>2026-01-30T23:25:39.000Z</time></trkpt>
        <trkpt lat="28.390926" lon="104.706077"><ele>871.5842</ele><time>2026-01-30T23:25:48.000Z</time></trkpt>
        <trkpt lat="28.390964" lon="104.706036"><ele>870.30615</ele><time>2026-01-30T23:25:53.000Z</time></trkpt>
        <trkpt lat="28.391003" lon="104.705988"><ele>868.5749</ele><time>2026-01-30T23:25:58.000Z</time></trkpt>
        <trkpt lat="28.391047" lon="104.705965"><ele>865.87036</ele><time>2026-01-30T23:26:11.000Z</time></trkpt>
        <trkpt lat="28.391068" lon="104.705918"><ele>866.0327</ele><time>2026-01-30T23:26:17.000Z</time></trkpt>
        <trkpt lat="28.391078" lon="104.705862"><ele>866.1733</ele><time>2026-01-30T23:26:23.000Z</time></trkpt>
        <trkpt lat="28.391099" lon="104.705812"><ele>866.25024</ele><time>2026-01-30T23:26:29.000Z</time></trkpt>
        <trkpt lat="28.391135" lon="104.705779"><ele>865.6113</ele><time>2026-01-30T23:26:38.000Z</time></trkpt>
        <trkpt lat="28.391168" lon="104.705745"><ele>865.4817</ele><time>2026-01-30T23:26:42.000Z</time></trkpt>
        <trkpt lat="28.391208" lon="104.705706"><ele>863.8624</ele><time>2026-01-30T23:26:48.000Z</time></trkpt>
        <trkpt lat="28.391256" lon="104.705692"><ele>861.2394</ele><time>2026-01-30T23:26:57.000Z</time></trkpt>
        <trkpt lat="28.391301" lon="104.705668"><ele>859.491</ele><time>2026-01-30T23:27:05.000Z</time></trkpt>
        <trkpt lat="28.391351" lon="104.705648"><ele>858.88403</ele><time>2026-01-30T23:27:12.000Z</time></trkpt>
        <trkpt lat="28.39139" lon="104.70562"><ele>857.2873</ele><time>2026-01-30T23:27:18.000Z</time></trkpt>
        <trkpt lat="28.391423" lon="104.705581"><ele>855.7855</ele><time>2026-01-30T23:27:27.000Z</time></trkpt>
        <trkpt lat="28.391473" lon="104.705554"><ele>855.5419</ele><time>2026-01-30T23:27:32.000Z</time></trkpt>
        <trkpt lat="28.391519" lon="104.705533"><ele>854.758</ele><time>2026-01-30T23:27:38.000Z</time></trkpt>
        <trkpt lat="28.391569" lon="104.705509"><ele>854.40857</ele><time>2026-01-30T23:27:42.000Z</time></trkpt>
        <trkpt lat="28.391617" lon="104.705525"><ele>853.87024</ele><time>2026-01-30T23:27:48.000Z</time></trkpt>
        <trkpt lat="28.391666" lon="104.70554"><ele>853.2925</ele><time>2026-01-30T23:27:53.000Z</time></trkpt>
        <trkpt lat="28.391712" lon="104.705548"><ele>852.8055</ele><time>2026-01-30T23:27:59.000Z</time></trkpt>
        <trkpt lat="28.391751" lon="104.705519"><ele>850.84595</ele><time>2026-01-30T23:28:36.000Z</time></trkpt>
        <trkpt lat="28.391798" lon="104.705529"><ele>849.55225</ele><time>2026-01-30T23:28:56.000Z</time></trkpt>
        <trkpt lat="28.391846" lon="104.705532"><ele>850.0781</ele><time>2026-01-30T23:29:12.000Z</time></trkpt>
        <trkpt lat="28.391885" lon="104.705497"><ele>848.4249</ele><time>2026-01-30T23:29:18.000Z</time></trkpt>
        <trkpt lat="28.391929" lon="104.705475"><ele>846.9315</ele><time>2026-01-30T23:29:26.000Z</time></trkpt>
        <trkpt lat="28.391957" lon="104.705432"><ele>845.90857</ele><time>2026-01-30T23:29:35.000Z</time></trkpt>
        <trkpt lat="28.391973" lon="104.705375"><ele>844.68164</ele><time>2026-01-30T23:29:44.000Z</time></trkpt>
        <trkpt lat="28.391998" lon="104.705327"><ele>844.7251</ele><time>2026-01-30T23:29:51.000Z</time></trkpt>
        <trkpt lat="28.392033" lon="104.705292"><ele>845.0314</ele><time>2026-01-30T23:30:00.000Z</time></trkpt>
        <trkpt lat="28.392004" lon="104.705252"><ele>845.0494</ele><time>2026-01-30T23:30:08.000Z</time></trkpt>
        <trkpt lat="28.392027" lon="104.705206"><ele>844.52405</ele><time>2026-01-30T23:30:18.000Z</time></trkpt>
        <trkpt lat="28.392008" lon="104.705155"><ele>843.4683</ele><time>2026-01-30T23:30:27.000Z</time></trkpt>
        <trkpt lat="28.39196" lon="104.705149"><ele>843.1828</ele><time>2026-01-30T23:30:39.000Z</time></trkpt>
        <trkpt lat="28.391907" lon="104.705138"><ele>844.0442</ele><time>2026-01-30T23:30:44.000Z</time></trkpt>
        <trkpt lat="28.391858" lon="104.70512"><ele>844.10254</ele><time>2026-01-30T23:30:51.000Z</time></trkpt>
        <trkpt lat="28.391812" lon="104.705115"><ele>844.29114</ele><time>2026-01-30T23:30:58.000Z</time></trkpt>
        <trkpt lat="28.391765" lon="104.705116"><ele>844.8991</ele><time>2026-01-30T23:31:06.000Z</time></trkpt>
        <trkpt lat="28.391718" lon="104.705105"><ele>844.8382</ele><time>2026-01-30T23:31:12.000Z</time></trkpt>
        <trkpt lat="28.391684" lon="104.70507"><ele>845.3072</ele><time>2026-01-30T23:31:17.000Z</time></trkpt>
        <trkpt lat="28.39164" lon="104.705048"><ele>846.40955</ele><time>2026-01-30T23:31:25.000Z</time></trkpt>
        <trkpt lat="28.391597" lon="104.705026"><ele>846.437</ele><time>2026-01-30T23:31:38.000Z</time></trkpt>
        <trkpt lat="28.391552" lon="104.704992"><ele>846.34875</ele><time>2026-01-30T23:31:43.000Z</time></trkpt>
        <trkpt lat="28.391503" lon="104.704985"><ele>847.6377</ele><time>2026-01-30T23:31:56.000Z</time></trkpt>
        <trkpt lat="28.391456" lon="104.704962"><ele>847.5971</ele><time>2026-01-30T23:32:03.000Z</time></trkpt>
        <trkpt lat="28.391414" lon="104.704927"><ele>847.364</ele><time>2026-01-30T23:32:08.000Z</time></trkpt>
        <trkpt lat="28.391375" lon="104.704888"><ele>846.24054</ele><time>2026-01-30T23:32:14.000Z</time></trkpt>
        <trkpt lat="28.391325" lon="104.704882"><ele>845.9919</ele><time>2026-01-30T23:32:19.000Z</time></trkpt>
        <trkpt lat="28.391276" lon="104.704869"><ele>846.9364</ele><time>2026-01-30T23:32:24.000Z</time></trkpt>
        <trkpt lat="28.39124" lon="104.704837"><ele>847.10443</ele><time>2026-01-30T23:32:28.000Z</time></trkpt>
        <trkpt lat="28.391196" lon="104.704811"><ele>847.4368</ele><time>2026-01-30T23:32:32.000Z</time></trkpt>
        <trkpt lat="28.391148" lon="104.704801"><ele>848.6388</ele><time>2026-01-30T23:32:37.000Z</time></trkpt>
        <trkpt lat="28.391104" lon="104.704784"><ele>848.88934</ele><time>2026-01-30T23:32:42.000Z</time></trkpt>
        <trkpt lat="28.39106" lon="104.704771"><ele>849.61884</ele><time>2026-01-30T23:32:46.000Z</time></trkpt>
        <trkpt lat="28.391023" lon="104.704735"><ele>850.0247</ele><time>2026-01-30T23:32:51.000Z</time></trkpt>
        <trkpt lat="28.39098" lon="104.704711"><ele>849.91064</ele><time>2026-01-30T23:32:56.000Z</time></trkpt>
        <trkpt lat="28.390944" lon="104.70467"><ele>850.2884</ele><time>2026-01-30T23:33:01.000Z</time></trkpt>
        <trkpt lat="28.390912" lon="104.704631"><ele>848.94904</ele><time>2026-01-30T23:33:06.000Z</time></trkpt>
        <trkpt lat="28.390863" lon="104.704615"><ele>848.1401</ele><time>2026-01-30T23:33:14.000Z</time></trkpt>
        <trkpt lat="28.390816" lon="104.7046"><ele>848.50885</ele><time>2026-01-30T23:33:19.000Z</time></trkpt>
        <trkpt lat="28.390772" lon="104.704569"><ele>848.27686</ele><time>2026-01-30T23:33:24.000Z</time></trkpt>
        <trkpt lat="28.390728" lon="104.70454"><ele>848.51276</ele><time>2026-01-30T23:33:29.000Z</time></trkpt>
        <trkpt lat="28.39069" lon="104.704506"><ele>848.2916</ele><time>2026-01-30T23:33:34.000Z</time></trkpt>
        <trkpt lat="28.390654" lon="104.704475"><ele>848.12756</ele><time>2026-01-30T23:33:39.000Z</time></trkpt>
        <trkpt lat="28.390621" lon="104.70442"><ele>848.56165</ele><time>2026-01-30T23:33:45.000Z</time></trkpt>
        <trkpt lat="28.390599" lon="104.704374"><ele>847.8552</ele><time>2026-01-30T23:33:50.000Z</time></trkpt>
        <trkpt lat="28.390583" lon="104.704322"><ele>846.839</ele><time>2026-01-30T23:33:55.000Z</time></trkpt>
        <trkpt lat="28.390573" lon="104.704272"><ele>846.81384</ele><time>2026-01-30T23:33:59.000Z</time></trkpt>
        <trkpt lat="28.390562" lon="104.704213"><ele>844.28656</ele><time>2026-01-30T23:34:06.000Z</time></trkpt>
        <trkpt lat="28.390525" lon="104.704167"><ele>842.99677</ele><time>2026-01-30T23:34:12.000Z</time></trkpt>
        <trkpt lat="28.390495" lon="104.704112"><ele>839.585</ele><time>2026-01-30T23:34:18.000Z</time></trkpt>
        <trkpt lat="28.390452" lon="104.704082"><ele>839.6763</ele><time>2026-01-30T23:34:23.000Z</time></trkpt>
        <trkpt lat="28.390416" lon="104.704113"><ele>834.73456</ele><time>2026-01-30T23:34:30.000Z</time></trkpt>
        <trkpt lat="28.390374" lon="104.704143"><ele>832.76965</ele><time>2026-01-30T23:34:37.000Z</time></trkpt>
        <trkpt lat="28.390333" lon="104.704183"><ele>831.6096</ele><time>2026-01-30T23:34:43.000Z</time></trkpt>
        <trkpt lat="28.390313" lon="104.704229"><ele>831.8836</ele><time>2026-01-30T23:34:48.000Z</time></trkpt>
        <trkpt lat="28.390291" lon="104.704286"><ele>831.4058</ele><time>2026-01-30T23:34:55.000Z</time></trkpt>
        <trkpt lat="28.390245" lon="104.704307"><ele>837.54736</ele><time>2026-01-30T23:35:00.000Z</time></trkpt>
        <trkpt lat="28.390193" lon="104.704303"><ele>838.5082</ele><time>2026-01-30T23:35:04.000Z</time></trkpt>
        <trkpt lat="28.39015" lon="104.704289"><ele>839.95825</ele><time>2026-01-30T23:35:08.000Z</time></trkpt>
        <trkpt lat="28.390109" lon="104.704262"><ele>840.21606</ele><time>2026-01-30T23:35:11.000Z</time></trkpt>
        <trkpt lat="28.390064" lon="104.70424"><ele>839.2548</ele><time>2026-01-30T23:35:15.000Z</time></trkpt>
        <trkpt lat="28.390015" lon="104.704235"><ele>837.5755</ele><time>2026-01-30T23:35:20.000Z</time></trkpt>
        <trkpt lat="28.389969" lon="104.704239"><ele>837.22424</ele><time>2026-01-30T23:35:28.000Z</time></trkpt>
        <trkpt lat="28.389919" lon="104.70425"><ele>837.1674</ele><time>2026-01-30T23:35:34.000Z</time></trkpt>
        <trkpt lat="28.389874" lon="104.704268"><ele>838.47314</ele><time>2026-01-30T23:35:39.000Z</time></trkpt>
        <trkpt lat="28.389829" lon="104.704275"><ele>840.341</ele><time>2026-01-30T23:35:43.000Z</time></trkpt>
        <trkpt lat="28.389801" lon="104.704227"><ele>841.2613</ele><time>2026-01-30T23:35:51.000Z</time></trkpt>
        <trkpt lat="28.389784" lon="104.70418"><ele>839.7566</ele><time>2026-01-30T23:36:02.000Z</time></trkpt>
        <trkpt lat="28.389765" lon="104.70413"><ele>838.29175</ele><time>2026-01-30T23:36:10.000Z</time></trkpt>
        <trkpt lat="28.389747" lon="104.704069"><ele>836.6731</ele><time>2026-01-30T23:36:18.000Z</time></trkpt>
        <trkpt lat="28.389757" lon="104.704006"><ele>833.9598</ele><time>2026-01-30T23:36:22.000Z</time></trkpt>
        <trkpt lat="28.389761" lon="104.703951"><ele>831.3437</ele><time>2026-01-30T23:36:27.000Z</time></trkpt>
        <trkpt lat="28.389762" lon="104.703891"><ele>828.7389</ele><time>2026-01-30T23:36:33.000Z</time></trkpt>
        <trkpt lat="28.389775" lon="104.70384"><ele>826.3155</ele><time>2026-01-30T23:36:39.000Z</time></trkpt>
        <trkpt lat="28.389793" lon="104.703792"><ele>825.85974</ele><time>2026-01-30T23:36:42.000Z</time></trkpt>
        <trkpt lat="28.389816" lon="104.703745"><ele>824.55634</ele><time>2026-01-30T23:36:46.000Z</time></trkpt>
        <trkpt lat="28.389829" lon="104.703693"><ele>824.3495</ele><time>2026-01-30T23:36:51.000Z</time></trkpt>
        <trkpt lat="28.389849" lon="104.703641"><ele>822.67834</ele><time>2026-01-30T23:36:57.000Z</time></trkpt>
        <trkpt lat="28.389845" lon="104.703581"><ele>822.0157</ele><time>2026-01-30T23:37:04.000Z</time></trkpt>
        <trkpt lat="28.389859" lon="104.703532"><ele>821.3681</ele><time>2026-01-30T23:37:09.000Z</time></trkpt>
        <trkpt lat="28.389864" lon="104.703468"><ele>820.81647</ele><time>2026-01-30T23:37:14.000Z</time></trkpt>
        <trkpt lat="28.389834" lon="104.703421"><ele>815.65594</ele><time>2026-01-30T23:37:22.000Z</time></trkpt>
        <trkpt lat="28.389819" lon="104.703373"><ele>814.50836</ele><time>2026-01-30T23:37:28.000Z</time></trkpt>
        <trkpt lat="28.389777" lon="104.703341"><ele>813.6193</ele><time>2026-01-30T23:37:37.000Z</time></trkpt>
        <trkpt lat="28.389725" lon="104.703338"><ele>814.335</ele><time>2026-01-30T23:37:43.000Z</time></trkpt>
        <trkpt lat="28.389673" lon="104.703344"><ele>815.22644</ele><time>2026-01-30T23:37:50.000Z</time></trkpt>
        <trkpt lat="28.38962" lon="104.703357"><ele>815.8605</ele><time>2026-01-30T23:37:58.000Z</time></trkpt>
        <trkpt lat="28.389573" lon="104.703357"><ele>817.606</ele><time>2026-01-30T23:38:03.000Z</time></trkpt>
        <trkpt lat="28.389528" lon="104.703353"><ele>818.4723</ele><time>2026-01-30T23:38:07.000Z</time></trkpt>
        <trkpt lat="28.389476" lon="104.703354"><ele>820.1112</ele><time>2026-01-30T23:38:14.000Z</time></trkpt>
        <trkpt lat="28.389432" lon="104.703342"><ele>820.5006</ele><time>2026-01-30T23:38:20.000Z</time></trkpt>
        <trkpt lat="28.389385" lon="104.703347"><ele>821.4253</ele><time>2026-01-30T23:38:25.000Z</time></trkpt>
        <trkpt lat="28.389332" lon="104.703344"><ele>822.3187</ele><time>2026-01-30T23:38:32.000Z</time></trkpt>
        <trkpt lat="28.389285" lon="104.703368"><ele>821.8035</ele><time>2026-01-30T23:38:41.000Z</time></trkpt>
        <trkpt lat="28.389236" lon="104.703384"><ele>821.7687</ele><time>2026-01-30T23:38:46.000Z</time></trkpt>
        <trkpt lat="28.389184" lon="104.703387"><ele>822.40936</ele><time>2026-01-30T23:39:01.000Z</time></trkpt>
        <trkpt lat="28.389144" lon="104.703416"><ele>822.7055</ele><time>2026-01-30T23:39:05.000Z</time></trkpt>
        <trkpt lat="28.389109" lon="104.703456"><ele>822.8346</ele><time>2026-01-30T23:39:10.000Z</time></trkpt>
        <trkpt lat="28.389059" lon="104.703466"><ele>824.72797</ele><time>2026-01-30T23:39:13.000Z</time></trkpt>
        <trkpt lat="28.389011" lon="104.703474"><ele>826.35004</ele><time>2026-01-30T23:39:18.000Z</time></trkpt>
        <trkpt lat="28.388952" lon="104.703472"><ele>827.80505</ele><time>2026-01-30T23:39:24.000Z</time></trkpt>
        <trkpt lat="28.388903" lon="104.703465"><ele>828.42676</ele><time>2026-01-30T23:39:29.000Z</time></trkpt>
        <trkpt lat="28.388836" lon="104.70348"><ele>828.9007</ele><time>2026-01-30T23:39:36.000Z</time></trkpt>
        <trkpt lat="28.388831" lon="104.703419"><ele>828.70294</ele><time>2026-01-30T23:39:45.000Z</time></trkpt>
        <trkpt lat="28.388828" lon="104.703362"><ele>826.465</ele><time>2026-01-30T23:39:58.000Z</time></trkpt>
        <trkpt lat="28.388854" lon="104.703321"><ele>822.6096</ele><time>2026-01-30T23:40:16.000Z</time></trkpt>
        <trkpt lat="28.388856" lon="104.703266"><ele>820.9568</ele><time>2026-01-30T23:40:21.000Z</time></trkpt>
        <trkpt lat="28.388837" lon="104.703215"><ele>819.9974</ele><time>2026-01-30T23:40:29.000Z</time></trkpt>
        <trkpt lat="28.388849" lon="104.70315"><ele>818.1924</ele><time>2026-01-30T23:40:35.000Z</time></trkpt>
        <trkpt lat="28.388841" lon="104.703098"><ele>813.5149</ele><time>2026-01-30T23:40:44.000Z</time></trkpt>
        <trkpt lat="28.388857" lon="104.703048"><ele>812.3316</ele><time>2026-01-30T23:40:51.000Z</time></trkpt>
        <trkpt lat="28.388873" lon="104.702994"><ele>807.47504</ele><time>2026-01-30T23:41:02.000Z</time></trkpt>
        <trkpt lat="28.388878" lon="104.702938"><ele>807.74005</ele><time>2026-01-30T23:41:06.000Z</time></trkpt>
        <trkpt lat="28.388887" lon="104.702885"><ele>804.5274</ele><time>2026-01-30T23:41:12.000Z</time></trkpt>
        <trkpt lat="28.388899" lon="104.702836"><ele>804.322</ele><time>2026-01-30T23:41:15.000Z</time></trkpt>
        <trkpt lat="28.388899" lon="104.702784"><ele>803.4131</ele><time>2026-01-30T23:41:21.000Z</time></trkpt>
        <trkpt lat="28.388893" lon="104.702729"><ele>801.293</ele><time>2026-01-30T23:41:27.000Z</time></trkpt>
        <trkpt lat="28.38886" lon="104.702691"><ele>793.6204</ele><time>2026-01-30T23:41:35.000Z</time></trkpt>
        <trkpt lat="28.388834" lon="104.702645"><ele>790.0592</ele><time>2026-01-30T23:41:43.000Z</time></trkpt>
        <trkpt lat="28.38881" lon="104.702602"><ele>788.2406</ele><time>2026-01-30T23:41:50.000Z</time></trkpt>
        <trkpt lat="28.388777" lon="104.702556"><ele>786.34216</ele><time>2026-01-30T23:41:56.000Z</time></trkpt>
        <trkpt lat="28.388748" lon="104.702504"><ele>785.5331</ele><time>2026-01-30T23:42:06.000Z</time></trkpt>
        <trkpt lat="28.38871" lon="104.702475"><ele>784.85486</ele><time>2026-01-30T23:42:11.000Z</time></trkpt>
        <trkpt lat="28.388667" lon="104.702443"><ele>782.76086</ele><time>2026-01-30T23:42:19.000Z</time></trkpt>
        <trkpt lat="28.388645" lon="104.702393"><ele>782.7199</ele><time>2026-01-30T23:42:27.000Z</time></trkpt>
        <trkpt lat="28.388642" lon="104.70234"><ele>778.61035</ele><time>2026-01-30T23:42:39.000Z</time></trkpt>
        <trkpt lat="28.388643" lon="104.702284"><ele>778.49426</ele><time>2026-01-30T23:42:47.000Z</time></trkpt>
        <trkpt lat="28.388621" lon="104.702232"><ele>777.10095</ele><time>2026-01-30T23:43:01.000Z</time></trkpt>
        <trkpt lat="28.388591" lon="104.702181"><ele>773.7703</ele><time>2026-01-30T23:43:07.000Z</time></trkpt>
        <trkpt lat="28.388547" lon="104.702157"><ele>768.20825</ele><time>2026-01-30T23:43:17.000Z</time></trkpt>
        <trkpt lat="28.388499" lon="104.702148"><ele>766.3966</ele><time>2026-01-30T23:43:24.000Z</time></trkpt>
        <trkpt lat="28.388444" lon="104.702164"><ele>766.81665</ele><time>2026-01-30T23:43:32.000Z</time></trkpt>
        <trkpt lat="28.388399" lon="104.702139"><ele>767.3487</ele><time>2026-01-30T23:43:38.000Z</time></trkpt>
        <trkpt lat="28.388351" lon="104.702125"><ele>767.37305</ele><time>2026-01-30T23:43:43.000Z</time></trkpt>
        <trkpt lat="28.388293" lon="104.702122"><ele>767.9422</ele><time>2026-01-30T23:43:48.000Z</time></trkpt>
        <trkpt lat="28.388245" lon="104.7021"><ele>766.7766</ele><time>2026-01-30T23:43:55.000Z</time></trkpt>
        <trkpt lat="28.388197" lon="104.702109"><ele>765.5978</ele><time>2026-01-30T23:44:02.000Z</time></trkpt>
        <trkpt lat="28.388207" lon="104.702159"><ele>765.5537</ele><time>2026-01-30T23:44:04.000Z</time></trkpt>
        <trkpt lat="28.388157" lon="104.702152"><ele>766.425</ele><time>2026-01-30T23:44:09.000Z</time></trkpt>
        <trkpt lat="28.388106" lon="104.702131"><ele>769.7111</ele><time>2026-01-30T23:44:15.000Z</time></trkpt>
        <trkpt lat="28.388055" lon="104.702152"><ele>769.3983</ele><time>2026-01-30T23:44:20.000Z</time></trkpt>
        <trkpt lat="28.388014" lon="104.702179"><ele>771.23804</ele><time>2026-01-30T23:44:29.000Z</time></trkpt>
        <trkpt lat="28.38796" lon="104.702185"><ele>772.0205</ele><time>2026-01-30T23:44:35.000Z</time></trkpt>
        <trkpt lat="28.387918" lon="104.702166"><ele>772.284</ele><time>2026-01-30T23:44:39.000Z</time></trkpt>
        <trkpt lat="28.387871" lon="104.702169"><ele>772.947</ele><time>2026-01-30T23:44:47.000Z</time></trkpt>
        <trkpt lat="28.387826" lon="104.702154"><ele>772.1277</ele><time>2026-01-30T23:44:53.000Z</time></trkpt>
        <trkpt lat="28.387786" lon="104.702129"><ele>771.14075</ele><time>2026-01-30T23:44:57.000Z</time></trkpt>
        <trkpt lat="28.387805" lon="104.702184"><ele>771.6049</ele><time>2026-01-30T23:45:02.000Z</time></trkpt>
        <trkpt lat="28.387758" lon="104.702161"><ele>771.79944</ele><time>2026-01-30T23:45:10.000Z</time></trkpt>
        <trkpt lat="28.387722" lon="104.702123"><ele>772.60986</ele><time>2026-01-30T23:45:13.000Z</time></trkpt>
        <trkpt lat="28.387677" lon="104.702096"><ele>771.4323</ele><time>2026-01-30T23:45:19.000Z</time></trkpt>
        <trkpt lat="28.387646" lon="104.702139"><ele>770.9245</ele><time>2026-01-30T23:45:45.000Z</time></trkpt>
        <trkpt lat="28.387608" lon="104.702177"><ele>772.8778</ele><time>2026-01-30T23:45:52.000Z</time></trkpt>
        <trkpt lat="28.387565" lon="104.70212"><ele>774.3285</ele><time>2026-01-30T23:46:10.000Z</time></trkpt>
        <trkpt lat="28.387552" lon="104.70217"><ele>774.42114</ele><time>2026-01-30T23:46:21.000Z</time></trkpt>
        <trkpt lat="28.387506" lon="104.702173"><ele>775.00995</ele><time>2026-01-30T23:46:38.000Z</time></trkpt>
        <trkpt lat="28.387486" lon="104.702225"><ele>776.6851</ele><time>2026-01-30T23:46:54.000Z</time></trkpt>
        <trkpt lat="28.38744" lon="104.702256"><ele>778.8348</ele><time>2026-01-30T23:47:07.000Z</time></trkpt>
        <trkpt lat="28.387391" lon="104.702278"><ele>780.3857</ele><time>2026-01-30T23:47:15.000Z</time></trkpt>
        <trkpt lat="28.387343" lon="104.702259"><ele>782.628</ele><time>2026-01-30T23:47:38.000Z</time></trkpt>
        <trkpt lat="28.387294" lon="104.702208"><ele>782.0163</ele><time>2026-01-30T23:47:48.000Z</time></trkpt>
        <trkpt lat="28.387244" lon="104.702212"><ele>782.0219</ele><time>2026-01-30T23:48:15.000Z</time></trkpt>
        <trkpt lat="28.387234" lon="104.702159"><ele>782.5047</ele><time>2026-01-30T23:48:24.000Z</time></trkpt>
        <trkpt lat="28.387279" lon="104.702132"><ele>782.6355</ele><time>2026-01-30T23:48:30.000Z</time></trkpt>
        <trkpt lat="28.387329" lon="104.702107"><ele>782.05536</ele><time>2026-01-30T23:48:36.000Z</time></trkpt>
        <trkpt lat="28.387363" lon="104.70207"><ele>778.9781</ele><time>2026-01-30T23:48:51.000Z</time></trkpt>
        <trkpt lat="28.387405" lon="104.702097"><ele>778.36523</ele><time>2026-01-30T23:48:55.000Z</time></trkpt>
        <trkpt lat="28.387461" lon="104.702086"><ele>774.3378</ele><time>2026-01-30T23:49:15.000Z</time></trkpt>
        <trkpt lat="28.387511" lon="104.702075"><ele>772.8509</ele><time>2026-01-30T23:49:55.000Z</time></trkpt>
        <trkpt lat="28.387533" lon="104.702019"><ele>771.13257</ele><time>2026-01-30T23:50:03.000Z</time></trkpt>
        <trkpt lat="28.387497" lon="104.701987"><ele>769.8583</ele><time>2026-01-30T23:50:07.000Z</time></trkpt>
        <trkpt lat="28.387547" lon="104.701981"><ele>769.23804</ele><time>2026-01-30T23:50:13.000Z</time></trkpt>
        <trkpt lat="28.387536" lon="104.70193"><ele>767.5955</ele><time>2026-01-30T23:50:22.000Z</time></trkpt>
        <trkpt lat="28.387582" lon="104.701941"><ele>766.2302</ele><time>2026-01-30T23:50:30.000Z</time></trkpt>
        <trkpt lat="28.387639" lon="104.701952"><ele>765.29407</ele><time>2026-01-30T23:50:34.000Z</time></trkpt>
        <trkpt lat="28.387693" lon="104.701964"><ele>764.67206</ele><time>2026-01-30T23:50:38.000Z</time></trkpt>
        <trkpt lat="28.387716" lon="104.701917"><ele>762.8939</ele><time>2026-01-30T23:50:46.000Z</time></trkpt>
        <trkpt lat="28.387727" lon="104.701861"><ele>761.57434</ele><time>2026-01-30T23:50:55.000Z</time></trkpt>
        <trkpt lat="28.38776" lon="104.70181"><ele>757.37286</ele><time>2026-01-30T23:51:12.000Z</time></trkpt>
        <trkpt lat="28.387815" lon="104.701861"><ele>755.54065</ele><time>2026-01-30T23:51:16.000Z</time></trkpt>
        <trkpt lat="28.387858" lon="104.701836"><ele>754.7514</ele><time>2026-01-30T23:51:28.000Z</time></trkpt>
        <trkpt lat="28.387865" lon="104.701906"><ele>753.2184</ele><time>2026-01-30T23:51:29.000Z</time></trkpt>
        <trkpt lat="28.387897" lon="104.701867"><ele>754.9211</ele><time>2026-01-30T23:51:33.000Z</time></trkpt>
        <trkpt lat="28.387874" lon="104.701816"><ele>753.27795</ele><time>2026-01-30T23:51:39.000Z</time></trkpt>
        <trkpt lat="28.387931" lon="104.701807"><ele>752.1278</ele><time>2026-01-30T23:51:43.000Z</time></trkpt>
        <trkpt lat="28.387983" lon="104.701797"><ele>750.9993</ele><time>2026-01-30T23:51:50.000Z</time></trkpt>
        <trkpt lat="28.387978" lon="104.701746"><ele>748.79315</ele><time>2026-01-30T23:52:00.000Z</time></trkpt>
        <trkpt lat="28.387997" lon="104.701695"><ele>745.1148</ele><time>2026-01-30T23:52:08.000Z</time></trkpt>
        <trkpt lat="28.387953" lon="104.701721"><ele>742.54755</ele><time>2026-01-30T23:52:26.000Z</time></trkpt>
        <trkpt lat="28.388004" lon="104.701701"><ele>744.47107</ele><time>2026-01-30T23:52:40.000Z</time></trkpt>
        <trkpt lat="28.388052" lon="104.701685"><ele>741.7407</ele><time>2026-01-30T23:52:47.000Z</time></trkpt>
        <trkpt lat="28.388095" lon="104.701657"><ele>738.85254</ele><time>2026-01-30T23:52:58.000Z</time></trkpt>
        <trkpt lat="28.388135" lon="104.70161"><ele>735.57263</ele><time>2026-01-30T23:53:15.000Z</time></trkpt>
        <trkpt lat="28.38819" lon="104.701602"><ele>733.5944</ele><time>2026-01-30T23:53:26.000Z</time></trkpt>
        <trkpt lat="28.388236" lon="104.701575"><ele>730.34875</ele><time>2026-01-30T23:53:38.000Z</time></trkpt>
        <trkpt lat="28.388271" lon="104.701538"><ele>728.37115</ele><time>2026-01-30T23:53:52.000Z</time></trkpt>
        <trkpt lat="28.388311" lon="104.701493"><ele>725.6414</ele><time>2026-01-30T23:54:01.000Z</time></trkpt>
        <trkpt lat="28.38833" lon="104.701433"><ele>723.29193</ele><time>2026-01-30T23:54:09.000Z</time></trkpt>
        <trkpt lat="28.388297" lon="104.701384"><ele>720.4167</ele><time>2026-01-30T23:54:17.000Z</time></trkpt>
        <trkpt lat="28.388321" lon="104.70133"><ele>717.242</ele><time>2026-01-30T23:54:27.000Z</time></trkpt>
        <trkpt lat="28.388328" lon="104.701268"><ele>716.6548</ele><time>2026-01-30T23:54:32.000Z</time></trkpt>
        <trkpt lat="28.388314" lon="104.701213"><ele>715.2567</ele><time>2026-01-30T23:54:39.000Z</time></trkpt>
        <trkpt lat="28.388308" lon="104.70116"><ele>715.0511</ele><time>2026-01-30T23:54:45.000Z</time></trkpt>
        <trkpt lat="28.388317" lon="104.701107"><ele>713.2097</ele><time>2026-01-30T23:54:59.000Z</time></trkpt>
        <trkpt lat="28.388313" lon="104.70105"><ele>710.2905</ele><time>2026-01-30T23:55:08.000Z</time></trkpt>
        <trkpt lat="28.388356" lon="104.701015"><ele>706.2585</ele><time>2026-01-30T23:55:23.000Z</time></trkpt>
        <trkpt lat="28.388396" lon="104.700984"><ele>704.45264</ele><time>2026-01-30T23:55:30.000Z</time></trkpt>
        <trkpt lat="28.388441" lon="104.700978"><ele>701.44995</ele><time>2026-01-30T23:55:40.000Z</time></trkpt>
        <trkpt lat="28.388471" lon="104.700938"><ele>699.97034</ele><time>2026-01-30T23:55:56.000Z</time></trkpt>
        <trkpt lat="28.388511" lon="104.700902"><ele>697.0472</ele><time>2026-01-30T23:56:10.000Z</time></trkpt>
        <trkpt lat="28.38855" lon="104.700869"><ele>693.5107</ele><time>2026-01-30T23:56:19.000Z</time></trkpt>
        <trkpt lat="28.388559" lon="104.700816"><ele>689.6778</ele><time>2026-01-30T23:56:28.000Z</time></trkpt>
        <trkpt lat="28.388548" lon="104.700765"><ele>690.5396</ele><time>2026-01-30T23:56:39.000Z</time></trkpt>
        <trkpt lat="28.388528" lon="104.700719"><ele>691.6119</ele><time>2026-01-30T23:56:46.000Z</time></trkpt>
        <trkpt lat="28.38852" lon="104.700665"><ele>693.81494</ele><time>2026-01-30T23:56:58.000Z</time></trkpt>
        <trkpt lat="28.388512" lon="104.700601"><ele>695.2325</ele><time>2026-01-30T23:57:07.000Z</time></trkpt>
        <trkpt lat="28.388533" lon="104.700549"><ele>696.1222</ele><time>2026-01-30T23:57:13.000Z</time></trkpt>
        <trkpt lat="28.388488" lon="104.700517"><ele>697.4376</ele><time>2026-01-30T23:57:23.000Z</time></trkpt>
        <trkpt lat="28.388515" lon="104.700466"><ele>698.2463</ele><time>2026-01-30T23:57:29.000Z</time></trkpt>
        <trkpt lat="28.388544" lon="104.700407"><ele>699.144</ele><time>2026-01-30T23:57:41.000Z</time></trkpt>
        <trkpt lat="28.388569" lon="104.700348"><ele>697.88916</ele><time>2026-01-30T23:57:44.000Z</time></trkpt>
        <trkpt lat="28.388558" lon="104.700294"><ele>701.42236</ele><time>2026-01-30T23:57:47.000Z</time></trkpt>
        <trkpt lat="28.388551" lon="104.700241"><ele>705.4253</ele><time>2026-01-30T23:57:59.000Z</time></trkpt>
        <trkpt lat="28.388582" lon="104.700194"><ele>707.97864</ele><time>2026-01-30T23:58:06.000Z</time></trkpt>
        <trkpt lat="28.388536" lon="104.700219"><ele>708.60004</ele><time>2026-01-30T23:58:14.000Z</time></trkpt>
        <trkpt lat="28.388556" lon="104.70017"><ele>707.36566</ele><time>2026-01-30T23:58:20.000Z</time></trkpt>
        <trkpt lat="28.38855" lon="104.700109"><ele>706.5672</ele><time>2026-01-30T23:58:26.000Z</time></trkpt>
        <trkpt lat="28.388593" lon="104.700059"><ele>704.69366</ele><time>2026-01-30T23:58:32.000Z</time></trkpt>
        <trkpt lat="28.388631" lon="104.700102"><ele>699.35504</ele><time>2026-01-30T23:58:46.000Z</time></trkpt>
        <trkpt lat="28.388665" lon="104.700138"><ele>698.3291</ele><time>2026-01-30T23:58:52.000Z</time></trkpt>
        <trkpt lat="28.388635" lon="104.700189"><ele>708.90234</ele><time>2026-01-30T23:58:56.000Z</time></trkpt>
        <trkpt lat="28.388626" lon="104.700251"><ele>709.0869</ele><time>2026-01-30T23:59:01.000Z</time></trkpt>
        <trkpt lat="28.388671" lon="104.700288"><ele>707.27527</ele><time>2026-01-30T23:59:06.000Z</time></trkpt>
        <trkpt lat="28.38865" lon="104.700337"><ele>704.30133</ele><time>2026-01-30T23:59:14.000Z</time></trkpt>
        <trkpt lat="28.388643" lon="104.700388"><ele>701.46277</ele><time>2026-01-30T23:59:21.000Z</time></trkpt>
        <trkpt lat="28.388606" lon="104.70044"><ele>698.75006</ele><time>2026-01-30T23:59:32.000Z</time></trkpt>
        <trkpt lat="28.388542" lon="104.700461"><ele>698.42834</ele><time>2026-01-30T23:59:38.000Z</time></trkpt>
        <trkpt lat="28.388589" lon="104.70051"><ele>698.4196</ele><time>2026-01-30T23:59:43.000Z</time></trkpt>
        <trkpt lat="28.38863" lon="104.700542"><ele>694.3128</ele><time>2026-01-30T23:59:52.000Z</time></trkpt>
        <trkpt lat="28.388677" lon="104.700574"><ele>692.45245</ele><time>2026-01-30T23:59:58.000Z</time></trkpt>
        <trkpt lat="28.388723" lon="104.700614"><ele>690.49475</ele><time>2026-01-31T00:00:09.000Z</time></trkpt>
        <trkpt lat="28.388789" lon="104.700636"><ele>688.6002</ele><time>2026-01-31T00:00:56.000Z</time></trkpt>
        <trkpt lat="28.38878" lon="104.700688"><ele>687.44543</ele><time>2026-01-31T00:01:00.000Z</time></trkpt>
        <trkpt lat="28.388826" lon="104.700705"><ele>685.52075</ele><time>2026-01-31T00:01:13.000Z</time></trkpt>
        <trkpt lat="28.388815" lon="104.700756"><ele>683.8822</ele><time>2026-01-31T00:01:35.000Z</time></trkpt>
        <trkpt lat="28.388824" lon="104.700812"><ele>682.8866</ele><time>2026-01-31T00:01:43.000Z</time></trkpt>
        <trkpt lat="28.388875" lon="104.700813"><ele>680.43463</ele><time>2026-01-31T00:01:53.000Z</time></trkpt>
        <trkpt lat="28.388895" lon="104.700871"><ele>679.1318</ele><time>2026-01-31T00:02:04.000Z</time></trkpt>
        <trkpt lat="28.388938" lon="104.70089"><ele>678.72675</ele><time>2026-01-31T00:02:11.000Z</time></trkpt>
        <trkpt lat="28.388982" lon="104.700903"><ele>678.51056</ele><time>2026-01-31T00:02:16.000Z</time></trkpt>
        <trkpt lat="28.388997" lon="104.700853"><ele>676.7094</ele><time>2026-01-31T00:02:25.000Z</time></trkpt>
        <trkpt lat="28.388996" lon="104.700919"><ele>676.6988</ele><time>2026-01-31T00:02:28.000Z</time></trkpt>
        <trkpt lat="28.389022" lon="104.700981"><ele>676.3961</ele><time>2026-01-31T00:02:36.000Z</time></trkpt>
        <trkpt lat="28.389056" lon="104.70102"><ele>675.7219</ele><time>2026-01-31T00:02:42.000Z</time></trkpt>
        <trkpt lat="28.389094" lon="104.701051"><ele>674.4905</ele><time>2026-01-31T00:02:55.000Z</time></trkpt>
        <trkpt lat="28.389043" lon="104.701045"><ele>673.55676</ele><time>2026-01-31T00:03:05.000Z</time></trkpt>
        <trkpt lat="28.389107" lon="104.701055"><ele>673.564</ele><time>2026-01-31T00:03:11.000Z</time></trkpt>
        <trkpt lat="28.389155" lon="104.70108"><ele>672.2903</ele><time>2026-01-31T00:03:24.000Z</time></trkpt>
        <trkpt lat="28.389202" lon="104.701073"><ele>669.6141</ele><time>2026-01-31T00:03:32.000Z</time></trkpt>
        <trkpt lat="28.389258" lon="104.701055"><ele>668.0936</ele><time>2026-01-31T00:03:46.000Z</time></trkpt>
        <trkpt lat="28.389304" lon="104.701072"><ele>667.2363</ele><time>2026-01-31T00:03:57.000Z</time></trkpt>
        <trkpt lat="28.389348" lon="104.701085"><ele>666.1959</ele><time>2026-01-31T00:04:05.000Z</time></trkpt>
        <trkpt lat="28.389392" lon="104.701112"><ele>665.47156</ele><time>2026-01-31T00:04:14.000Z</time></trkpt>
        <trkpt lat="28.389405" lon="104.701163"><ele>664.203</ele><time>2026-01-31T00:04:28.000Z</time></trkpt>
        <trkpt lat="28.389387" lon="104.701223"><ele>665.79553</ele><time>2026-01-31T00:04:53.000Z</time></trkpt>
        <trkpt lat="28.389413" lon="104.701266"><ele>665.11163</ele><time>2026-01-31T00:05:08.000Z</time></trkpt>
        <trkpt lat="28.389361" lon="104.701224"><ele>665.2969</ele><time>2026-01-31T00:05:16.000Z</time></trkpt>
        <trkpt lat="28.389407" lon="104.701261"><ele>665.6712</ele><time>2026-01-31T00:05:19.000Z</time></trkpt>
        <trkpt lat="28.389401" lon="104.70125"><ele>665.2752</ele><time>2026-01-31T00:05:33.000Z</time></trkpt>
        <trkpt lat="28.389394" lon="104.701304"><ele>665.74457</ele><time>2026-01-31T00:05:40.000Z</time></trkpt>
        <trkpt lat="28.389437" lon="104.701333"><ele>665.88904</ele><time>2026-01-31T00:05:46.000Z</time></trkpt>
        <trkpt lat="28.389464" lon="104.701379"><ele>666.06274</ele><time>2026-01-31T00:05:53.000Z</time></trkpt>
        <trkpt lat="28.389516" lon="104.70141"><ele>665.5736</ele><time>2026-01-31T00:06:04.000Z</time></trkpt>
        <trkpt lat="28.389551" lon="104.701444"><ele>666.8928</ele><time>2026-01-31T00:06:18.000Z</time></trkpt>
        <trkpt lat="28.389595" lon="104.701455"><ele>667.373</ele><time>2026-01-31T00:06:25.000Z</time></trkpt>
        <trkpt lat="28.389628" lon="104.701494"><ele>667.17175</ele><time>2026-01-31T00:06:41.000Z</time></trkpt>
        <trkpt lat="28.389674" lon="104.701506"><ele>669.03436</ele><time>2026-01-31T00:07:14.000Z</time></trkpt>
        <trkpt lat="28.389703" lon="104.701548"><ele>668.0764</ele><time>2026-01-31T00:07:25.000Z</time></trkpt>
        <trkpt lat="28.389708" lon="104.701599"><ele>667.6101</ele><time>2026-01-31T00:07:33.000Z</time></trkpt>
        <trkpt lat="28.389753" lon="104.701611"><ele>668.2973</ele><time>2026-01-31T00:07:36.000Z</time></trkpt>
        <trkpt lat="28.389726" lon="104.701668"><ele>667.58344</ele><time>2026-01-31T00:07:42.000Z</time></trkpt>
        <trkpt lat="28.389739" lon="104.701733"><ele>667.23553</ele><time>2026-01-31T00:07:46.000Z</time></trkpt>
        <trkpt lat="28.389799" lon="104.70172"><ele>666.2068</ele><time>2026-01-31T00:07:54.000Z</time></trkpt>
        <trkpt lat="28.389851" lon="104.701694"><ele>667.1453</ele><time>2026-01-31T00:07:57.000Z</time></trkpt>
        <trkpt lat="28.389873" lon="104.701645"><ele>665.12897</ele><time>2026-01-31T00:08:01.000Z</time></trkpt>
        <trkpt lat="28.389917" lon="104.701664"><ele>662.36163</ele><time>2026-01-31T00:08:21.000Z</time></trkpt>
        <trkpt lat="28.38996" lon="104.701677"><ele>659.5958</ele><time>2026-01-31T00:08:37.000Z</time></trkpt>
        <trkpt lat="28.389999" lon="104.701644"><ele>657.5548</ele><time>2026-01-31T00:08:44.000Z</time></trkpt>
        <trkpt lat="28.39002" lon="104.701692"><ele>657.6563</ele><time>2026-01-31T00:08:47.000Z</time></trkpt>
        <trkpt lat="28.390056" lon="104.701727"><ele>657.428</ele><time>2026-01-31T00:08:52.000Z</time></trkpt>
        <trkpt lat="28.390065" lon="104.701778"><ele>656.97626</ele><time>2026-01-31T00:08:57.000Z</time></trkpt>
        <trkpt lat="28.390123" lon="104.7018"><ele>657.455</ele><time>2026-01-31T00:09:02.000Z</time></trkpt>
        <trkpt lat="28.390161" lon="104.701851"><ele>656.4832</ele><time>2026-01-31T00:09:07.000Z</time></trkpt>
        <trkpt lat="28.390182" lon="104.701901"><ele>655.9608</ele><time>2026-01-31T00:09:11.000Z</time></trkpt>
        <trkpt lat="28.390206" lon="104.701853"><ele>655.6116</ele><time>2026-01-31T00:09:29.000Z</time></trkpt>
        <trkpt lat="28.3902" lon="104.701798"><ele>655.54834</ele><time>2026-01-31T00:09:34.000Z</time></trkpt>
        <trkpt lat="28.390246" lon="104.701816"><ele>654.701</ele><time>2026-01-31T00:09:43.000Z</time></trkpt>
        <trkpt lat="28.390286" lon="104.701851"><ele>654.0329</ele><time>2026-01-31T00:09:50.000Z</time></trkpt>
        <trkpt lat="28.390329" lon="104.701835"><ele>653.81726</ele><time>2026-01-31T00:09:54.000Z</time></trkpt>
        <trkpt lat="28.390367" lon="104.701862"><ele>652.5452</ele><time>2026-01-31T00:10:02.000Z</time></trkpt>
        <trkpt lat="28.390318" lon="104.70185"><ele>652.6628</ele><time>2026-01-31T00:10:08.000Z</time></trkpt>
        <trkpt lat="28.390363" lon="104.701839"><ele>652.5598</ele><time>2026-01-31T00:10:10.000Z</time></trkpt>
        <trkpt lat="28.390402" lon="104.701866"><ele>652.0626</ele><time>2026-01-31T00:10:20.000Z</time></trkpt>
        <trkpt lat="28.390454" lon="104.701899"><ele>651.186</ele><time>2026-01-31T00:10:24.000Z</time></trkpt>
        <trkpt lat="28.39051" lon="104.701873"><ele>650.3045</ele><time>2026-01-31T00:10:34.000Z</time></trkpt>
        <trkpt lat="28.390563" lon="104.701896"><ele>648.76074</ele><time>2026-01-31T00:10:40.000Z</time></trkpt>
        <trkpt lat="28.390615" lon="104.701881"><ele>648.3869</ele><time>2026-01-31T00:10:45.000Z</time></trkpt>
        <trkpt lat="28.390665" lon="104.701875"><ele>648.26685</ele><time>2026-01-31T00:10:48.000Z</time></trkpt>
        <trkpt lat="28.390699" lon="104.701908"><ele>647.52014</ele><time>2026-01-31T00:10:54.000Z</time></trkpt>
        <trkpt lat="28.390746" lon="104.701928"><ele>646.73883</ele><time>2026-01-31T00:11:08.000Z</time></trkpt>
        <trkpt lat="28.390782" lon="104.701962"><ele>647.07513</ele><time>2026-01-31T00:11:35.000Z</time></trkpt>
        <trkpt lat="28.390833" lon="104.70198"><ele>645.77246</ele><time>2026-01-31T00:11:42.000Z</time></trkpt>
        <trkpt lat="28.390888" lon="104.702018"><ele>646.58997</ele><time>2026-01-31T00:11:47.000Z</time></trkpt>
        <trkpt lat="28.390942" lon="104.702023"><ele>647.1674</ele><time>2026-01-31T00:11:52.000Z</time></trkpt>
        <trkpt lat="28.390981" lon="104.702058"><ele>648.0363</ele><time>2026-01-31T00:11:56.000Z</time></trkpt>
        <trkpt lat="28.391033" lon="104.702122"><ele>648.55963</ele><time>2026-01-31T00:12:03.000Z</time></trkpt>
        <trkpt lat="28.391083" lon="104.702154"><ele>647.8663</ele><time>2026-01-31T00:12:09.000Z</time></trkpt>
        <trkpt lat="28.39113" lon="104.70215"><ele>646.608</ele><time>2026-01-31T00:12:14.000Z</time></trkpt>
        <trkpt lat="28.391183" lon="104.702146"><ele>645.8579</ele><time>2026-01-31T00:12:23.000Z</time></trkpt>
        <trkpt lat="28.391232" lon="104.702163"><ele>644.71783</ele><time>2026-01-31T00:12:31.000Z</time></trkpt>
        <trkpt lat="28.391274" lon="104.702193"><ele>643.2995</ele><time>2026-01-31T00:12:38.000Z</time></trkpt>
        <trkpt lat="28.391309" lon="104.702233"><ele>641.2368</ele><time>2026-01-31T00:12:46.000Z</time></trkpt>
        <trkpt lat="28.391368" lon="104.702245"><ele>639.69684</ele><time>2026-01-31T00:12:57.000Z</time></trkpt>
        <trkpt lat="28.391408" lon="104.702283"><ele>639.2598</ele><time>2026-01-31T00:13:04.000Z</time></trkpt>
        <trkpt lat="28.391442" lon="104.702333"><ele>642.05676</ele><time>2026-01-31T00:13:22.000Z</time></trkpt>
        <trkpt lat="28.391388" lon="104.702335"><ele>644.2652</ele><time>2026-01-31T00:13:47.000Z</time></trkpt>
        <trkpt lat="28.391345" lon="104.702317"><ele>638.66187</ele><time>2026-01-31T00:14:01.000Z</time></trkpt>
        <trkpt lat="28.3914" lon="104.702322"><ele>631.2351</ele><time>2026-01-31T00:14:15.000Z</time></trkpt>
        <trkpt lat="28.39142" lon="104.70238"><ele>638.4402</ele><time>2026-01-31T00:14:17.000Z</time></trkpt>
        <trkpt lat="28.391465" lon="104.702407"><ele>640.04846</ele><time>2026-01-31T00:14:23.000Z</time></trkpt>
        <trkpt lat="28.391414" lon="104.702442"><ele>643.04846</ele><time>2026-01-31T00:14:25.000Z</time></trkpt>
        <trkpt lat="28.391474" lon="104.702437"><ele>645.2575</ele><time>2026-01-31T00:14:27.000Z</time></trkpt>
        <trkpt lat="28.391529" lon="104.702448"><ele>647.4405</ele><time>2026-01-31T00:14:30.000Z</time></trkpt>
        <trkpt lat="28.391578" lon="104.702452"><ele>648.32434</ele><time>2026-01-31T00:14:34.000Z</time></trkpt>
        <trkpt lat="28.391626" lon="104.702442"><ele>648.6263</ele><time>2026-01-31T00:14:39.000Z</time></trkpt>
        <trkpt lat="28.39168" lon="104.702472"><ele>649.2251</ele><time>2026-01-31T00:14:45.000Z</time></trkpt>
        <trkpt lat="28.391727" lon="104.70249"><ele>650.6811</ele><time>2026-01-31T00:14:49.000Z</time></trkpt>
        <trkpt lat="28.391774" lon="104.702515"><ele>651.26825</ele><time>2026-01-31T00:14:52.000Z</time></trkpt>
        <trkpt lat="28.391835" lon="104.702519"><ele>653.1609</ele><time>2026-01-31T00:14:58.000Z</time></trkpt>
        <trkpt lat="28.391869" lon="104.702564"><ele>654.1469</ele><time>2026-01-31T00:15:16.000Z</time></trkpt>
        <trkpt lat="28.391891" lon="104.702616"><ele>654.7033</ele><time>2026-01-31T00:15:20.000Z</time></trkpt>
        <trkpt lat="28.39189" lon="104.702675"><ele>658.13336</ele><time>2026-01-31T00:15:31.000Z</time></trkpt>
        <trkpt lat="28.391933" lon="104.702659"><ele>658.90686</ele><time>2026-01-31T00:15:38.000Z</time></trkpt>
        <trkpt lat="28.391972" lon="104.702617"><ele>658.36066</ele><time>2026-01-31T00:15:46.000Z</time></trkpt>
        <trkpt lat="28.392025" lon="104.702587"><ele>656.7595</ele><time>2026-01-31T00:15:52.000Z</time></trkpt>
        <trkpt lat="28.392088" lon="104.702592"><ele>654.7994</ele><time>2026-01-31T00:16:00.000Z</time></trkpt>
        <trkpt lat="28.392059" lon="104.70264"><ele>654.3638</ele><time>2026-01-31T00:16:02.000Z</time></trkpt>
        <trkpt lat="28.392104" lon="104.702671"><ele>654.2204</ele><time>2026-01-31T00:16:07.000Z</time></trkpt>
        <trkpt lat="28.392056" lon="104.702655"><ele>653.5709</ele><time>2026-01-31T00:16:11.000Z</time></trkpt>
        <trkpt lat="28.392109" lon="104.702661"><ele>653.51196</ele><time>2026-01-31T00:16:15.000Z</time></trkpt>
        <trkpt lat="28.39218" lon="104.702667"><ele>652.13965</ele><time>2026-01-31T00:16:21.000Z</time></trkpt>
        <trkpt lat="28.39222" lon="104.702699"><ele>649.08673</ele><time>2026-01-31T00:16:27.000Z</time></trkpt>
        <trkpt lat="28.392277" lon="104.702708"><ele>647.829</ele><time>2026-01-31T00:16:32.000Z</time></trkpt>
        <trkpt lat="28.392306" lon="104.70276"><ele>647.1868</ele><time>2026-01-31T00:16:39.000Z</time></trkpt>
        <trkpt lat="28.392352" lon="104.702766"><ele>645.8994</ele><time>2026-01-31T00:16:44.000Z</time></trkpt>
        <trkpt lat="28.392394" lon="104.702744"><ele>647.0365</ele><time>2026-01-31T00:16:53.000Z</time></trkpt>
        <trkpt lat="28.39244" lon="104.702765"><ele>646.8246</ele><time>2026-01-31T00:17:08.000Z</time></trkpt>
        <trkpt lat="28.392491" lon="104.702758"><ele>646.9892</ele><time>2026-01-31T00:17:11.000Z</time></trkpt>
        <trkpt lat="28.392542" lon="104.702756"><ele>646.8439</ele><time>2026-01-31T00:17:26.000Z</time></trkpt>
        <trkpt lat="28.392587" lon="104.702768"><ele>645.9111</ele><time>2026-01-31T00:17:30.000Z</time></trkpt>
        <trkpt lat="28.392621" lon="104.702804"><ele>645.1803</ele><time>2026-01-31T00:17:36.000Z</time></trkpt>
        <trkpt lat="28.392646" lon="104.702847"><ele>643.47577</ele><time>2026-01-31T00:17:39.000Z</time></trkpt>
        <trkpt lat="28.392681" lon="104.702889"><ele>642.1642</ele><time>2026-01-31T00:17:45.000Z</time></trkpt>
        <trkpt lat="28.39273" lon="104.702905"><ele>639.9849</ele><time>2026-01-31T00:17:53.000Z</time></trkpt>
        <trkpt lat="28.392793" lon="104.702917"><ele>639.2743</ele><time>2026-01-31T00:17:58.000Z</time></trkpt>
        <trkpt lat="28.392837" lon="104.702944"><ele>636.55896</ele><time>2026-01-31T00:18:04.000Z</time></trkpt>
        <trkpt lat="28.392884" lon="104.702967"><ele>633.63</ele><time>2026-01-31T00:18:10.000Z</time></trkpt>
        <trkpt lat="28.392927" lon="104.702987"><ele>629.015</ele><time>2026-01-31T00:19:04.000Z</time></trkpt>
        <trkpt lat="28.39297" lon="104.703023"><ele>626.8883</ele><time>2026-01-31T00:19:13.000Z</time></trkpt>
        <trkpt lat="28.393015" lon="104.703031"><ele>623.6818</ele><time>2026-01-31T00:19:27.000Z</time></trkpt>
        <trkpt lat="28.393058" lon="104.703053"><ele>622.6431</ele><time>2026-01-31T00:19:44.000Z</time></trkpt>
        <trkpt lat="28.393107" lon="104.703056"><ele>620.59033</ele><time>2026-01-31T00:19:49.000Z</time></trkpt>
        <trkpt lat="28.393156" lon="104.703079"><ele>617.8467</ele><time>2026-01-31T00:19:56.000Z</time></trkpt>
        <trkpt lat="28.393199" lon="104.703115"><ele>615.4287</ele><time>2026-01-31T00:20:02.000Z</time></trkpt>
        <trkpt lat="28.393248" lon="104.703134"><ele>613.7328</ele><time>2026-01-31T00:20:07.000Z</time></trkpt>
        <trkpt lat="28.393304" lon="104.703152"><ele>611.32434</ele><time>2026-01-31T00:20:13.000Z</time></trkpt>
        <trkpt lat="28.393355" lon="104.703166"><ele>607.89886</ele><time>2026-01-31T00:20:20.000Z</time></trkpt>
        <trkpt lat="28.393396" lon="104.703193"><ele>606.5578</ele><time>2026-01-31T00:20:25.000Z</time></trkpt>
        <trkpt lat="28.393436" lon="104.70325"><ele>605.5387</ele><time>2026-01-31T00:20:41.000Z</time></trkpt>
        <trkpt lat="28.393487" lon="104.703266"><ele>604.7701</ele><time>2026-01-31T00:20:48.000Z</time></trkpt>
        <trkpt lat="28.393535" lon="104.703295"><ele>602.7593</ele><time>2026-01-31T00:20:54.000Z</time></trkpt>
        <trkpt lat="28.393591" lon="104.703313"><ele>602.0164</ele><time>2026-01-31T00:20:59.000Z</time></trkpt>
        <trkpt lat="28.393646" lon="104.703335"><ele>600.7768</ele><time>2026-01-31T00:21:04.000Z</time></trkpt>
        <trkpt lat="28.393689" lon="104.70337"><ele>597.1569</ele><time>2026-01-31T00:21:45.000Z</time></trkpt>
        <trkpt lat="28.393996" lon="104.703663"><ele>592.17065</ele><time>2026-01-31T00:22:58.000Z</time></trkpt>
        <trkpt lat="28.394039" lon="104.703698"><ele>591.8283</ele><time>2026-01-31T00:23:05.000Z</time></trkpt>
        <trkpt lat="28.394079" lon="104.703724"><ele>591.66693</ele><time>2026-01-31T00:23:12.000Z</time></trkpt>
        <trkpt lat="28.394109" lon="104.703768"><ele>592.2057</ele><time>2026-01-31T00:23:19.000Z</time></trkpt>
        <trkpt lat="28.394136" lon="104.703818"><ele>590.6026</ele><time>2026-01-31T00:23:24.000Z</time></trkpt>
        <trkpt lat="28.394192" lon="104.70381"><ele>591.7632</ele><time>2026-01-31T00:23:28.000Z</time></trkpt>
        <trkpt lat="28.394237" lon="104.703819"><ele>590.6909</ele><time>2026-01-31T00:23:33.000Z</time></trkpt>
        <trkpt lat="28.394275" lon="104.70385"><ele>590.66205</ele><time>2026-01-31T00:23:39.000Z</time></trkpt>
        <trkpt lat="28.39424" lon="104.703811"><ele>590.24554</ele><time>2026-01-31T00:23:53.000Z</time></trkpt>
        <trkpt lat="28.39429" lon="104.70383"><ele>590.1434</ele><time>2026-01-31T00:24:10.000Z</time></trkpt>
        <trkpt lat="28.394326" lon="104.703867"><ele>590.61676</ele><time>2026-01-31T00:24:14.000Z</time></trkpt>
        <trkpt lat="28.394376" lon="104.703878"><ele>590.33093</ele><time>2026-01-31T00:24:22.000Z</time></trkpt>
        <trkpt lat="28.394414" lon="104.703937"><ele>591.2427</ele><time>2026-01-31T00:24:31.000Z</time></trkpt>
        <trkpt lat="28.394456" lon="104.703961"><ele>591.5376</ele><time>2026-01-31T00:24:35.000Z</time></trkpt>
        <trkpt lat="28.394498" lon="104.70393"><ele>589.8285</ele><time>2026-01-31T00:24:40.000Z</time></trkpt>
        <trkpt lat="28.394533" lon="104.703969"><ele>591.4076</ele><time>2026-01-31T00:24:57.000Z</time></trkpt>
        <trkpt lat="28.394546" lon="104.704018"><ele>592.1358</ele><time>2026-01-31T00:25:03.000Z</time></trkpt>
        <trkpt lat="28.394595" lon="104.704021"><ele>591.2126</ele><time>2026-01-31T00:25:19.000Z</time></trkpt>
        <trkpt lat="28.394643" lon="104.70403"><ele>591.784</ele><time>2026-01-31T00:25:27.000Z</time></trkpt>
        <trkpt lat="28.394691" lon="104.704046"><ele>591.4719</ele><time>2026-01-31T00:25:36.000Z</time></trkpt>
        <trkpt lat="28.394737" lon="104.704058"><ele>591.4184</ele><time>2026-01-31T00:25:49.000Z</time></trkpt>
        <trkpt lat="28.394775" lon="104.704086"><ele>591.1294</ele><time>2026-01-31T00:25:55.000Z</time></trkpt>
        <trkpt lat="28.394824" lon="104.70411"><ele>591.5198</ele><time>2026-01-31T00:26:01.000Z</time></trkpt>
        <trkpt lat="28.394872" lon="104.704132"><ele>592.00574</ele><time>2026-01-31T00:26:07.000Z</time></trkpt>
        <trkpt lat="28.394917" lon="104.704155"><ele>592.25183</ele><time>2026-01-31T00:26:15.000Z</time></trkpt>
        <trkpt lat="28.394954" lon="104.704184"><ele>591.69977</ele><time>2026-01-31T00:26:19.000Z</time></trkpt>
        <trkpt lat="28.395001" lon="104.704205"><ele>592.00134</ele><time>2026-01-31T00:26:26.000Z</time></trkpt>
        <trkpt lat="28.395051" lon="104.704194"><ele>592.34155</ele><time>2026-01-31T00:26:36.000Z</time></trkpt>
        <trkpt lat="28.395097" lon="104.704193"><ele>593.12775</ele><time>2026-01-31T00:26:41.000Z</time></trkpt>
        <trkpt lat="28.395132" lon="104.704226"><ele>594.35376</ele><time>2026-01-31T00:26:45.000Z</time></trkpt>
        <trkpt lat="28.395158" lon="104.70428"><ele>595.838</ele><time>2026-01-31T00:26:48.000Z</time></trkpt>
        <trkpt lat="28.395206" lon="104.704307"><ele>597.26215</ele><time>2026-01-31T00:26:53.000Z</time></trkpt>
        <trkpt lat="28.395251" lon="104.704336"><ele>597.904</ele><time>2026-01-31T00:26:57.000Z</time></trkpt>
        <trkpt lat="28.395304" lon="104.70432"><ele>598.7744</ele><time>2026-01-31T00:27:01.000Z</time></trkpt>
        <trkpt lat="28.395343" lon="104.704349"><ele>598.5256</ele><time>2026-01-31T00:27:06.000Z</time></trkpt>
        <trkpt lat="28.395298" lon="104.704331"><ele>598.0508</ele><time>2026-01-31T00:27:13.000Z</time></trkpt>
        <trkpt lat="28.395254" lon="104.704303"><ele>598.667</ele><time>2026-01-31T00:27:18.000Z</time></trkpt>
        <trkpt lat="28.395261" lon="104.704377"><ele>598.7751</ele><time>2026-01-31T00:27:29.000Z</time></trkpt>
        <trkpt lat="28.395302" lon="104.704342"><ele>599.1509</ele><time>2026-01-31T00:27:35.000Z</time></trkpt>
        <trkpt lat="28.395349" lon="104.704296"><ele>599.23425</ele><time>2026-01-31T00:27:38.000Z</time></trkpt>
        <trkpt lat="28.39539" lon="104.704318"><ele>598.764</ele><time>2026-01-31T00:27:42.000Z</time></trkpt>
        <trkpt lat="28.395441" lon="104.704317"><ele>598.94214</ele><time>2026-01-31T00:27:47.000Z</time></trkpt>
        <trkpt lat="28.395491" lon="104.704303"><ele>599.1344</ele><time>2026-01-31T00:27:51.000Z</time></trkpt>
        <trkpt lat="28.395548" lon="104.704293"><ele>598.8756</ele><time>2026-01-31T00:27:55.000Z</time></trkpt>
        <trkpt lat="28.39559" lon="104.704313"><ele>598.9958</ele><time>2026-01-31T00:28:00.000Z</time></trkpt>
        <trkpt lat="28.395638" lon="104.704289"><ele>598.83997</ele><time>2026-01-31T00:28:03.000Z</time></trkpt>
        <trkpt lat="28.395684" lon="104.704297"><ele>595.43665</ele><time>2026-01-31T00:28:20.000Z</time></trkpt>
        <trkpt lat="28.395734" lon="104.704319"><ele>594.0188</ele><time>2026-01-31T00:28:28.000Z</time></trkpt>
        <trkpt lat="28.395782" lon="104.704337"><ele>592.56335</ele><time>2026-01-31T00:28:34.000Z</time></trkpt>
        <trkpt lat="28.395836" lon="104.704353"><ele>588.85785</ele><time>2026-01-31T00:28:42.000Z</time></trkpt>
        <trkpt lat="28.395887" lon="104.704371"><ele>586.35834</ele><time>2026-01-31T00:28:52.000Z</time></trkpt>
        <trkpt lat="28.395942" lon="104.704385"><ele>585.1471</ele><time>2026-01-31T00:28:58.000Z</time></trkpt>
        <trkpt lat="28.395997" lon="104.704374"><ele>584.62305</ele><time>2026-01-31T00:29:05.000Z</time></trkpt>
        <trkpt lat="28.396038" lon="104.704402"><ele>584.4565</ele><time>2026-01-31T00:29:10.000Z</time></trkpt>
        <trkpt lat="28.396082" lon="104.704432"><ele>583.0883</ele><time>2026-01-31T00:29:16.000Z</time></trkpt>
        <trkpt lat="28.396109" lon="104.70448"><ele>580.424</ele><time>2026-01-31T00:29:23.000Z</time></trkpt>
        <trkpt lat="28.396097" lon="104.704533"><ele>578.266</ele><time>2026-01-31T00:29:29.000Z</time></trkpt>
        <trkpt lat="28.396071" lon="104.704585"><ele>576.53687</ele><time>2026-01-31T00:29:35.000Z</time></trkpt>
        <trkpt lat="28.396104" lon="104.704621"><ele>573.6745</ele><time>2026-01-31T00:29:45.000Z</time></trkpt>
        <trkpt lat="28.396129" lon="104.704664"><ele>573.64435</ele><time>2026-01-31T00:29:50.000Z</time></trkpt>
        <trkpt lat="28.396152" lon="104.704708"><ele>572.22064</ele><time>2026-01-31T00:29:56.000Z</time></trkpt>
        <trkpt lat="28.396122" lon="104.70475"><ele>569.82294</ele><time>2026-01-31T00:30:15.000Z</time></trkpt>
        <trkpt lat="28.396178" lon="104.704744"><ele>569.6872</ele><time>2026-01-31T00:30:29.000Z</time></trkpt>
        <trkpt lat="28.39622" lon="104.704765"><ele>570.4972</ele><time>2026-01-31T00:30:33.000Z</time></trkpt>
        <trkpt lat="28.396255" lon="104.704807"><ele>570.7918</ele><time>2026-01-31T00:30:41.000Z</time></trkpt>
        <trkpt lat="28.396284" lon="104.704856"><ele>570.1073</ele><time>2026-01-31T00:30:46.000Z</time></trkpt>
        <trkpt lat="28.39631" lon="104.704897"><ele>568.399</ele><time>2026-01-31T00:30:56.000Z</time></trkpt>
        <trkpt lat="28.396324" lon="104.704978"><ele>565.7429</ele><time>2026-01-31T00:31:09.000Z</time></trkpt>
        <trkpt lat="28.396323" lon="104.70504"><ele>562.505</ele><time>2026-01-31T00:31:19.000Z</time></trkpt>
        <trkpt lat="28.396269" lon="104.705078"><ele>562.61304</ele><time>2026-01-31T00:31:33.000Z</time></trkpt>
        <trkpt lat="28.396267" lon="104.70513"><ele>562.20825</ele><time>2026-01-31T00:31:34.000Z</time></trkpt>
        <trkpt lat="28.396328" lon="104.70512"><ele>562.7269</ele><time>2026-01-31T00:31:36.000Z</time></trkpt>
        <trkpt lat="28.396376" lon="104.705151"><ele>561.648</ele><time>2026-01-31T00:31:40.000Z</time></trkpt>
        <trkpt lat="28.396423" lon="104.70515"><ele>561.05084</ele><time>2026-01-31T00:31:43.000Z</time></trkpt>
        <trkpt lat="28.396465" lon="104.70517"><ele>560.4931</ele><time>2026-01-31T00:31:47.000Z</time></trkpt>
        <trkpt lat="28.396521" lon="104.705176"><ele>558.89044</ele><time>2026-01-31T00:31:52.000Z</time></trkpt>
        <trkpt lat="28.396576" lon="104.705171"><ele>558.5973</ele><time>2026-01-31T00:31:56.000Z</time></trkpt>
        <trkpt lat="28.396629" lon="104.705184"><ele>556.79675</ele><time>2026-01-31T00:32:03.000Z</time></trkpt>
        <trkpt lat="28.396682" lon="104.705193"><ele>556.8635</ele><time>2026-01-31T00:32:09.000Z</time></trkpt>
        <trkpt lat="28.396732" lon="104.705189"><ele>556.07465</ele><time>2026-01-31T00:32:15.000Z</time></trkpt>
        <trkpt lat="28.396786" lon="104.705197"><ele>556.5305</ele><time>2026-01-31T00:32:22.000Z</time></trkpt>
        <trkpt lat="28.396833" lon="104.70521"><ele>556.91327</ele><time>2026-01-31T00:32:28.000Z</time></trkpt>
        <trkpt lat="28.396887" lon="104.705226"><ele>556.014</ele><time>2026-01-31T00:32:34.000Z</time></trkpt>
        <trkpt lat="28.396939" lon="104.705241"><ele>554.77844</ele><time>2026-01-31T00:32:40.000Z</time></trkpt>
        <trkpt lat="28.396981" lon="104.705261"><ele>553.89484</ele><time>2026-01-31T00:32:45.000Z</time></trkpt>
        <trkpt lat="28.397026" lon="104.70527"><ele>554.10236</ele><time>2026-01-31T00:32:50.000Z</time></trkpt>
        <trkpt lat="28.39707" lon="104.705283"><ele>553.9852</ele><time>2026-01-31T00:32:55.000Z</time></trkpt>
        <trkpt lat="28.397121" lon="104.705286"><ele>555.056</ele><time>2026-01-31T00:33:00.000Z</time></trkpt>
        <trkpt lat="28.397168" lon="104.705304"><ele>556.2657</ele><time>2026-01-31T00:33:08.000Z</time></trkpt>
        <trkpt lat="28.397217" lon="104.705294"><ele>558.1838</ele><time>2026-01-31T00:33:16.000Z</time></trkpt>
        <trkpt lat="28.397266" lon="104.70529"><ele>559.3954</ele><time>2026-01-31T00:33:21.000Z</time></trkpt>
        <trkpt lat="28.397317" lon="104.70531"><ele>560.8435</ele><time>2026-01-31T00:33:25.000Z</time></trkpt>
        <trkpt lat="28.397371" lon="104.705346"><ele>562.6571</ele><time>2026-01-31T00:33:30.000Z</time></trkpt>
        <trkpt lat="28.39741" lon="104.705388"><ele>564.1877</ele><time>2026-01-31T00:33:34.000Z</time></trkpt>
        <trkpt lat="28.397449" lon="104.70543"><ele>564.6033</ele><time>2026-01-31T00:33:39.000Z</time></trkpt>
        <trkpt lat="28.397468" lon="104.705477"><ele>564.16815</ele><time>2026-01-31T00:33:46.000Z</time></trkpt>
        <trkpt lat="28.397479" lon="104.705534"><ele>562.6196</ele><time>2026-01-31T00:34:01.000Z</time></trkpt>
        <trkpt lat="28.397502" lon="104.705588"><ele>559.5873</ele><time>2026-01-31T00:34:07.000Z</time></trkpt>
        <trkpt lat="28.397535" lon="104.705641"><ele>558.61615</ele><time>2026-01-31T00:34:11.000Z</time></trkpt>
        <trkpt lat="28.397547" lon="104.7057"><ele>557.9022</ele><time>2026-01-31T00:34:15.000Z</time></trkpt>
        <trkpt lat="28.397572" lon="104.705748"><ele>555.8762</ele><time>2026-01-31T00:34:22.000Z</time></trkpt>
        <trkpt lat="28.397594" lon="104.705795"><ele>554.48126</ele><time>2026-01-31T00:34:28.000Z</time></trkpt>
        <trkpt lat="28.397598" lon="104.705848"><ele>552.65045</ele><time>2026-01-31T00:34:33.000Z</time></trkpt>
        <trkpt lat="28.397604" lon="104.7059"><ele>551.0034</ele><time>2026-01-31T00:34:42.000Z</time></trkpt>
        <trkpt lat="28.397616" lon="104.705955"><ele>548.67676</ele><time>2026-01-31T00:34:48.000Z</time></trkpt>
        <trkpt lat="28.397623" lon="104.706005"><ele>547.5495</ele><time>2026-01-31T00:34:54.000Z</time></trkpt>
        <trkpt lat="28.397626" lon="104.706059"><ele>547.25433</ele><time>2026-01-31T00:34:58.000Z</time></trkpt>
        <trkpt lat="28.397628" lon="104.706115"><ele>545.78406</ele><time>2026-01-31T00:35:05.000Z</time></trkpt>
        <trkpt lat="28.397662" lon="104.706163"><ele>545.45197</ele><time>2026-01-31T00:35:13.000Z</time></trkpt>
        <trkpt lat="28.3977" lon="104.706195"><ele>545.0826</ele><time>2026-01-31T00:35:19.000Z</time></trkpt>
        <trkpt lat="28.397739" lon="104.706242"><ele>544.87024</ele><time>2026-01-31T00:35:28.000Z</time></trkpt>
        <trkpt lat="28.39776" lon="104.706295"><ele>545.0743</ele><time>2026-01-31T00:35:33.000Z</time></trkpt>
        <trkpt lat="28.397797" lon="104.706344"><ele>546.5591</ele><time>2026-01-31T00:35:38.000Z</time></trkpt>
        <trkpt lat="28.397825" lon="104.706387"><ele>546.17847</ele><time>2026-01-31T00:35:44.000Z</time></trkpt>
        <trkpt lat="28.397865" lon="104.706438"><ele>548.48816</ele><time>2026-01-31T00:35:50.000Z</time></trkpt>
        <trkpt lat="28.397912" lon="104.706476"><ele>549.56067</ele><time>2026-01-31T00:35:55.000Z</time></trkpt>
        <trkpt lat="28.397963" lon="104.706482"><ele>550.6952</ele><time>2026-01-31T00:36:00.000Z</time></trkpt>
        <trkpt lat="28.398009" lon="104.706498"><ele>550.79407</ele><time>2026-01-31T00:36:06.000Z</time></trkpt>
        <trkpt lat="28.398062" lon="104.7065"><ele>551.79553</ele><time>2026-01-31T00:36:15.000Z</time></trkpt>
        <trkpt lat="28.398113" lon="104.706497"><ele>551.7574</ele><time>2026-01-31T00:36:21.000Z</time></trkpt>
        <trkpt lat="28.398161" lon="104.706519"><ele>553.3754</ele><time>2026-01-31T00:36:27.000Z</time></trkpt>
        <trkpt lat="28.398206" lon="104.706547"><ele>553.91583</ele><time>2026-01-31T00:36:32.000Z</time></trkpt>
        <trkpt lat="28.398246" lon="104.706574"><ele>553.7683</ele><time>2026-01-31T00:36:37.000Z</time></trkpt>
        <trkpt lat="28.398282" lon="104.706615"><ele>554.0734</ele><time>2026-01-31T00:36:42.000Z</time></trkpt>
        <trkpt lat="28.39831" lon="104.706664"><ele>553.882</ele><time>2026-01-31T00:36:48.000Z</time></trkpt>
        <trkpt lat="28.398349" lon="104.706698"><ele>552.88574</ele><time>2026-01-31T00:36:53.000Z</time></trkpt>
        <trkpt lat="28.398398" lon="104.706731"><ele>552.0601</ele><time>2026-01-31T00:36:58.000Z</time></trkpt>
        <trkpt lat="28.398444" lon="104.706748"><ele>551.71655</ele><time>2026-01-31T00:37:03.000Z</time></trkpt>
        <trkpt lat="28.398502" lon="104.706741"><ele>550.47675</ele><time>2026-01-31T00:37:07.000Z</time></trkpt>
        <trkpt lat="28.39856" lon="104.706748"><ele>549.0803</ele><time>2026-01-31T00:37:12.000Z</time></trkpt>
        <trkpt lat="28.398611" lon="104.706767"><ele>547.8125</ele><time>2026-01-31T00:37:18.000Z</time></trkpt>
        <trkpt lat="28.398655" lon="104.706782"><ele>547.33655</ele><time>2026-01-31T00:37:22.000Z</time></trkpt>
        <trkpt lat="28.398699" lon="104.706806"><ele>546.1419</ele><time>2026-01-31T00:37:27.000Z</time></trkpt>
        <trkpt lat="28.398746" lon="104.706826"><ele>545.52875</ele><time>2026-01-31T00:37:33.000Z</time></trkpt>
        <trkpt lat="28.398788" lon="104.706858"><ele>544.39905</ele><time>2026-01-31T00:37:38.000Z</time></trkpt>
        <trkpt lat="28.39883" lon="104.706884"><ele>544.5622</ele><time>2026-01-31T00:37:42.000Z</time></trkpt>
        <trkpt lat="28.39886" lon="104.706936"><ele>542.83905</ele><time>2026-01-31T00:37:48.000Z</time></trkpt>
        <trkpt lat="28.398893" lon="104.706974"><ele>540.872</ele><time>2026-01-31T00:37:52.000Z</time></trkpt>
        <trkpt lat="28.398921" lon="104.707029"><ele>539.03064</ele><time>2026-01-31T00:37:57.000Z</time></trkpt>
        <trkpt lat="28.39895" lon="104.707071"><ele>538.0644</ele><time>2026-01-31T00:38:02.000Z</time></trkpt>
        <trkpt lat="28.398986" lon="104.707106"><ele>537.07086</ele><time>2026-01-31T00:38:07.000Z</time></trkpt>
        <trkpt lat="28.399018" lon="104.707145"><ele>535.13995</ele><time>2026-01-31T00:38:11.000Z</time></trkpt>
        <trkpt lat="28.399068" lon="104.707177"><ele>534.54877</ele><time>2026-01-31T00:38:16.000Z</time></trkpt>
        <trkpt lat="28.399118" lon="104.707202"><ele>533.0157</ele><time>2026-01-31T00:38:20.000Z</time></trkpt>
        <trkpt lat="28.399161" lon="104.707223"><ele>531.0646</ele><time>2026-01-31T00:38:25.000Z</time></trkpt>
        <trkpt lat="28.399209" lon="104.707233"><ele>528.9828</ele><time>2026-01-31T00:38:30.000Z</time></trkpt>
        <trkpt lat="28.399259" lon="104.707235"><ele>528.0815</ele><time>2026-01-31T00:38:34.000Z</time></trkpt>
        <trkpt lat="28.399309" lon="104.707232"><ele>526.9123</ele><time>2026-01-31T00:38:39.000Z</time></trkpt>
        <trkpt lat="28.39935" lon="104.707205"><ele>526.0846</ele><time>2026-01-31T00:38:44.000Z</time></trkpt>
        <trkpt lat="28.399401" lon="104.707182"><ele>526.41</ele><time>2026-01-31T00:38:51.000Z</time></trkpt>
        <trkpt lat="28.399453" lon="104.707173"><ele>527.7688</ele><time>2026-01-31T00:38:58.000Z</time></trkpt>
        <trkpt lat="28.399503" lon="104.707181"><ele>527.42114</ele><time>2026-01-31T00:39:04.000Z</time></trkpt>
        <trkpt lat="28.399551" lon="104.70718"><ele>526.68976</ele><time>2026-01-31T00:39:09.000Z</time></trkpt>
        <trkpt lat="28.399603" lon="104.7072"><ele>526.0755</ele><time>2026-01-31T00:39:14.000Z</time></trkpt>
        <trkpt lat="28.399652" lon="104.70722"><ele>524.9599</ele><time>2026-01-31T00:39:19.000Z</time></trkpt>
        <trkpt lat="28.399695" lon="104.707239"><ele>523.9173</ele><time>2026-01-31T00:39:23.000Z</time></trkpt>
        <trkpt lat="28.399752" lon="104.707256"><ele>522.87067</ele><time>2026-01-31T00:39:28.000Z</time></trkpt>
        <trkpt lat="28.399803" lon="104.707278"><ele>522.10834</ele><time>2026-01-31T00:39:33.000Z</time></trkpt>
        <trkpt lat="28.39985" lon="104.707301"><ele>521.05084</ele><time>2026-01-31T00:39:38.000Z</time></trkpt>
        <trkpt lat="28.399894" lon="104.707319"><ele>520.3833</ele><time>2026-01-31T00:39:42.000Z</time></trkpt>
        <trkpt lat="28.399938" lon="104.707344"><ele>519.41205</ele><time>2026-01-31T00:39:47.000Z</time></trkpt>
        <trkpt lat="28.399983" lon="104.707362"><ele>518.9915</ele><time>2026-01-31T00:39:52.000Z</time></trkpt>
        <trkpt lat="28.400028" lon="104.707375"><ele>517.7311</ele><time>2026-01-31T00:39:58.000Z</time></trkpt>
        <trkpt lat="28.400074" lon="104.707382"><ele>516.7985</ele><time>2026-01-31T00:40:04.000Z</time></trkpt>
        <trkpt lat="28.400116" lon="104.707402"><ele>515.86536</ele><time>2026-01-31T00:40:10.000Z</time></trkpt>
        <trkpt lat="28.400155" lon="104.707432"><ele>515.66437</ele><time>2026-01-31T00:40:15.000Z</time></trkpt>
        <trkpt lat="28.400201" lon="104.707461"><ele>514.3298</ele><time>2026-01-31T00:40:21.000Z</time></trkpt>
        <trkpt lat="28.400246" lon="104.70748"><ele>513.59186</ele><time>2026-01-31T00:40:26.000Z</time></trkpt>
        <trkpt lat="28.400287" lon="104.707502"><ele>512.9252</ele><time>2026-01-31T00:40:31.000Z</time></trkpt>
        <trkpt lat="28.400336" lon="104.70753"><ele>512.6658</ele><time>2026-01-31T00:40:37.000Z</time></trkpt>
        <trkpt lat="28.400388" lon="104.707535"><ele>511.653</ele><time>2026-01-31T00:40:42.000Z</time></trkpt>
        <trkpt lat="28.40043" lon="104.707516"><ele>511.15576</ele><time>2026-01-31T00:40:47.000Z</time></trkpt>
        <trkpt lat="28.400478" lon="104.707501"><ele>510.80475</ele><time>2026-01-31T00:40:52.000Z</time></trkpt>
        <trkpt lat="28.400524" lon="104.707493"><ele>510.68472</ele><time>2026-01-31T00:40:58.000Z</time></trkpt>
        <trkpt lat="28.400574" lon="104.707461"><ele>510.393</ele><time>2026-01-31T00:41:04.000Z</time></trkpt>
        <trkpt lat="28.400617" lon="104.707429"><ele>510.67953</ele><time>2026-01-31T00:41:11.000Z</time></trkpt>
        <trkpt lat="28.400656" lon="104.707401"><ele>510.2239</ele><time>2026-01-31T00:41:17.000Z</time></trkpt>
        <trkpt lat="28.400703" lon="104.707371"><ele>510.0297</ele><time>2026-01-31T00:41:21.000Z</time></trkpt>
        <trkpt lat="28.400747" lon="104.707348"><ele>509.82474</ele><time>2026-01-31T00:41:25.000Z</time></trkpt>
        <trkpt lat="28.400783" lon="104.707314"><ele>510.96555</ele><time>2026-01-31T00:41:30.000Z</time></trkpt>
        <trkpt lat="28.400826" lon="104.707298"><ele>511.0511</ele><time>2026-01-31T00:41:34.000Z</time></trkpt>
        <trkpt lat="28.400876" lon="104.707288"><ele>511.6388</ele><time>2026-01-31T00:41:39.000Z</time></trkpt>
        <trkpt lat="28.400928" lon="104.707303"><ele>511.99783</ele><time>2026-01-31T00:41:44.000Z</time></trkpt>
        <trkpt lat="28.400976" lon="104.707313"><ele>511.08142</ele><time>2026-01-31T00:41:48.000Z</time></trkpt>
        <trkpt lat="28.401022" lon="104.707337"><ele>509.94696</ele><time>2026-01-31T00:41:53.000Z</time></trkpt>
        <trkpt lat="28.401067" lon="104.70736"><ele>509.57135</ele><time>2026-01-31T00:41:57.000Z</time></trkpt>
        <trkpt lat="28.401111" lon="104.707386"><ele>508.9207</ele><time>2026-01-31T00:42:01.000Z</time></trkpt>
        <trkpt lat="28.401153" lon="104.707409"><ele>508.99667</ele><time>2026-01-31T00:42:06.000Z</time></trkpt>
        <trkpt lat="28.401203" lon="104.707422"><ele>507.75082</ele><time>2026-01-31T00:42:15.000Z</time></trkpt>
        <trkpt lat="28.401238" lon="104.707463"><ele>507.0811</ele><time>2026-01-31T00:42:19.000Z</time></trkpt>
        <trkpt lat="28.401285" lon="104.707471"><ele>506.66547</ele><time>2026-01-31T00:42:22.000Z</time></trkpt>
        <trkpt lat="28.401334" lon="104.707487"><ele>505.34708</ele><time>2026-01-31T00:42:27.000Z</time></trkpt>
        <trkpt lat="28.401397" lon="104.707484"><ele>503.95688</ele><time>2026-01-31T00:42:32.000Z</time></trkpt>
        <trkpt lat="28.40145" lon="104.707477"><ele>503.36935</ele><time>2026-01-31T00:42:36.000Z</time></trkpt>
        <trkpt lat="28.401502" lon="104.7075"><ele>502.096</ele><time>2026-01-31T00:42:41.000Z</time></trkpt>
        <trkpt lat="28.401554" lon="104.707528"><ele>501.85846</ele><time>2026-01-31T00:42:46.000Z</time></trkpt>
        <trkpt lat="28.401598" lon="104.707553"><ele>501.26807</ele><time>2026-01-31T00:42:50.000Z</time></trkpt>
        <trkpt lat="28.401626" lon="104.707599"><ele>500.59537</ele><time>2026-01-31T00:42:54.000Z</time></trkpt>
        <trkpt lat="28.401626" lon="104.707665"><ele>499.77267</ele><time>2026-01-31T00:42:59.000Z</time></trkpt>
        <trkpt lat="28.401619" lon="104.707718"><ele>499.32434</ele><time>2026-01-31T00:43:05.000Z</time></trkpt>
        <trkpt lat="28.401622" lon="104.707772"><ele>498.4778</ele><time>2026-01-31T00:43:09.000Z</time></trkpt>
        <trkpt lat="28.401617" lon="104.707828"><ele>497.30417</ele><time>2026-01-31T00:43:19.000Z</time></trkpt>
        <trkpt lat="28.401616" lon="104.707887"><ele>496.93124</ele><time>2026-01-31T00:43:24.000Z</time></trkpt>
        <trkpt lat="28.401623" lon="104.707938"><ele>496.90286</ele><time>2026-01-31T00:43:28.000Z</time></trkpt>
        <trkpt lat="28.401617" lon="104.707996"><ele>496.0415</ele><time>2026-01-31T00:43:33.000Z</time></trkpt>
        <trkpt lat="28.401614" lon="104.708054"><ele>495.08243</ele><time>2026-01-31T00:43:38.000Z</time></trkpt>
        <trkpt lat="28.401623" lon="104.70812"><ele>494.97208</ele><time>2026-01-31T00:43:43.000Z</time></trkpt>
        <trkpt lat="28.401635" lon="104.708174"><ele>494.35468</ele><time>2026-01-31T00:43:47.000Z</time></trkpt>
        <trkpt lat="28.401633" lon="104.708229"><ele>493.7567</ele><time>2026-01-31T00:43:52.000Z</time></trkpt>
        <trkpt lat="28.401628" lon="104.708293"><ele>492.75903</ele><time>2026-01-31T00:43:57.000Z</time></trkpt>
        <trkpt lat="28.401625" lon="104.708345"><ele>491.87827</ele><time>2026-01-31T00:44:01.000Z</time></trkpt>
        <trkpt lat="28.401626" lon="104.708397"><ele>491.7806</ele><time>2026-01-31T00:44:05.000Z</time></trkpt>
        <trkpt lat="28.401642" lon="104.708447"><ele>492.21487</ele><time>2026-01-31T00:44:10.000Z</time></trkpt>
        <trkpt lat="28.401644" lon="104.708504"><ele>492.2898</ele><time>2026-01-31T00:44:15.000Z</time></trkpt>
        <trkpt lat="28.401661" lon="104.708565"><ele>492.76752</ele><time>2026-01-31T00:44:19.000Z</time></trkpt>
        <trkpt lat="28.401686" lon="104.708612"><ele>491.4586</ele><time>2026-01-31T00:44:24.000Z</time></trkpt>
        <trkpt lat="28.401736" lon="104.708638"><ele>489.03516</ele><time>2026-01-31T00:44:30.000Z</time></trkpt>
        <trkpt lat="28.401789" lon="104.708627"><ele>487.64987</ele><time>2026-01-31T00:44:35.000Z</time></trkpt>
        <trkpt lat="28.401835" lon="104.708596"><ele>487.05777</ele><time>2026-01-31T00:44:39.000Z</time></trkpt>
        <trkpt lat="28.40187" lon="104.708562"><ele>486.37344</ele><time>2026-01-31T00:44:42.000Z</time></trkpt>
        <trkpt lat="28.401919" lon="104.708534"><ele>485.265</ele><time>2026-01-31T00:44:48.000Z</time></trkpt>
        <trkpt lat="28.401958" lon="104.708491"><ele>484.31995</ele><time>2026-01-31T00:44:53.000Z</time></trkpt>
        <trkpt lat="28.402001" lon="104.708456"><ele>484.6445</ele><time>2026-01-31T00:44:58.000Z</time></trkpt>
        <trkpt lat="28.402046" lon="104.708431"><ele>485.40485</ele><time>2026-01-31T00:45:03.000Z</time></trkpt>
        <trkpt lat="28.402087" lon="104.70841"><ele>485.59085</ele><time>2026-01-31T00:45:09.000Z</time></trkpt>
        <trkpt lat="28.402147" lon="104.708416"><ele>486.86694</ele><time>2026-01-31T00:45:14.000Z</time></trkpt>
        <trkpt lat="28.402195" lon="104.708437"><ele>486.57138</ele><time>2026-01-31T00:45:18.000Z</time></trkpt>
        <trkpt lat="28.402236" lon="104.708458"><ele>486.43896</ele><time>2026-01-31T00:45:22.000Z</time></trkpt>
        <trkpt lat="28.402284" lon="104.708487"><ele>486.32077</ele><time>2026-01-31T00:45:26.000Z</time></trkpt>
        <trkpt lat="28.402329" lon="104.708496"><ele>486.06018</ele><time>2026-01-31T00:45:29.000Z</time></trkpt>
        <trkpt lat="28.402379" lon="104.708496"><ele>486.45663</ele><time>2026-01-31T00:45:33.000Z</time></trkpt>
        <trkpt lat="28.40242" lon="104.708529"><ele>485.52777</ele><time>2026-01-31T00:45:37.000Z</time></trkpt>
        <trkpt lat="28.402469" lon="104.708552"><ele>484.00378</ele><time>2026-01-31T00:45:42.000Z</time></trkpt>
        <trkpt lat="28.402506" lon="104.708583"><ele>482.84494</ele><time>2026-01-31T00:45:46.000Z</time></trkpt>
        <trkpt lat="28.402557" lon="104.708602"><ele>482.12482</ele><time>2026-01-31T00:45:50.000Z</time></trkpt>
        <trkpt lat="28.402606" lon="104.708633"><ele>481.7122</ele><time>2026-01-31T00:45:55.000Z</time></trkpt>
        <trkpt lat="28.402653" lon="104.708665"><ele>481.3449</ele><time>2026-01-31T00:46:00.000Z</time></trkpt>
        <trkpt lat="28.402697" lon="104.708688"><ele>481.41425</ele><time>2026-01-31T00:46:04.000Z</time></trkpt>
        <trkpt lat="28.402747" lon="104.708667"><ele>481.92383</ele><time>2026-01-31T00:46:09.000Z</time></trkpt>
        <trkpt lat="28.402782" lon="104.708711"><ele>481.6168</ele><time>2026-01-31T00:46:14.000Z</time></trkpt>
        <trkpt lat="28.402823" lon="104.70874"><ele>481.45456</ele><time>2026-01-31T00:46:22.000Z</time></trkpt>
        <trkpt lat="28.402868" lon="104.708746"><ele>480.10828</ele><time>2026-01-31T00:46:28.000Z</time></trkpt>
        <trkpt lat="28.40292" lon="104.708754"><ele>479.3263</ele><time>2026-01-31T00:46:33.000Z</time></trkpt>
        <trkpt lat="28.402966" lon="104.708757"><ele>478.19293</ele><time>2026-01-31T00:46:37.000Z</time></trkpt>
        <trkpt lat="28.403022" lon="104.708762"><ele>477.6815</ele><time>2026-01-31T00:46:42.000Z</time></trkpt>
        <trkpt lat="28.403078" lon="104.708763"><ele>477.3171</ele><time>2026-01-31T00:46:47.000Z</time></trkpt>
        <trkpt lat="28.403127" lon="104.708777"><ele>476.8104</ele><time>2026-01-31T00:46:51.000Z</time></trkpt>
        <trkpt lat="28.403178" lon="104.708785"><ele>476.3174</ele><time>2026-01-31T00:46:55.000Z</time></trkpt>
        <trkpt lat="28.403231" lon="104.708791"><ele>475.36124</ele><time>2026-01-31T00:47:00.000Z</time></trkpt>
        <trkpt lat="28.403282" lon="104.708812"><ele>474.9175</ele><time>2026-01-31T00:47:05.000Z</time></trkpt>
        <trkpt lat="28.403329" lon="104.708843"><ele>473.28445</ele><time>2026-01-31T00:47:11.000Z</time></trkpt>
        <trkpt lat="28.403378" lon="104.708866"><ele>472.75623</ele><time>2026-01-31T00:47:17.000Z</time></trkpt>
        <trkpt lat="28.40342" lon="104.708895"><ele>472.1656</ele><time>2026-01-31T00:47:21.000Z</time></trkpt>
        <trkpt lat="28.403463" lon="104.708917"><ele>472.1198</ele><time>2026-01-31T00:47:25.000Z</time></trkpt>
        <trkpt lat="28.403507" lon="104.708941"><ele>471.812</ele><time>2026-01-31T00:47:29.000Z</time></trkpt>
        <trkpt lat="28.403557" lon="104.70896"><ele>471.89032</ele><time>2026-01-31T00:47:33.000Z</time></trkpt>
        <trkpt lat="28.403602" lon="104.708974"><ele>472.1541</ele><time>2026-01-31T00:47:38.000Z</time></trkpt>
        <trkpt lat="28.40365" lon="104.708979"><ele>472.30276</ele><time>2026-01-31T00:47:41.000Z</time></trkpt>
        <trkpt lat="28.403703" lon="104.708968"><ele>472.44522</ele><time>2026-01-31T00:47:46.000Z</time></trkpt>
        <trkpt lat="28.403748" lon="104.708936"><ele>472.70767</ele><time>2026-01-31T00:47:50.000Z</time></trkpt>
        <trkpt lat="28.403786" lon="104.708909"><ele>472.88263</ele><time>2026-01-31T00:47:54.000Z</time></trkpt>
        <trkpt lat="28.403828" lon="104.708882"><ele>471.97232</ele><time>2026-01-31T00:47:59.000Z</time></trkpt>
        <trkpt lat="28.403878" lon="104.708884"><ele>470.71497</ele><time>2026-01-31T00:48:06.000Z</time></trkpt>
        <trkpt lat="28.403928" lon="104.708875"><ele>470.0989</ele><time>2026-01-31T00:48:10.000Z</time></trkpt>
        <trkpt lat="28.403981" lon="104.708858"><ele>470.1048</ele><time>2026-01-31T00:48:14.000Z</time></trkpt>
        <trkpt lat="28.404037" lon="104.70886"><ele>470.04364</ele><time>2026-01-31T00:48:21.000Z</time></trkpt>
        <trkpt lat="28.404096" lon="104.708844"><ele>469.58713</ele><time>2026-01-31T00:48:26.000Z</time></trkpt>
        <trkpt lat="28.404145" lon="104.708849"><ele>469.56747</ele><time>2026-01-31T00:48:29.000Z</time></trkpt>
        <trkpt lat="28.404193" lon="104.708839"><ele>469.98383</ele><time>2026-01-31T00:48:34.000Z</time></trkpt>
        <trkpt lat="28.404246" lon="104.708858"><ele>470.46155</ele><time>2026-01-31T00:48:38.000Z</time></trkpt>
        <trkpt lat="28.404289" lon="104.708874"><ele>470.60272</ele><time>2026-01-31T00:48:42.000Z</time></trkpt>
        <trkpt lat="28.404339" lon="104.708885"><ele>471.73584</ele><time>2026-01-31T00:48:47.000Z</time></trkpt>
        <trkpt lat="28.404385" lon="104.708904"><ele>470.94363</ele><time>2026-01-31T00:48:51.000Z</time></trkpt>
        <trkpt lat="28.404422" lon="104.708942"><ele>470.68155</ele><time>2026-01-31T00:48:56.000Z</time></trkpt>
        <trkpt lat="28.404469" lon="104.70897"><ele>470.24982</ele><time>2026-01-31T00:49:00.000Z</time></trkpt>
        <trkpt lat="28.404503" lon="104.70902"><ele>471.10934</ele><time>2026-01-31T00:49:11.000Z</time></trkpt>
        <trkpt lat="28.404556" lon="104.709039"><ele>471.74963</ele><time>2026-01-31T00:49:16.000Z</time></trkpt>
        <trkpt lat="28.404608" lon="104.709052"><ele>472.08923</ele><time>2026-01-31T00:49:21.000Z</time></trkpt>
        <trkpt lat="28.404653" lon="104.709077"><ele>472.6967</ele><time>2026-01-31T00:49:25.000Z</time></trkpt>
        <trkpt lat="28.404705" lon="104.709097"><ele>473.66925</ele><time>2026-01-31T00:49:29.000Z</time></trkpt>
        <trkpt lat="28.40474" lon="104.709138"><ele>473.25583</ele><time>2026-01-31T00:49:33.000Z</time></trkpt>
        <trkpt lat="28.404763" lon="104.70919"><ele>473.3409</ele><time>2026-01-31T00:49:37.000Z</time></trkpt>
        <trkpt lat="28.404762" lon="104.709243"><ele>472.07986</ele><time>2026-01-31T00:49:41.000Z</time></trkpt>
        <trkpt lat="28.404751" lon="104.7093"><ele>470.75052</ele><time>2026-01-31T00:49:46.000Z</time></trkpt>
        <trkpt lat="28.404737" lon="104.70935"><ele>470.674</ele><time>2026-01-31T00:49:49.000Z</time></trkpt>
        <trkpt lat="28.404735" lon="104.709413"><ele>470.8398</ele><time>2026-01-31T00:49:53.000Z</time></trkpt>
        <trkpt lat="28.404722" lon="104.709466"><ele>470.61823</ele><time>2026-01-31T00:49:57.000Z</time></trkpt>
        <trkpt lat="28.404703" lon="104.709516"><ele>470.02722</ele><time>2026-01-31T00:50:02.000Z</time></trkpt>
        <trkpt lat="28.404663" lon="104.709551"><ele>469.56604</ele><time>2026-01-31T00:50:09.000Z</time></trkpt>
        <trkpt lat="28.404647" lon="104.709607"><ele>470.09714</ele><time>2026-01-31T00:50:13.000Z</time></trkpt>
        <trkpt lat="28.40462" lon="104.709655"><ele>468.94397</ele><time>2026-01-31T00:50:18.000Z</time></trkpt>
        <trkpt lat="28.404591" lon="104.709703"><ele>468.0377</ele><time>2026-01-31T00:50:23.000Z</time></trkpt>
        <trkpt lat="28.404566" lon="104.709756"><ele>467.644</ele><time>2026-01-31T00:50:28.000Z</time></trkpt>
        <trkpt lat="28.404543" lon="104.70981"><ele>467.33704</ele><time>2026-01-31T00:50:33.000Z</time></trkpt>
        <trkpt lat="28.404519" lon="104.709859"><ele>466.96802</ele><time>2026-01-31T00:50:36.000Z</time></trkpt>
        <trkpt lat="28.40449" lon="104.709899"><ele>466.64728</ele><time>2026-01-31T00:50:40.000Z</time></trkpt>
        <trkpt lat="28.40446" lon="104.709955"><ele>466.44928</ele><time>2026-01-31T00:50:45.000Z</time></trkpt>
        <trkpt lat="28.404426" lon="104.710004"><ele>466.3038</ele><time>2026-01-31T00:50:49.000Z</time></trkpt>
        <trkpt lat="28.4044" lon="104.710053"><ele>466.22238</ele><time>2026-01-31T00:50:53.000Z</time></trkpt>
        <trkpt lat="28.404372" lon="104.710107"><ele>466.0101</ele><time>2026-01-31T00:50:58.000Z</time></trkpt>
        <trkpt lat="28.404367" lon="104.710163"><ele>465.7943</ele><time>2026-01-31T00:51:05.000Z</time></trkpt>
        <trkpt lat="28.404385" lon="104.710219"><ele>464.84344</ele><time>2026-01-31T00:51:10.000Z</time></trkpt>
        <trkpt lat="28.404407" lon="104.710272"><ele>464.5389</ele><time>2026-01-31T00:51:15.000Z</time></trkpt>
        <trkpt lat="28.404446" lon="104.710306"><ele>463.99243</ele><time>2026-01-31T00:51:19.000Z</time></trkpt>
        <trkpt lat="28.404474" lon="104.710354"><ele>464.1488</ele><time>2026-01-31T00:51:23.000Z</time></trkpt>
        <trkpt lat="28.404514" lon="104.710386"><ele>464.3232</ele><time>2026-01-31T00:51:29.000Z</time></trkpt>
        <trkpt lat="28.404541" lon="104.71045"><ele>464.32587</ele><time>2026-01-31T00:51:34.000Z</time></trkpt>
        <trkpt lat="28.404543" lon="104.710516"><ele>463.88757</ele><time>2026-01-31T00:51:39.000Z</time></trkpt>
        <trkpt lat="28.404584" lon="104.710563"><ele>463.50952</ele><time>2026-01-31T00:51:46.000Z</time></trkpt>
        <trkpt lat="28.404617" lon="104.710607"><ele>463.18918</ele><time>2026-01-31T00:51:50.000Z</time></trkpt>
        <trkpt lat="28.404649" lon="104.710652"><ele>462.64844</ele><time>2026-01-31T00:51:54.000Z</time></trkpt>
        <trkpt lat="28.40468" lon="104.71069"><ele>462.08087</ele><time>2026-01-31T00:51:58.000Z</time></trkpt>
        <trkpt lat="28.40471" lon="104.710733"><ele>461.49423</ele><time>2026-01-31T00:52:02.000Z</time></trkpt>
        <trkpt lat="28.404748" lon="104.710771"><ele>460.8208</ele><time>2026-01-31T00:52:06.000Z</time></trkpt>
        <trkpt lat="28.404777" lon="104.710821"><ele>460.67773</ele><time>2026-01-31T00:52:10.000Z</time></trkpt>
        <trkpt lat="28.4048" lon="104.710868"><ele>459.9356</ele><time>2026-01-31T00:52:14.000Z</time></trkpt>
        <trkpt lat="28.404823" lon="104.710919"><ele>459.2447</ele><time>2026-01-31T00:52:19.000Z</time></trkpt>
        <trkpt lat="28.40484" lon="104.710973"><ele>459.04636</ele><time>2026-01-31T00:52:24.000Z</time></trkpt>
        <trkpt lat="28.404866" lon="104.711031"><ele>459.17563</ele><time>2026-01-31T00:52:29.000Z</time></trkpt>
      </trkseg>
  </trk>
</gpx>